[[{"header":{"parameterUnit":"m.s-1","parameterCategory":1,"la1":30.6,"la2":29.2853,"lo1":-89.7004,"lo2":-87.6739,"dy":0.0162,"dx":0.0183,"nx":112,"ny":82,"refTime":"2026-02-27T12:00:00:Z","depth":0,"parameterNumber":2,"parameterNumberName":"U-component_of_WINDS"},"data":[0.0,0.0,0.0,0.0,0.0,0.0,0.0,0.0,0.0,0.0,0.0,0.0,0.0,0.0,0.0,0.0,0.0,0.0,0.0,0.0,0.0,0.0,0.0,0.0,0.0,0.0,0.0,0.0,0.0,0.0,0.0,0.0,0.0,0.0,0.0,0.0,0.0,0.0,0.0,0.0,0.0,0.0,0.0,0.0,0.0,0.0,0.0,0.0,0.0,0.0,0.0,0.0,0.0,0.0,0.0,0.0,0.0,0.0,0.0,0.0,0.0,0.0,0.0,0.0,0.0,0.0,0.0,0.0,0.0,0.0,0.0,0.0,0.0,0.0,0.0,0.0,0.0,0.0,0.0,0.0,0.0,0.0,0.0,0.0,0.0,0.0,0.0,0.0,0.0,0.0,-0.9753,-1.077,-1.2204,-1.3082,-1.3082,-1.2977,-1.2306,-1.0843,0.0,0.0,0.0,0.0,0.0,0.0,0.0,0.0,0.0,0.0,0.0,0.0,0.0,0.0,0.0,0.0,0.0,0.0,0.0,0.0,0.0,0.0,0.0,0.0,0.0,0.0,0.0,0.0,0.0,0.0,0.0,0.0,0.0,0.0,0.0,0.0,0.0,0.0,0.0,0.0,0.0,0.0,0.0,0.0,0.0,0.0,0.0,0.0,0.0,0.0,0.0,0.0,0.0,0.0,0.0,0.0,0.0,0.0,0.0,0.0,0.0,0.0,0.0,0.0,0.0,0.0,0.0,0.0,0.0,0.0,0.0,0.0,0.0,0.0,0.0,0.0,0.0,0.0,0.0,0.0,0.0,0.0,0.0,0.0,0.0,0.0,0.0,0.0,0.0,0.0,0.0,0.0,0.0,0.0,0.0,0.0,0.0,0.0,0.0,0.0,0.0,0.0,0.0,0.0,-0.9991,-1.1998,-1.295,-1.3418,-1.3418,-1.2904,-1.2262,-1.1489,0.0,0.0,0.0,0.0,0.0,0.0,0.0,0.0,0.0,0.0,0.0,0.0,0.0,0.0,0.0,0.0,0.0,0.0,0.0,0.0,0.0,0.0,0.0,0.0,0.0,0.0,0.0,0.0,0.0,0.0,0.0,0.0,0.0,0.0,0.0,0.0,0.0,0.0,0.0,0.0,0.0,0.0,0.0,0.0,0.0,0.0,0.0,0.0,0.0,0.0,0.0,0.0,0.0,0.0,0.0,0.0,0.0,0.0,0.0,0.0,0.0,0.0,0.0,0.0,0.0,0.0,0.0,0.0,0.0,0.0,0.0,0.0,0.0,0.0,0.0,0.0,0.0,0.0,0.0,0.0,0.0,0.0,0.0,0.0,0.0,0.0,0.0,0.0,0.0,0.0,0.0,0.0,0.0,0.0,0.0,0.0,0.0,0.0,0.0,0.0,0.0,0.0,0.0,-0.9938,-1.0887,-1.2582,-1.3214,-1.3492,-1.3492,-1.2889,-1.2248,-1.1635,-1.0491,0.0,0.0,0.0,0.0,0.0,0.0,0.0,0.0,0.0,0.0,0.0,0.0,0.0,0.0,0.0,0.0,0.0,0.0,0.0,0.0,0.0,0.0,0.0,0.0,0.0,0.0,0.0,0.0,0.0,0.0,0.0,0.0,0.0,0.0,0.0,0.0,0.0,0.0,0.0,0.0,0.0,0.0,0.0,0.0,0.0,0.0,0.0,0.0,0.0,0.0,0.0,0.0,0.0,0.0,0.0,0.0,0.0,0.0,0.0,0.0,0.0,0.0,0.0,0.0,0.0,0.0,0.0,0.0,0.0,0.0,0.0,0.0,0.0,0.0,0.0,0.0,0.0,0.0,0.0,0.0,0.0,0.0,0.0,0.0,0.0,0.0,0.0,0.0,0.0,0.0,0.0,0.0,0.0,0.0,0.0,0.0,0.0,0.0,0.0,0.0,0.0,0.0,-1.1034,-1.1823,-1.2892,-1.3301,-1.3492,-1.3492,-1.2801,-1.216,-1.1635,-1.0286,0.0,0.0,0.0,0.0,0.0,0.0,0.0,0.0,0.0,0.0,0.0,0.0,0.0,0.0,0.0,0.0,0.0,0.0,0.0,0.0,0.0,0.0,0.0,0.0,0.0,0.0,0.0,0.0,0.0,0.0,0.0,0.0,0.0,0.0,0.0,0.0,0.0,0.0,0.0,0.0,0.0,0.0,0.0,0.0,0.0,0.0,0.0,0.0,0.0,0.0,0.0,0.0,0.0,0.0,0.0,0.0,0.0,0.0,0.0,0.0,0.0,0.0,0.0,0.0,0.0,0.0,0.0,0.0,0.0,0.0,0.0,0.0,0.0,0.0,0.0,0.0,0.0,0.0,0.0,0.0,0.0,0.0,0.0,0.0,0.0,0.0,0.0,0.0,0.0,0.0,0.0,0.0,0.0,0.0,0.0,0.0,0.0,0.0,0.0,0.0,0.0,0.0,-1.1457,-1.2553,-1.2965,-1.3301,-1.3492,-1.3492,-1.2597,-1.191,-1.1606,-1.0109,0.0,0.0,0.0,0.0,0.0,0.0,0.0,0.0,0.0,0.0,0.0,0.0,0.0,0.0,0.0,0.0,0.0,0.0,0.0,0.0,0.0,0.0,0.0,0.0,0.0,0.0,0.0,0.0,0.0,0.0,0.0,0.0,0.0,0.0,0.0,0.0,0.0,0.0,0.0,0.0,0.0,0.0,0.0,0.0,0.0,0.0,0.0,0.0,0.0,0.0,0.0,0.0,0.0,0.0,0.0,0.0,0.0,0.0,0.0,0.0,0.0,0.0,0.0,0.0,0.0,0.0,0.0,0.0,0.0,0.0,0.0,0.0,0.0,0.0,0.0,0.0,0.0,0.0,0.0,0.0,0.0,0.0,0.0,0.0,0.0,0.0,0.0,0.0,0.0,0.0,0.0,0.0,0.0,0.0,0.0,0.0,0.0,0.0,0.0,0.0,0.0,0.0,-1.1312,-1.2294,-1.3214,-1.3418,-1.3492,-1.3492,-1.2772,-1.2012,-1.1342,0.0,0.0,0.0,0.0,0.0,0.0,0.0,0.0,0.0,0.0,0.0,0.0,0.0,0.0,0.0,0.0,0.0,0.0,0.0,0.0,0.0,0.0,0.0,0.0,0.0,0.0,0.0,0.0,0.0,0.0,0.0,0.0,0.0,0.0,0.0,0.0,0.0,0.0,0.0,0.0,0.0,0.0,0.0,0.0,0.0,0.0,0.0,0.0,0.0,0.0,0.0,0.0,0.0,0.0,0.0,0.0,0.0,0.0,0.0,0.0,0.0,0.0,0.0,0.0,0.0,0.0,0.0,0.0,0.0,0.0,0.0,0.0,0.0,0.0,0.0,0.0,0.0,0.0,0.0,0.0,0.0,0.0,0.0,0.0,0.0,0.0,0.0,0.0,0.0,0.0,0.0,0.0,0.0,0.0,0.0,0.0,0.0,0.0,0.0,0.0,0.0,0.0,-1.056,-1.1356,-1.2264,-1.3243,-1.3345,-1.3301,-1.3199,-1.2584,-1.1853,-1.1004,0.0,0.0,0.0,0.0,0.0,0.0,0.0,0.0,0.0,0.0,0.0,0.0,0.0,0.0,0.0,0.0,0.0,0.0,0.0,0.0,0.0,0.0,0.0,0.0,0.0,0.0,0.0,0.0,0.0,0.0,0.0,0.0,0.0,0.0,0.0,0.0,0.0,0.0,0.0,0.0,0.0,0.0,0.0,0.0,0.0,0.0,0.0,0.0,0.0,0.0,0.0,0.0,0.0,0.0,0.0,0.0,0.0,0.0,0.0,0.0,0.0,0.0,0.0,0.0,0.0,0.0,0.0,0.0,0.0,0.0,0.0,0.0,0.0,0.0,0.0,0.0,0.0,0.0,0.0,0.0,0.0,0.0,0.0,0.0,0.0,0.0,0.0,0.0,0.0,0.0,0.0,0.0,0.0,0.0,0.0,0.0,0.0,0.0,0.0,0.0,0.0,0.0,-1.059,-1.1721,-1.2626,-1.2965,-1.2991,-1.286,-1.2538,-1.1957,-1.1313,0.0,0.0,0.0,0.0,0.0,0.0,0.0,0.0,0.0,0.0,0.0,0.0,0.0,0.0,0.0,0.0,0.0,0.0,0.0,0.0,0.0,0.0,0.0,0.0,0.0,0.0,0.0,0.0,0.0,0.0,0.0,0.0,0.0,0.0,0.0,0.0,0.0,0.0,0.0,0.0,0.0,0.0,0.0,0.0,0.0,0.0,0.0,0.0,0.0,0.0,0.0,0.0,0.0,0.0,0.0,0.0,0.0,0.0,0.0,0.0,0.0,0.0,0.0,0.0,0.0,0.0,0.0,0.0,0.0,0.0,0.0,0.0,0.0,0.0,0.0,0.0,0.0,0.0,0.0,0.0,0.0,0.0,0.0,0.0,0.0,0.0,0.0,0.0,0.0,0.0,0.0,0.0,0.0,0.0,0.0,0.0,0.0,0.0,0.0,0.0,0.0,0.0,0.0,-1.0251,-1.1355,-1.229,-1.2611,-1.264,-1.2611,-1.2509,-1.2114,-1.1413,-1.0316,0.0,0.0,0.0,0.0,0.0,0.0,0.0,0.0,0.0,0.0,0.0,0.0,0.0,0.0,0.0,0.0,0.0,0.0,0.0,0.0,0.0,0.0,0.0,0.0,0.0,0.0,0.0,0.0,0.0,0.0,0.0,0.0,0.0,0.0,0.0,0.0,0.0,0.0,0.0,0.0,0.0,0.0,0.0,0.0,0.0,0.0,0.0,0.0,0.0,0.0,0.0,0.0,0.0,0.0,0.0,0.0,0.0,0.0,0.0,0.0,0.0,0.0,0.0,0.0,0.0,0.0,0.0,0.0,0.0,0.0,0.0,0.0,0.0,0.0,0.0,0.0,0.0,0.0,0.0,0.0,0.0,0.0,0.0,0.0,0.0,0.0,0.0,0.0,0.0,0.0,0.0,0.0,0.0,0.0,0.0,0.0,0.0,0.0,0.0,0.0,0.0,0.0,-1.0104,-1.1325,-1.229,-1.248,-1.2509,-1.2451,-1.2302,-1.2012,-1.1297,-0.998,0.0,0.0,0.0,0.0,0.0,0.0,0.0,0.0,0.0,0.0,0.0,0.0,0.0,0.0,0.0,0.0,0.0,0.0,0.0,0.0,0.0,0.0,0.0,0.0,0.0,0.0,0.0,0.0,0.0,0.0,0.0,0.0,0.0,0.0,0.0,0.0,0.0,0.0,0.0,0.0,0.0,0.0,0.0,0.0,0.0,0.0,0.0,0.0,0.0,0.0,0.0,0.0,0.0,0.0,0.0,0.0,0.0,0.0,0.0,0.0,0.0,0.0,0.0,0.0,0.0,0.0,0.0,0.0,0.0,0.0,0.0,0.0,0.0,0.0,0.0,0.0,0.0,0.0,0.0,0.0,0.0,0.0,0.0,0.0,0.0,0.0,0.0,0.0,0.0,0.0,0.0,0.0,0.0,0.0,0.0,0.0,0.0,0.0,0.0,0.0,0.0,0.0,-1.0161,-1.1501,-1.248,-1.2494,-1.2509,-1.2361,-1.2025,-1.1781,-1.1078,-0.9776,0.0,0.0,0.0,0.0,0.0,0.0,0.0,0.0,0.0,0.0,0.0,0.0,0.0,0.0,0.0,0.0,0.0,0.0,0.0,0.0,0.0,0.0,0.0,0.0,0.0,0.0,0.0,0.0,0.0,0.0,0.0,0.0,0.0,0.0,0.0,0.0,0.0,0.0,0.0,0.0,0.0,0.0,0.0,0.0,0.0,0.0,0.0,0.0,0.0,0.0,0.0,0.0,0.0,0.0,0.0,0.0,0.0,0.0,0.0,0.0,-1.3926,-1.3125,0.0,0.0,0.0,0.0,0.0,0.0,0.0,0.0,0.0,0.0,0.0,0.0,0.0,0.0,0.0,0.0,0.0,0.0,0.0,0.0,0.0,0.0,0.0,0.0,0.0,0.0,0.0,0.0,0.0,0.0,0.0,0.0,0.0,0.0,0.0,0.0,0.0,0.0,0.0,0.0,-1.0472,-1.1442,-1.22,-1.248,-1.2509,-1.2361,-1.2025,-1.1954,-1.1471,-1.0448,-0.9642,0.0,0.0,0.0,0.0,0.0,0.0,0.0,0.0,0.0,0.0,0.0,0.0,0.0,0.0,0.0,0.0,0.0,0.0,0.0,0.0,0.0,0.0,0.0,0.0,0.0,0.0,0.0,0.0,0.0,0.0,0.0,0.0,0.0,0.0,0.0,0.0,0.0,0.0,0.0,0.0,0.0,0.0,0.0,0.0,0.0,0.0,0.0,0.0,0.0,0.0,0.0,0.0,0.0,0.0,0.0,0.0,0.0,0.0,0.0,-1.5796,-1.4995,0.0,0.0,0.0,0.0,0.0,0.0,0.0,0.0,0.0,0.0,0.0,0.0,0.0,0.0,0.0,0.0,0.0,0.0,0.0,0.0,0.0,0.0,0.0,0.0,0.0,0.0,0.0,0.0,0.0,0.0,0.0,0.0,0.0,0.0,0.0,0.0,0.0,0.0,0.0,0.0,-1.0941,-1.1716,-1.2377,-1.2699,-1.2743,-1.267,-1.2494,-1.2202,-1.1676,-1.0887,-1.0228,0.0,0.0,0.0,0.0,0.0,0.0,0.0,0.0,0.0,0.0,0.0,0.0,0.0,0.0,0.0,0.0,0.0,0.0,0.0,0.0,0.0,0.0,0.0,0.0,0.0,0.0,0.0,0.0,0.0,0.0,0.0,0.0,0.0,0.0,0.0,0.0,0.0,0.0,0.0,0.0,0.0,0.0,0.0,0.0,0.0,0.0,0.0,0.0,0.0,0.0,0.0,0.0,0.0,-1.8283,-1.8769,-1.8926,-1.957,-1.9883,-1.9863,-1.8083,-1.7477,-1.7634,-1.6465,0.0,0.0,0.0,0.0,0.0,0.0,0.0,0.0,0.0,0.0,0.0,0.0,0.0,0.0,0.0,0.0,0.0,0.0,0.0,0.0,0.0,0.0,0.0,0.0,-1.7028,-1.6777,-1.3756,0.0,0.0,0.0,0.0,0.0,0.0,0.0,0.0,0.0,0.0,0.0,-1.1503,-1.2252,-1.2868,-1.307,-1.3097,-1.3067,-1.2991,-1.2494,-1.1939,-1.1385,-1.0931,-1.0242,0.0,0.0,0.0,0.0,0.0,0.0,0.0,0.0,0.0,0.0,0.0,0.0,0.0,0.0,0.0,0.0,0.0,0.0,0.0,0.0,0.0,0.0,0.0,0.0,0.0,0.0,0.0,0.0,0.0,0.0,0.0,0.0,-1.3308,-1.3724,0.0,0.0,0.0,0.0,0.0,0.0,0.0,0.0,0.0,0.0,0.0,0.0,0.0,-1.7285,-1.8091,-1.8908,-1.9747,-2.0605,-2.1133,-2.1778,-2.2502,-2.2207,-2.2264,-2.2574,-2.2303,0.0,-1.8984,-1.842,0.0,0.0,0.0,0.0,0.0,0.0,0.0,0.0,0.0,0.0,0.0,0.0,0.0,0.0,0.0,0.0,0.0,0.0,0.0,0.0,0.0,0.0,-1.8108,-1.7832,-1.8108,-1.8127,0.0,-1.5561,-1.4127,-1.2896,-1.2311,0.0,0.0,0.0,0.0,0.0,0.0,0.0,-1.199,-1.3071,-1.3774,-1.3461,-1.3433,-1.3316,-1.302,-1.2918,-1.2714,-1.2334,-1.1517,-1.1092,-1.121,-0.9919,0.0,0.0,0.0,0.0,0.0,0.0,0.0,0.0,0.0,0.0,0.0,0.0,0.0,0.0,0.0,0.0,0.0,0.0,0.0,0.0,0.0,0.0,0.0,0.0,0.0,0.0,0.0,0.0,0.0,-1.3313,-1.4297,-1.4459,-1.4693,-1.4576,0.0,0.0,0.0,0.0,0.0,0.0,0.0,0.0,0.0,-1.8144,-1.8846,-1.9608,-2.0449,-2.1054,-2.1816,-2.2654,-2.2871,-2.3303,-2.3867,-2.3672,-2.3649,-2.3845,-2.3845,-2.3086,-2.1759,-2.0547,-1.9318,-1.8105,0.0,0.0,0.0,0.0,-1.7187,-1.7341,-1.8555,-1.8672,-1.8301,-1.8203,0.0,0.0,0.0,0.0,0.0,0.0,0.0,0.0,0.0,0.0,-1.9746,-1.9786,-2.0137,-2.0293,-1.9687,-1.8537,-1.7019,0.0,-1.4273,-1.3768,-1.2519,0.0,0.0,0.0,0.0,-1.3097,-1.3381,-1.3452,-1.3482,-1.3499,-1.3492,-1.3433,-1.3287,-1.3111,-1.295,-1.2787,-1.2219,-1.181,-1.1622,-1.0916,-1.0285,0.0,0.0,0.0,0.0,0.0,0.0,0.0,0.0,0.0,0.0,0.0,0.0,0.0,0.0,0.0,0.0,0.0,0.0,0.0,0.0,0.0,0.0,0.0,0.0,0.0,0.0,0.0,0.0,-1.4408,-1.5293,-1.5293,-1.584,-1.5844,0.0,0.0,0.0,0.0,0.0,0.0,-1.8162,-1.8594,-1.9259,-2.0234,-2.1016,-2.1778,-2.2519,-2.2852,-2.3379,-2.4121,-2.4238,-2.4512,-2.4922,-2.5015,-2.5054,-2.5054,-2.5054,-2.4844,-2.4316,-2.2576,-2.1191,-2.0039,-1.9414,-1.8906,-1.8631,-1.922,-1.9318,-1.9376,-2.0976,-2.1348,-2.1016,-2.0586,-2.0,-1.9162,-1.7692,0.0,0.0,0.0,0.0,-1.8867,-1.9745,-2.0527,-2.1133,-2.1327,-2.1738,-2.1934,-2.1484,-2.0859,-1.9647,0.0,-1.6325,-1.5787,-1.4693,0.0,0.0,0.0,-1.4408,-1.4442,-1.4966,-1.4615,-1.4261,-1.4084,-1.4059,-1.3985,-1.3778,-1.3448,-1.3258,-1.3258,-1.286,-1.2438,-1.1987,-1.1885,-1.1444,-1.0595,0.0,0.0,0.0,0.0,0.0,0.0,0.0,0.0,0.0,0.0,0.0,0.0,0.0,0.0,0.0,0.0,0.0,0.0,0.0,0.0,0.0,0.0,0.0,0.0,0.0,0.0,0.0,0.0,0.0,-1.6609,-1.7701,0.0,0.0,0.0,0.0,-1.7835,-1.8264,-1.9044,-2.037,-2.082,-2.16,-2.2867,-2.3379,-2.3848,-2.4254,-2.4293,-2.4551,-2.5024,-2.5406,-2.5854,-2.6309,-2.6699,-2.685,-2.685,-2.685,-2.6641,-2.6113,-2.4375,-2.3144,-2.2323,-2.2284,-2.2031,-2.1681,-2.172,-2.1953,-2.2305,-2.2402,-2.242,-2.2518,-2.332,-2.2756,-2.1543,-2.0644,-1.9784,0.0,0.0,-2.0449,-2.0683,-2.1544,-2.209,-2.2324,-2.1934,-2.2168,-2.2363,-2.1934,-2.1837,-2.127,0.0,-1.8127,-1.7354,-1.7459,0.0,-1.6271,-1.6522,-1.7023,-1.7149,-1.6579,-1.735,-1.7341,-1.5758,-1.5586,-1.5277,-1.4511,-1.414,-1.3949,-1.3949,-1.3331,-1.2965,-1.2936,-1.2626,-1.229,-1.1908,-1.1004,0.0,0.0,0.0,0.0,0.0,0.0,0.0,0.0,0.0,0.0,0.0,0.0,0.0,0.0,0.0,0.0,0.0,0.0,0.0,0.0,0.0,0.0,0.0,0.0,0.0,0.0,0.0,0.0,-1.834,-1.9493,0.0,-1.8496,-1.9041,-1.9511,-1.9667,-2.0332,-2.1172,-2.2168,-2.2637,-2.3181,-2.3923,-2.4375,-2.4824,-2.523,-2.5547,-2.5898,-2.6328,-2.6459,-2.6615,-2.6797,-2.6928,-2.6986,-2.6986,-2.6986,-2.6934,-2.6738,-2.6133,-2.5195,-2.4124,-2.3555,-2.3242,-2.3105,-2.3105,-2.3203,-2.3379,-2.363,-2.3708,-2.3728,-2.3769,-2.3323,-2.2658,-2.2324,-2.1991,-2.1874,-2.2502,-2.2658,-2.2795,-2.3359,-2.3633,-2.3688,-2.3555,-2.3418,-2.3301,-2.3144,-2.2676,-2.2109,-2.1484,-2.0447,-1.9379,-1.8547,-1.839,-1.8197,-1.7742,-1.7816,-1.7848,-1.766,-1.7006,-1.6375,-1.5749,-1.5242,-1.4808,-1.4531,-1.4184,-1.4008,-1.4008,-1.3565,-1.3228,-1.3023,-1.2892,-1.2655,-1.2317,-1.1793,-1.0931,0.0,0.0,0.0,0.0,0.0,0.0,0.0,0.0,0.0,0.0,0.0,0.0,0.0,0.0,0.0,0.0,0.0,0.0,0.0,0.0,0.0,0.0,0.0,0.0,0.0,-1.7971,-1.9259,-1.9883,-2.1074,-2.1405,-2.0293,-2.1094,-2.1681,-2.1681,-2.2324,-2.2988,-2.3513,-2.3984,-2.4414,-2.482,-2.5293,-2.5723,-2.6128,-2.6465,-2.6738,-2.6986,-2.7168,-2.7226,-2.7246,-2.7383,-2.7441,-2.7441,-2.7441,-2.7441,-2.7441,-2.7285,-2.6744,-2.5903,-2.5156,-2.4883,-2.4883,-2.4883,-2.4883,-2.4922,-2.5171,-2.5269,-2.521,-2.4805,-2.4375,-2.4004,-2.3848,-2.3669,-2.3649,-2.4124,-2.4242,-2.43,-2.457,-2.4629,-2.4609,-2.443,-2.4268,-2.414,-2.414,-2.3614,-2.3166,-2.3166,-2.2141,-2.0957,-2.0089,-2.0211,-2.0239,-1.972,-1.9506,-1.9386,-1.9449,-1.8349,-1.7438,-1.7149,-1.6312,-1.5657,-1.538,-1.4702,-1.4272,-1.4169,-1.3862,-1.3506,-1.3184,-1.317,-1.3067,-1.283,-1.2304,-1.1442,-1.0258,0.0,0.0,0.0,0.0,0.0,0.0,0.0,0.0,0.0,0.0,0.0,0.0,0.0,0.0,0.0,0.0,0.0,0.0,0.0,0.0,0.0,0.0,0.0,-1.8617,-1.9415,-2.0313,-2.1151,-2.2379,-2.2849,-2.2072,-2.3127,-2.3828,-2.3809,-2.4199,-2.443,-2.443,-2.4887,-2.5312,-2.5737,-2.6191,-2.6602,-2.7006,-2.7006,-2.7025,-2.707,-2.7506,-2.7702,-2.7721,-2.8132,-2.8301,-2.8301,-2.8301,-2.8301,-2.8262,-2.7878,-2.7702,-2.7663,-2.7187,-2.6986,-2.6967,-2.6967,-2.6967,-2.6947,-2.6947,-2.6967,-2.6934,-2.6523,-2.6113,-2.5679,-2.5278,-2.4824,-2.459,-2.5043,-2.5141,-2.5141,-2.5141,-2.5121,-2.5004,-2.4551,-2.4638,-2.4822,-2.4822,-2.4643,-2.4502,-2.4502,-2.3156,-2.2037,-2.2183,-2.2225,-2.2287,-2.2492,-2.2191,0.0,-2.1909,-2.1487,-2.0838,-2.0021,-1.8939,-1.796,-1.7074,-1.5736,-1.4814,-1.4545,-1.4169,-1.3847,-1.3521,-1.3506,-1.3506,-1.3506,-1.2538,-1.1574,-1.0653,0.0,0.0,0.0,0.0,0.0,0.0,0.0,0.0,0.0,0.0,0.0,0.0,0.0,0.0,0.0,0.0,0.0,0.0,0.0,0.0,0.0,-1.8147,-1.9102,-1.9102,-2.0898,-2.2301,-2.2535,-2.375,-2.4316,-2.3769,-2.4339,-2.4613,-2.4277,-2.4648,-2.5019,-2.5328,-2.5781,-2.6211,-2.6615,-2.6777,-2.7051,-2.7506,-2.7506,-2.7637,-2.7949,-2.8066,-2.8151,-2.8151,-2.8242,-2.8301,-2.8301,-2.8301,-2.8301,-2.8281,-2.8164,-2.8151,-2.8073,-2.7305,-2.6836,-2.6562,-2.6562,-2.6367,-2.6069,-2.6069,-2.6264,-2.6543,-2.6426,-2.6504,-2.6615,-2.6523,-2.6387,-2.6303,-2.6445,-2.6269,-2.606,-2.606,-2.5781,-2.5503,-2.5386,-2.5165,-2.5,-2.5,-2.4852,-2.4715,-2.4715,-2.4222,-2.3587,-2.3011,-2.294,-2.2839,-2.2614,-2.2595,0.0,-2.2433,-2.1329,-2.0517,-2.0418,-1.9139,-1.808,-1.7553,-1.6435,-1.5525,-1.4963,-1.4118,-1.3715,-1.3862,-1.3862,-1.3862,-1.3862,-1.3111,-1.2363,0.0,0.0,0.0,0.0,0.0,0.0,0.0,0.0,0.0,0.0,0.0,0.0,0.0,0.0,0.0,0.0,0.0,0.0,0.0,0.0,0.0,0.0,-2.0137,-2.1192,-2.1192,-2.2305,-2.3396,-2.4118,-2.4727,-2.5063,-2.4957,-2.5195,-2.5312,-2.5254,-2.5493,-2.582,-2.6225,-2.6479,-2.6855,-2.7285,-2.7285,-2.7526,-2.7956,-2.7956,-2.8073,-2.8301,-2.8301,-2.8301,-2.8301,-2.8301,-2.8301,-2.8301,-2.8301,-2.8301,-2.8301,-2.8301,-2.8301,0.0,0.0,0.0,0.0,0.0,-2.7031,-2.6752,-2.6602,-2.6719,-2.692,-2.6719,-2.6816,-2.6986,-2.6986,-2.6986,-2.6986,-2.6986,-2.6836,-2.6641,-2.6641,-2.6465,-2.623,-2.6158,-2.5971,-2.574,-2.5682,-2.5447,-2.5265,-2.5358,-2.5133,0.0,-2.4386,-2.3945,-2.3535,-2.3305,-2.3288,-2.3289,-2.3145,-2.2188,-2.1566,-2.1687,-2.0485,-1.9412,-1.8722,-1.7486,0.0,0.0,0.0,-1.4121,-1.4199,-1.4199,0.0,0.0,0.0,0.0,0.0,0.0,0.0,0.0,-1.1765,-1.1781,0.0,0.0,0.0,0.0,0.0,0.0,0.0,0.0,0.0,0.0,0.0,0.0,0.0,0.0,0.0,0.0,-2.2227,-2.3848,-2.3984,-2.3714,-2.4027,-2.5464,-2.5391,-2.5395,-2.5737,-2.5835,-2.601,-2.6426,-2.6465,-2.6641,-2.707,-2.709,0.0,0.0,0.0,-2.7936,-2.8281,-2.8301,-2.8301,-2.8301,-2.834,-2.8359,-2.8359,-2.8418,-2.8437,-2.8437,-2.8437,-2.8418,-2.8359,-2.8359,-2.8359,-2.8359,-2.8262,-2.8262,-2.8281,-2.8242,-2.8262,-2.8223,-2.7839,0.0,0.0,-2.7168,-2.7051,-2.709,-2.7006,-2.6986,-2.7006,-2.7045,-2.7051,-2.7006,-2.707,-2.7051,-2.6965,-2.6848,-2.6774,-2.6705,-2.656,-2.6207,-2.6,-2.6238,-2.5921,-2.5706,-2.5935,-2.5036,-2.431,-2.431,-2.4113,-2.3971,-2.3971,-2.3557,-2.3246,-2.3287,0.0,0.0,-2.0339,-1.879,-1.7293,-1.5977,-1.5298,-1.4809,-1.455,-1.458,-1.4594,-1.4594,-1.4594,-1.4594,-1.4594,-1.4876,-1.5031,-1.5017,-1.3222,-1.3035,0.0,0.0,0.0,0.0,0.0,0.0,0.0,0.0,0.0,0.0,0.0,0.0,0.0,0.0,0.0,-2.1797,-2.3008,-2.416,-2.5191,-2.5269,-2.521,-2.5219,-2.5766,-2.6172,-2.625,-2.6562,-2.6797,-2.6894,-2.6869,-2.709,-2.7545,-2.7565,-2.7761,-2.8191,-2.8164,-2.8203,-2.8301,-2.8301,-2.8301,-2.8301,-2.8633,0.0,-2.8809,-2.9188,-2.9344,-2.9344,-2.9344,-2.9121,-2.8762,-2.8762,-2.8762,-2.873,-2.8073,-2.8015,-2.8262,-2.7936,-2.8034,-2.8223,-2.7839,-2.7917,-2.8047,-2.7266,-2.7246,-2.7506,-2.7129,-2.6986,0.0,-2.7467,-2.7285,-2.709,-2.7467,-2.7285,-2.6992,-2.6965,-2.6971,-2.6909,-2.6774,-2.6812,-2.6847,-2.6791,-2.6554,-2.6388,-2.6457,-2.5644,-2.5021,-2.5021,-2.4651,-2.4363,-2.4363,-2.3823,-2.3515,-2.3743,-2.3104,-2.2411,-2.1822,-2.0065,-1.8606,-1.7751,-1.6128,-1.5112,-1.4832,-1.5081,-1.5227,-1.5227,-1.5227,-1.5227,-1.5227,-1.5549,-1.5848,-1.6089,-1.5169,-1.5037,0.0,0.0,0.0,0.0,0.0,0.0,0.0,0.0,0.0,0.0,0.0,-1.8611,-1.9491,0.0,-2.2306,-2.3574,-2.4531,-2.5312,-2.5977,-2.6225,-2.6186,-2.5806,-2.6309,-2.6699,-2.6699,-2.6894,-2.7109,-2.7324,-2.7344,-2.7545,-2.7976,-2.8015,-2.8093,-2.8281,-2.8301,-2.8301,-2.8301,-2.8496,-2.8613,-2.8613,-2.9043,-2.9238,-2.9258,-2.95,-2.9598,-2.9598,-2.9598,-2.9481,-2.9238,-2.9238,-2.9121,-2.8859,-2.8457,-2.8582,-2.8933,-2.8718,-2.8777,-2.8894,-2.8437,-2.8437,-2.8496,-2.7871,-2.7949,-2.8262,-2.8027,-2.8125,-2.8242,-2.8073,-2.7832,-2.7656,-2.7682,-2.7526,-2.7421,-2.7705,-2.7475,-2.7204,-2.7191,-2.7004,-2.6806,-2.6893,-2.6836,-2.6789,-2.6933,-2.6374,-2.5834,-2.5585,-2.5357,-2.5108,-2.4879,-2.4566,-2.4297,-2.4218,-2.3907,-2.3389,-2.2626,-2.0518,-1.8793,-1.7723,-1.6639,-1.5932,-1.5657,-1.5818,-1.5891,-1.5891,-1.6067,-1.614,-1.614,-1.6623,-1.6945,-1.7114,-1.693,-1.6849,0.0,0.0,0.0,0.0,0.0,0.0,0.0,-1.6813,-1.7337,-1.8613,-1.957,-2.0586,-2.1915,-2.2932,-2.3929,-2.5043,-2.5859,-2.6426,-2.6504,-2.6875,-2.6992,-2.6562,-2.6875,-2.7148,-2.7148,-2.7207,-2.7402,-2.778,-2.7819,-2.7956,-2.8281,-2.8301,-2.8301,-2.8301,-2.8379,-2.8418,-2.8418,-2.8828,-2.9043,-2.9043,-2.952,-2.9715,-2.9715,-2.9813,-2.9852,-2.9852,-2.9755,-2.9715,-2.9715,-2.9637,-2.9414,-2.9133,-2.9133,-2.9434,-2.9813,-2.9559,-2.952,-2.9559,-2.916,-2.9043,-2.8984,-2.8555,-2.8652,-2.8906,-2.8828,-2.9043,-2.9227,-2.8594,-2.8418,-2.834,-2.8015,-2.7989,-2.8081,-2.8347,-2.7976,-2.7531,-2.7582,-2.7073,-2.6693,-2.6924,-2.6972,-2.7068,-2.7262,-2.6998,-2.656,-2.6105,-2.596,-2.5751,-2.5377,-2.5335,-2.519,-2.4818,-2.4673,-2.4122,-2.2883,-2.0995,-1.9213,-1.7592,-1.7308,-1.7055,-1.6699,-1.6676,-1.6683,-1.6675,-1.6939,-1.7123,-1.7158,-1.7662,-1.7945,-1.8101,-1.8364,-1.835,-1.7074,-1.5961,-1.5649,-1.6774,-1.6758,-1.7308,0.0,-2.0605,-2.0468,-2.1738,-2.2695,-2.3264,-2.3069,-2.4069,-2.5063,-2.5542,-2.6074,-2.6523,-2.6894,-2.7324,-2.7448,-2.6992,-2.7324,-2.7624,-2.7624,-2.793,-2.8164,-2.8223,-2.8223,-2.8242,-2.8301,-2.8301,-2.8301,-2.8301,-2.8652,-2.882,-2.882,-2.9277,-2.952,-2.954,-2.995,-3.0137,-3.0137,-3.0547,-3.0742,-3.0723,-3.0312,-3.0137,-3.0098,-2.9755,-2.9794,-3.0059,-3.0059,-3.0332,-3.0605,-2.9434,-2.9238,-2.9598,-2.954,-2.952,-2.9461,-2.8984,-2.8859,-2.882,-2.8476,-2.8398,-2.8496,-2.8769,-2.882,-2.882,-2.8762,-2.8979,-2.9018,-2.8225,-2.8059,-2.7936,-2.7589,-2.7267,-2.7081,-2.7225,-2.7262,-2.7262,-2.7286,-2.7268,-2.7058,-2.6581,-2.6167,-2.5877,-2.5835,-2.5835,-2.5815,-2.5752,-2.5356,-2.4339,-2.2429,-2.2343,-2.1392,-1.9036,-1.8736,-1.8356,-1.7671,-1.7648,-1.7642,-1.7647,-1.7691,-1.7852,-1.8145,-1.8218,-1.854,-1.9137,-1.918,-1.9166,-1.9025,-1.8496,-1.8435,-1.8494,-1.8926,-1.9767,-2.1524,-2.1973,-2.2285,-2.3086,-2.4141,-2.484,-2.4687,-2.5098,-2.5659,-2.6342,-2.6615,-2.6894,-2.737,-2.7585,-2.7526,-2.707,-2.7168,-2.7383,-2.7663,-2.7858,-2.8054,-2.8281,-2.8301,-2.8301,-2.8301,-2.8301,-2.8398,-2.8652,-2.8801,-2.9043,-2.9297,-2.9726,-2.997,-2.9941,-3.0391,-3.0605,-3.0605,-3.0801,-3.0898,-3.0879,-3.0684,-3.0605,-3.0586,-3.0439,-3.0273,-3.0195,-3.0195,-3.0185,-3.0106,-2.9785,-2.9785,-2.9931,-2.9676,-2.9598,-2.9618,-2.9648,-2.9668,-2.9687,-2.9785,-2.9805,-2.9726,-2.9394,-2.9297,-2.9238,-2.8957,-2.9008,-2.9093,-2.904,-2.8866,-2.8663,-2.8573,-2.8045,-2.757,-2.7627,-2.7451,-2.7309,-2.7309,-2.7309,-2.7223,-2.704,-2.683,-2.6602,-2.6333,-2.6312,-2.6208,-2.5939,-2.5709,-2.5092,-2.3828,-2.3756,-2.2903,-2.0857,-2.054,-1.9913,-1.8826,-1.8643,-1.8487,-1.833,-1.8351,-1.854,-1.8877,-1.9093,-1.9389,-1.9816,-1.9816,-1.993,-2.0039,-2.0059,-2.0312,-1.9922,-2.0801,-2.1893,-2.2461,-2.3144,-2.3767,-2.4238,-2.5054,-2.5693,-2.5693,-2.5693,-2.5991,-2.685,-2.6986,-2.7207,-2.778,-2.7761,-2.7526,-2.707,-2.6914,-2.6973,-2.7311,-2.7545,-2.7819,-2.8105,-2.8223,-2.8301,-2.8301,-2.8301,-2.8476,-2.8879,-2.9043,-2.9316,-2.9774,-3.0176,-3.0391,-3.0391,-3.0723,-3.0898,-3.0898,-3.0898,-3.0898,-3.0898,-3.0898,-3.0898,-3.0898,-3.0898,-3.0703,-3.0391,-3.0391,-3.0224,-2.9989,-3.0137,-3.0117,-3.0,-2.9833,-2.9696,-2.9676,-3.0059,-3.0117,-3.0098,-3.0458,-3.0527,-3.0419,-2.9774,-2.9598,-2.95,-2.9023,-2.9059,-2.9262,-2.9459,-2.934,-2.9172,-2.9178,-2.8572,-2.8078,-2.8082,-2.7862,-2.7659,-2.7659,-2.7555,-2.7472,-2.7472,-2.7368,-2.7185,-2.6853,-2.6788,-2.6602,-2.6146,-2.6208,-2.5931,-2.5053,-2.4944,-2.4183,-2.2397,-2.2083,-2.1397,-2.0063,-1.9819,-1.9566,-1.924,-1.9305,-1.9405,-1.9535,-1.9784,-2.0062,-2.0342,-2.0342,-2.0561,-1.9434,-1.9609,-2.0118,-2.0937,-2.2148,-2.3342,-2.4137,-2.4711,-2.516,-2.5562,-2.5654,-2.5693,-2.5693,-2.5693,-2.5991,-2.685,-2.6986,-2.7305,-2.8144,-2.7956,-2.7526,-2.707,-2.666,-2.6406,-2.6451,-2.7194,-2.7702,-2.7702,-2.8093,-2.8301,-2.8301,-2.8301,-2.8476,-2.8879,-2.9336,-2.9774,-3.0176,-3.0644,-3.0859,-3.0859,-3.0879,-3.0898,-3.0898,-3.0898,-3.0898,-3.0898,-3.0898,-3.0898,-3.0898,-3.0898,-3.0879,-3.0859,-3.0859,-3.0859,-3.0801,-3.0351,-2.9941,-2.9676,-3.0039,-2.995,-2.9676,-3.0059,-2.995,-2.9618,-2.9637,-2.9637,-2.9637,-2.9598,-2.9598,-2.95,-2.9023,-2.9431,-2.977,-2.8919,-2.9064,-2.9305,-2.8903,-2.8649,-2.8487,-2.859,-2.8562,-2.8566,-2.8566,-2.8169,-2.7879,-2.7879,-2.7555,-2.7309,-2.7289,-2.7289,-2.7102,-2.6623,-2.6998,-2.675,-2.5503,-2.5789,-2.5232,-2.3384,-2.3253,-2.2634,-2.1285,-2.1289,-2.1086,-2.0544,-2.0611,-2.0493,-2.0181,-2.0196,-2.0356,-2.0678,-2.0678,-2.1057,-2.0117,-2.1074,-2.2166,-2.2771,-2.3714,-2.4593,-2.5132,-2.5625,-2.5898,-2.5737,-2.5693,-2.562,-2.5352,-2.5059,-2.521,-2.6406,-2.6602,-2.6992,-2.8125,-2.7956,-2.7428,-2.668,-2.6465,-2.6152,-2.559,-2.6333,-2.7076,-2.7643,-2.7819,-2.8015,-2.8281,-2.8301,-2.8613,-2.9336,-2.952,-2.995,-3.0644,-3.082,-3.0898,-3.0898,-3.0898,-3.0898,-3.0898,-3.0898,-3.0898,-3.0898,-3.0898,-3.0898,-3.0898,-3.0898,-3.0898,-3.0898,-3.0898,-3.0898,-3.0879,-3.0723,-3.0566,-3.0419,-2.997,-2.9715,-2.9676,-3.0059,-2.995,-2.9657,-2.9931,-2.9813,-2.9598,-2.9598,-2.9598,-2.9559,-2.9422,-2.9536,-2.9683,-2.9492,-2.9533,-2.9735,-2.9993,-2.9764,-2.9517,-2.9508,-2.929,-2.898,-2.8644,-2.8458,-2.8355,-2.8355,-2.7762,-2.7309,-2.7309,-2.7309,-2.7247,-2.7078,-2.7206,-2.7128,-2.6703,-2.6536,-2.5965,-2.482,-2.4496,-2.3661,-2.2093,-2.1879,-2.1408,-2.0629,-2.0451,-2.0422,-2.0532,-2.0532,-2.0692,-2.1057,-2.1262,-2.1481,-2.1075,-2.2402,-2.3708,-2.4336,-2.5019,-2.5649,-2.5874,-2.605,-2.6035,-2.5586,-2.5347,-2.5113,-2.4711,-2.4281,-2.4394,-2.5727,-2.6055,-2.6602,-2.7891,-2.7721,-2.7226,-2.668,-2.6484,-2.6113,-2.5371,-2.5957,-2.668,-2.7409,-2.7604,-2.7878,-2.8262,-2.8301,-2.8691,-2.9579,-2.9598,-3.0028,-3.0879,-3.0898,-3.0898,-3.0898,-3.0898,-3.0898,-3.0898,-3.0898,-3.0898,-3.0898,-3.0898,-3.0898,-3.0898,-3.0898,-3.0898,-3.0898,-3.0898,-3.0898,-3.0898,-3.0898,-3.0898,-3.082,-3.0263,-2.995,-2.9872,-3.0117,-2.995,-2.9657,-2.9911,-2.9696,-2.9336,-2.9336,-2.9266,-2.9149,-2.9149,-2.9349,-2.9553,-2.9632,-2.9835,-3.0106,-3.045,-3.029,-3.0069,-3.0009,-2.9766,-2.9456,-2.9166,-2.898,-2.8794,-2.8649,-2.811,-2.7762,-2.7762,-2.7762,-2.7762,-2.7762,-2.7762,-2.7762,-2.7762,-2.7496,-2.6743,-2.5457,-2.5256,-2.4333,-2.244,-2.2204,-2.1806,-2.1112,-2.0847,-2.0775,-2.0868,-2.0985,-2.1174,-2.1393,-2.1715,-2.192,-2.2266,-2.3532,-2.4723,-2.5562,-2.6094,-2.6387,-2.6387,-2.601,-2.5542,-2.516,-2.4648,-2.418,-2.375,-2.3381,-2.358,-2.4789,-2.543,-2.6186,-2.7506,-2.7324,-2.7045,-2.7051,-2.6699,-2.6289,-2.5815,-2.6172,-2.6602,-2.7012,-2.7448,-2.7858,-2.8262,-2.832,-2.8711,-2.9579,-2.9618,-3.0048,-3.0879,-3.0898,-3.0898,-3.0898,-3.0898,-3.0898,-3.0898,-3.0898,-3.0898,-3.0898,-3.0898,-3.0898,-3.0898,-3.0898,-3.0898,-3.0898,-3.0898,-3.0898,-3.0898,-3.0898,-3.0898,-3.0898,-3.0898,-3.0605,-3.0234,-3.0234,-2.9941,-2.9637,-2.9637,-2.9297,-2.8918,-2.8918,-2.8672,-2.8359,-2.8359,-2.8888,-2.9394,-2.9421,-2.9891,-3.0346,-3.0262,-3.0214,-3.0179,-3.0066,-3.0015,-2.9994,-2.9994,-2.9622,-2.9187,-2.8752,-2.8665,-2.8644,-2.8628,-2.8582,-2.8582,-2.8582,-2.8582,-2.8582,-2.8582,-2.8578,-2.7652,-2.5481,-2.5552,-2.4701,-2.2505,-2.2377,-2.2249,-2.1961,-2.1794,-2.1547,-2.1233,-2.1569,-2.1715,-2.173,-2.2082,-2.2359,-2.3672,-2.5093,-2.6381,-2.6615,-2.6543,-2.6387,-2.6387,-2.5825,-2.5117,-2.4668,-2.373,-2.2752,-2.201,-2.2303,-2.2891,-2.3557,-2.5121,-2.6562,-2.7565,-2.7858,-2.7851,-2.7565,-2.7428,-2.7168,-2.6713,-2.6797,-2.7031,-2.7487,-2.7305,-2.75,-2.8262,-2.8594,-2.9004,-2.9579,-2.9891,-3.0312,-3.0879,-3.0898,-3.0898,-3.0898,-3.0898,-3.0898,-3.0898,-3.0898,-3.0898,-3.0898,-3.0898,-3.0898,-3.0898,-3.0898,-3.0898,-3.0898,-3.0898,-3.0898,-3.0898,-3.0898,-3.0898,-3.0898,-3.0898,-3.082,-3.0703,-3.0703,-3.041,-3.0039,-3.0039,-2.9746,-2.9422,-2.9422,-2.9344,-2.9266,-2.9266,-2.9419,-2.9608,-2.9802,-2.9754,-2.9846,-3.0567,-3.0452,-3.024,-3.0479,-3.0243,-2.9994,-2.9994,-2.9891,-2.9787,-2.9663,-2.9642,-2.9394,-2.8711,-2.8582,-2.8582,-2.8582,-2.8582,-2.8582,-2.8582,-2.8335,-2.7907,-2.7338,-2.6049,-2.4862,-2.3822,-2.2759,-2.1922,-2.1427,-2.161,-2.1656,-2.1569,-2.1906,-2.2052,-2.2067,-2.2374,-2.2519,-2.4742,-2.6113,-2.7305,-2.7305,-2.6973,-2.6523,-2.5962,-2.516,-2.4183,-2.2969,-2.2012,-2.1093,-2.0216,-2.0937,-2.1876,-2.2521,-2.457,-2.6406,-2.7266,-2.778,-2.7956,-2.7721,-2.7702,-2.7526,-2.7051,-2.7187,-2.7428,-2.7682,-2.7467,-2.7598,-2.8262,-2.8691,-2.9121,-2.9579,-2.998,-3.043,-3.0879,-3.0898,-3.0898,-3.0898,-3.0898,-3.0898,-3.0898,-3.0898,-3.0898,-3.0898,-3.0898,-3.0898,-3.0898,-3.0898,-3.0898,-3.0898,-3.0898,-3.0898,-3.0898,-3.0898,-3.0898,-3.0898,-3.0898,-3.0898,-3.0898,-3.0898,-3.0703,-3.0508,-3.0508,-3.0224,-2.9872,-2.9872,-2.9735,-2.9598,-2.9598,-2.9682,-2.9793,-2.998,-3.0031,-3.0213,-3.0785,-3.0676,-3.0513,-3.0561,-3.0464,-3.0325,-3.0113,-3.0093,-3.0063,-2.9989,-2.9994,-2.9808,-2.929,-2.9228,-2.9228,-2.9228,-2.9228,-2.9228,-2.9228,-2.8997,-2.8599,-2.795,-2.7045,-2.5981,-2.4788,-2.365,-2.2806,-2.2253,-2.2038,-2.1906,-2.1906,-2.2228,-2.2374,-2.2389,-2.2696,-2.2811,-2.5737,-2.6855,-2.7761,-2.7702,-2.733,-2.6582,-2.5297,-2.4261,-2.2971,-2.0918,-2.0039,-1.9396,-1.8578,-1.957,-2.0781,-2.1681,-2.3942,-2.5932,-2.6869,-2.7383,-2.7721,-2.7761,-2.778,-2.7624,-2.7226,-2.7545,-2.778,-2.778,-2.7839,-2.8015,-2.8359,-2.8769,-2.9238,-2.9755,-3.0098,-3.0488,-3.0879,-3.0898,-3.0898,-3.0898,-3.0898,-3.0898,-3.0898,-3.0898,-3.0898,-3.0898,-3.0898,-3.0898,-3.0898,-3.0898,-3.0898,-3.0898,-3.0898,-3.0898,-3.0898,-3.0898,-3.0898,-3.0898,-3.0898,-3.0898,-3.0898,-3.0898,-3.0898,-3.0898,-3.0898,-3.0605,-3.0293,-3.0293,-3.0019,-2.9774,-2.9774,-2.9943,-3.013,-3.013,-3.0469,-3.0817,-3.0844,-3.0859,-3.0743,-3.0439,-3.066,-3.0778,-3.0364,-3.035,-3.0314,-3.0216,-3.018,-3.018,-3.018,-3.0077,-2.9994,-2.9994,-2.9994,-3.0015,-3.0077,-3.0098,-2.9577,-2.8345,-2.8318,-2.7524,-2.5672,-2.4849,-2.4153,-2.3596,-2.2752,-2.2332,-2.2332,-2.2535,-2.2651,-2.2665,-2.3018,-2.3179,-2.7213,-2.778,-2.8132,-2.778,-2.7096,-2.6152,-2.4824,-2.334,-2.1817,-2.0332,-1.9121,-1.8166,-1.7695,-1.8926,-2.0312,-2.1191,-2.3496,-2.5605,-2.6836,-2.7383,-2.7819,-2.8171,-2.821,-2.8144,-2.8086,-2.8144,-2.821,-2.821,-2.8496,-2.873,-2.8781,-2.9219,-2.9852,-3.0644,-3.0742,-3.082,-3.0898,-3.0898,-3.0898,-3.0898,-3.0898,-3.0898,-3.0898,-3.0898,-3.0898,-3.0898,-3.0898,0.0,-3.0898,-3.0898,-3.0898,-3.0898,-3.0898,-3.0898,-3.0898,-3.0898,-3.0898,-3.0898,-3.0898,-3.0898,-3.0898,-3.0898,-3.0898,-3.0898,-3.0898,-3.084,-3.0762,-3.0762,-3.0723,-3.0664,-3.0664,-3.0722,-3.0751,-3.0751,-3.0543,-3.0362,-3.0608,-3.0562,-3.0467,-3.0412,-3.066,-3.086,-3.0799,-3.1018,-3.1182,-3.1153,-3.116,-3.116,-3.116,-3.047,-2.9994,-2.9994,-2.9994,-3.016,-3.0559,-3.0574,-3.0638,-3.0765,-2.9676,-2.851,-2.7345,-2.5783,-2.4529,-2.3626,-2.3157,-2.2945,-2.2945,-2.2995,-2.3018,-2.3032,-2.3354,-2.3515,-2.7266,-2.7793,-2.8242,-2.8073,-2.7213,-2.5859,-2.3867,-2.2266,-2.0586,-1.8377,-1.7438,-1.6891,-1.6445,-1.7932,-1.9435,-2.0098,-2.2404,-2.4554,-2.5845,-2.6607,-2.7272,-2.7917,-2.8164,-2.8301,-2.8301,-2.8301,-2.8301,-2.8301,-2.8672,-2.8898,-2.8898,-2.9531,-3.0224,-3.0859,-3.0898,-3.0898,-3.0898,-3.0898,-3.0898,-3.0898,-3.0898,-3.0898,-3.0898,-3.0898,-3.0898,-3.0898,-3.0898,-3.0898,-3.0898,-3.0898,-3.0898,-3.0898,-3.0898,-3.1016,-3.1211,-3.1211,-3.1367,-3.1553,-3.1289,-3.1211,-3.1191,-3.0957,-3.0898,-3.0898,-3.0898,-3.0898,-3.0898,-3.0898,-3.0898,-3.0898,-3.0898,-3.0898,-3.0898,-3.0898,-3.0839,-3.0806,-3.0921,-3.1048,-3.103,-3.071,-3.0889,-3.1007,-3.0786,-3.0885,-3.0964,-3.0887,-3.0873,-3.0928,-3.1141,-3.0588,-3.0349,-3.0692,-3.0745,-3.0828,-3.1056,-3.1077,-3.116,-3.1388,-3.0736,-2.9769,-2.8538,-2.7022,-2.5692,-2.4655,-2.381,-2.3365,-2.3365,-2.3552,-2.3527,-2.3369,-2.3691,-2.3852,-2.7129,-2.7715,-2.8242,-2.8066,-2.7051,-2.5454,-2.2832,-2.1152,-1.9393,-1.6652,-1.6026,-1.5855,-1.5586,-1.6996,-1.8461,-1.9297,-2.1231,-2.3227,-2.4867,-2.5742,-2.6602,-2.7585,-2.8073,-2.8301,-2.8301,-2.8301,-2.8301,-2.8301,-2.8769,-2.9101,-2.9152,-2.9922,-3.0508,-3.0879,-3.0898,-3.0898,-3.0898,-3.0898,-3.0898,-3.0898,-3.0898,-3.0898,-3.0898,-3.0898,-3.0898,-3.0898,-3.0898,-3.0937,-3.1035,-3.1035,-3.1074,-3.1201,-3.1201,-3.1367,-3.166,-3.166,-3.1875,-3.2159,-3.1777,-3.166,-3.1601,-3.1269,-3.1035,-3.0898,-3.0898,-3.0898,-3.0898,-3.0898,-3.0898,-3.0898,-3.0898,-3.0898,-3.0898,-3.0898,-3.1054,-3.1208,-3.1208,-3.1412,-3.1489,-3.0995,-3.1112,-3.1197,-3.0811,-3.0809,-3.0832,-3.0726,-3.0713,-3.0797,-3.1075,-3.0881,-3.0909,-3.1429,-3.1375,-3.132,-3.1423,-3.1423,-3.1464,-3.1484,-3.1505,-3.0818,-2.9315,-2.8104,-2.6905,-2.5717,-2.4456,-2.3802,-2.3817,-2.4021,-2.3961,-2.3706,-2.4027,-2.4221,-2.7526,-2.7976,-2.8105,-2.7324,-2.6152,-2.4535,-2.1913,-2.0001,-1.8264,-1.6476,-1.5757,-1.5586,-1.5968,-1.6504,-1.7542,-1.9513,-2.041,-2.1838,-2.4715,-2.5488,-2.6245,-2.7545,-2.8073,-2.8301,-2.8301,-2.8301,-2.8301,-2.8301,-2.907,-2.9696,-3.0059,-3.0547,-3.084,-3.0898,-3.0898,-3.0898,-3.0898,-3.0898,-3.0898,-3.0898,-3.0898,-3.0898,-3.0898,-3.0898,-3.0898,-3.0898,-3.0898,-3.1113,0.0,-3.1435,-3.1699,-3.2081,-3.2081,-3.2101,-3.214,-3.214,-3.2159,-3.2198,-3.2159,-3.214,-3.214,-3.2101,-3.1553,-3.0898,-3.0898,-3.0898,-3.0898,-3.0898,-3.0898,-3.0898,-3.0898,-3.0898,-3.0898,-3.0898,-3.0928,-3.0937,-3.0937,-3.0957,-3.0986,-3.0928,-3.1112,-3.1296,-3.1236,-3.1496,-3.1678,-3.1667,-3.1667,-3.1695,-3.1724,-3.1695,-3.1695,-3.1753,-3.1279,-3.1119,-3.1556,-3.1569,-3.162,-3.1761,-3.1753,-3.1032,-2.9445,-2.8676,-2.7589,-2.6067,-2.5031,-2.451,-2.451,-2.4235,-2.4075,-2.4042,-2.4412,-2.4558,-2.709,-2.7598,-2.7858,-2.7526,-2.6035,-2.4082,-2.1717,-1.9845,-1.8032,-1.6074,-1.5527,-1.5469,-1.5644,-1.605,-1.6793,-1.8164,-1.8768,-1.9823,-2.2072,-2.3184,-2.4375,-2.5942,-2.6934,-2.7715,-2.8242,-2.8301,-2.8516,-2.9051,-2.9637,-3.0137,-3.0586,-3.0801,-3.0898,-3.0898,-3.0898,-3.0898,-3.0898,-3.0898,-3.0898,-3.0898,-3.0898,-3.0898,-3.0898,-3.0898,-3.0898,-3.0898,-3.0898,-3.1133,0.0,-3.1494,-3.1777,-3.2198,-3.2198,-3.2355,-3.257,-3.257,-3.2695,-3.2891,-3.2637,-3.257,-3.2531,-3.2276,-3.1964,-3.169,-3.169,-3.169,-3.169,-3.169,-3.1465,-3.1269,-3.1269,-3.1074,-3.0898,-3.0898,-3.0898,-3.0898,-3.0898,-3.0898,-3.0898,-3.0898,-3.0995,-3.1054,-3.1054,-3.117,-3.1257,-3.1257,-3.1257,-3.1315,-3.1469,-3.1373,-3.1402,-3.1759,-3.158,-3.1524,-3.1706,-3.1726,-3.175,-3.1816,-3.1787,-3.1365,-3.0411,-2.8926,-2.7756,-2.7071,-2.5453,-2.4604,-2.4604,-2.4675,-2.4609,-2.4412,-2.4749,-2.4895,-2.6342,-2.7051,-2.7467,-2.735,-2.5742,-2.3672,-2.1503,-1.9669,-1.7854,-1.5825,-1.5396,-1.5396,-1.5396,-1.5679,-1.6207,-1.7243,-1.7637,-1.8516,-2.0508,-2.166,-2.2969,-2.4691,-2.5918,-2.6947,-2.7832,-2.8144,-2.8652,-2.954,-2.9872,-3.0273,-3.0859,-3.0898,-3.0898,-3.0898,-3.0898,-3.0898,-3.0898,-3.0898,-3.0898,-3.0898,-3.0898,-3.0898,-3.0898,-3.0898,-3.0898,-3.0898,-3.0898,-3.1133,0.0,-3.166,-3.1973,-3.2394,-3.2531,-3.2715,-3.2988,-3.2988,-3.3164,-3.3347,-3.3086,-3.2988,-3.293,-3.2637,-3.2539,-3.2539,-3.2539,-3.2394,-3.2198,-3.2198,-3.1953,-3.168,-3.1562,-3.1289,-3.1055,-3.0918,-3.0898,-3.0898,-3.0898,-3.0898,-3.0898,-3.0898,-3.0898,-3.0937,-3.1055,-3.1074,-3.1074,-3.1074,-3.1074,-3.1094,-3.119,-3.1025,-3.1054,-3.1489,-3.1647,-3.1696,-3.1663,-3.1643,-3.1674,-3.1727,-3.1698,-3.1515,-3.109,-2.9538,-2.8606,-2.8326,-2.6392,-2.5357,-2.5357,-2.5183,-2.4982,-2.4749,-2.4983,-2.5144,-2.5367,-2.6342,-2.6889,-2.6504,-2.5098,-2.3223,-2.1114,-1.9256,-1.7503,-1.5747,-1.5396,-1.5396,-1.5396,-1.5396,-1.5844,-1.7184,-1.7399,-1.8281,-2.084,-2.1621,-2.2519,-2.4196,-2.5191,-2.6069,-2.6928,-2.7793,-2.8652,-2.954,-2.9598,-2.9989,-3.084,-3.0898,-3.0898,-3.0898,-3.0898,-3.0898,-3.0898,-3.0898,-3.0898,-3.0898,-3.0898,-3.0898,-3.0898,-3.0898,-3.0898,-3.0898,-3.0898,-3.1133,0.0,-3.2022,-3.2433,-3.2832,-3.3242,-3.3386,-3.3386,-3.3386,-3.3386,-3.3386,-3.3386,-3.3386,-3.3386,-3.3386,-3.3386,-3.3386,-3.3386,-3.2832,-3.2198,-3.2198,-3.2198,-3.2101,-3.1621,-3.1504,-3.1406,-3.0996,-3.0898,-3.0898,-3.0898,-3.0898,-3.0898,-3.0898,-3.0898,-3.1016,-3.1445,-3.1474,-3.1474,-3.1474,-3.1474,-3.1367,-3.0967,-3.0898,-3.0898,-3.0928,-3.1269,-3.1446,-3.1306,-3.1296,-3.1377,-3.1484,-3.1504,-3.1429,-3.1195,-3.0858,-3.0396,-2.9777,-2.8064,-2.7166,-2.7166,-2.578,-2.5086,-2.5086,-2.5086,-2.5227,-2.324,-2.3923,-2.4235,-2.3848,-2.2678,-2.1192,-1.9609,-1.8379,-1.7168,-1.5688,-1.5396,-1.5396,-1.5396,-1.5396,-1.5922,-1.7559,-1.7812,-1.8398,-2.0079,-2.1484,-2.2734,-2.3848,-2.6055,-2.7598,-2.7871,-2.8398,-2.8965,-2.9559,-2.9844,-3.0254,-3.0859,-3.0898,-3.0898,-3.0898,-3.0898,-3.0898,-3.0898,-3.0898,-3.0898,-3.0898,-3.0898,-3.0898,-3.0898,-3.0898,-3.0898,-3.0898,-3.0898,-3.1133,-3.1562,-3.2022,-3.2452,-3.2832,-3.323,-3.3386,-3.3386,-3.3386,-3.3386,-3.3386,-3.3386,-3.3386,-3.3386,-3.3386,-3.3386,-3.3386,-3.3386,-3.3242,-3.2969,-3.2676,-3.2598,-3.25,-3.2101,-3.1983,-3.1964,-3.1827,-3.1788,-3.1788,-3.1788,-3.1788,-3.1788,-3.1788,-3.1788,-3.1846,-3.1964,-3.1983,-3.1983,-3.1983,-3.1983,-3.1914,-3.1807,-3.1788,-3.1788,-3.1788,-3.1905,-3.1807,-3.1466,-3.1731,-3.1936,-3.1983,-3.1983,-3.2057,-3.2301,-3.1271,-3.0725,-3.081,-2.9332,-2.8097,-2.7126,-2.6673,-2.6087,-2.5374,-2.5374,-2.5666,-2.1367,-2.2207,-2.2576,-2.2344,-2.1289,-2.0019,-1.8869,-1.7835,-1.6816,-1.563,-1.5396,-1.5396,-1.5396,-1.5396,-1.5805,-1.707,-1.7422,-1.7952,-1.924,-2.0781,-2.2423,-2.4105,-2.6367,-2.7871,-2.8073,-2.8437,-2.8926,-2.9559,-2.9833,-3.0234,-3.0859,-3.0898,-3.0898,-3.0898,-3.0898,-3.0898,-3.0898,-3.0898,-3.0898,-3.0898,-3.0898,-3.0898,-3.0898,-3.0898,-3.0898,-3.0898,-3.0898,-3.1035,0.0,-3.1944,-3.2355,-3.2617,-3.3184,-3.3386,-3.3386,-3.3386,-3.3386,-3.3386,-3.3386,-3.3386,-3.3386,-3.3386,-3.3386,-3.3386,-3.3386,-3.3386,-3.3359,-3.3105,-3.3027,-3.293,-3.2519,-3.2433,-3.2394,-3.2237,-3.2198,-3.2198,-3.2198,-3.2198,-3.2198,-3.2198,-3.2198,-3.2257,-3.2413,-3.2433,-3.2433,-3.2433,-3.2433,-3.2374,-3.2218,-3.2198,-3.2198,-3.2198,-3.2335,-3.2305,-3.2031,-3.2109,-3.2257,-3.2433,-3.2433,-3.2598,-3.3008,-3.2194,-3.1847,-3.2091,-3.071,-2.9557,-2.8673,-2.7747,-2.6722,-2.5676,-2.5807,-2.612,0.0,-2.0879,-2.1583,-2.1544,-2.0586,-1.9454,-1.8617,-1.7506,0.0,-1.5571,-1.5396,-1.5415,-1.5474,-1.5435,-1.5605,-1.6222,-1.6621,-1.7291,-1.8559,-1.9961,-2.1975,-2.4926,-2.6348,-2.7266,-2.7702,-2.8093,-2.866,-2.9481,-2.9579,-2.997,-3.0801,-3.0879,-3.0898,-3.0898,-3.0898,-3.0898,-3.0898,-3.0898,-3.0898,-3.0898,-3.0898,-3.0898,-3.0898,-3.0898,-3.0898,0.0,-3.0898,-3.0898,-3.0957,-3.1846,-3.2198,-3.2276,-3.3086,-3.3386,-3.3386,-3.3386,-3.3386,-3.3386,-3.3386,-3.3386,-3.3386,-3.3386,-3.3386,-3.3386,-3.3386,-3.3386,-3.3386,-3.3386,-3.3386,-3.3289,-3.2949,-3.2832,-3.2734,-3.2374,-3.2296,-3.2296,-3.2296,-3.2296,-3.2296,-3.2296,-3.2296,-3.2413,-3.2773,-3.2832,-3.2832,-3.2832,-3.2832,-3.2695,-3.2335,-3.2296,-3.2296,-3.2296,-3.2598,-3.2832,-3.2832,-3.2511,-3.2452,-3.2812,-3.2832,-3.3008,-3.3367,-3.3386,-3.3386,-3.3386,-3.1937,-3.1198,-3.1166,-2.8693,-2.6989,-2.6061,-2.6354,-2.6515,-1.6465,0.0,-1.8359,-1.801,-1.7698,-1.7327,0.0,-1.6461,-1.6089,-1.5527,-1.5396,-1.561,-1.6258,-1.5864,-1.6094,-1.8201,-1.8322,-1.8615,-1.9941,-2.207,-2.4394,-2.6803,-2.7598,-2.8027,-2.8151,-2.8242,-2.8516,-2.9043,-2.9403,-2.9833,-3.0332,-3.0703,-3.0898,-3.0898,-3.0898,-3.0898,-3.0898,-3.0898,-3.0898,-3.0898,-3.0898,-3.0898,-3.0898,-3.0898,-3.0898,-3.0898,-3.0898,-3.0898,-3.0957,-3.1846,-3.2198,-3.2276,-3.3086,-3.3386,-3.3386,-3.3386,-3.3386,-3.3386,-3.3386,-3.3386,-3.3386,-3.3386,-3.3386,-3.3386,-3.3386,-3.3386,-3.3386,-3.3386,-3.3386,-3.3367,-3.3269,-3.3281,-3.3242,-3.3144,-3.3125,-3.3125,-3.3125,-3.3125,-3.3125,-3.3125,-3.3125,-3.3164,-3.323,-3.3281,-3.3281,-3.3281,-3.3281,-3.3211,-3.3144,-3.3125,-3.3125,-3.3125,-3.3223,-3.3281,-3.3281,-3.3184,-3.3164,-3.323,-3.3281,-3.3289,-3.3386,-3.3386,-3.3386,-3.3386,-3.1212,-3.0073,-3.0073,-2.7607,-2.6378,-2.6383,-2.6471,-2.6632,-1.4796,-1.5922,-1.707,-1.7015,-1.6859,-1.6629,-1.6426,-1.607,-1.5644,-1.5215,-1.5273,-1.5493,-1.5766,-1.5922,-1.6469,-1.7874,-1.8364,-1.9357,-2.1485,-2.3479,-2.5473,-2.7448,-2.8073,-2.8301,-2.8301,-2.8301,-2.8476,-2.8859,-2.9141,-2.9531,-3.0156,-3.043,-3.0664,-3.0879,-3.0898,-3.0898,-3.0898,-3.0898,-3.0898,-3.0898,-3.0898,-3.0898,-3.0898,-3.0898,-3.0898,-3.0898,-3.0898,-3.0898,-3.0957,-3.1846,-3.2198,-3.2276,-3.3086,-3.3386,-3.3386,-3.3386,-3.3386,-3.3386,-3.3386,-3.3386,-3.3386,-3.3386,-3.3386,-3.3386,-3.3386,-3.3386,-3.3386,-3.3386,-3.3386,-3.3386,-3.3386,-3.3386,-3.3386,-3.3386,-3.3386,-3.3386,-3.3386,-3.3386,-3.3386,-3.3386,-3.3386,-3.3386,-3.3386,-3.3386,-3.3386,-3.3386,-3.3594,-3.3711,-3.3711,-3.3711,-3.3711,-3.3711,-3.3535,-3.3386,-3.3386,-3.3386,-3.3386,-3.3386,-3.3386,-3.3386,-3.3386,-3.3386,-3.3516,-3.3711,-3.1902,-3.0727,-3.0242,-2.8186,-2.7038,-2.672,-2.672,-2.6822,-1.425,-1.542,-1.6664,-1.695,-1.6797,-1.659,-1.6512,-1.5942,-1.5298,-1.4961,-1.5156,-1.5371,-1.5229,-1.6079,-1.6902,-1.7233,-1.8364,-2.0215,-2.3166,-2.4515,-2.5845,-2.7585,-2.8093,-2.8301,-2.8301,-2.8301,-2.8437,-2.8762,-2.8859,-2.9211,-2.9961,-3.0137,-3.0371,-3.0781,-3.0859,-3.0898,-3.0898,-3.0898,-3.0898,-3.0898,-3.0898,-3.0898,-3.0898,-3.0898,-3.0898,-3.0898,0.0,0.0,-3.0957,-3.1768,-3.214,-3.2276,-3.3027,-3.3359,-3.3386,-3.3386,-3.3386,-3.3386,-3.3386,-3.3386,-3.3386,-3.3386,-3.3386,-3.3386,-3.3386,-3.3386,-3.3386,-3.3386,-3.3386,-3.3386,-3.3386,-3.3386,-3.3386,-3.3386,-3.3386,-3.3386,-3.3386,-3.3386,-3.3386,-3.3386,-3.3386,-3.3386,-3.3386,-3.3386,-3.3386,-3.3386,-3.373,-3.3997,-3.3997,-3.3997,-3.3997,-3.3997,-3.3691,-3.3516,-3.3516,-3.3516,-3.3523,-3.3581,-3.3464,-3.3425,-3.3516,-3.3594,-3.3789,-3.4192,-3.2939,-3.181,-3.0891,-2.9212,-2.7875,-2.6983,-2.6983,-2.6983,-1.4908,-1.5684,-1.6046,-1.5381,-1.5713,-1.6089,-1.5688,-1.5493,-1.5376,-1.5332,-1.5371,-1.5742,-1.6813,-1.7165,-1.7888,-1.9706,-2.1074,-2.2693,-2.4996,-2.5484,-2.6245,-2.7988,-2.8262,-2.8301,-2.8301,-2.8301,-2.832,-2.8379,-2.8711,-2.8957,-2.9074,-2.9805,-3.0234,-3.0293,-3.0684,-3.0898,-3.0898,-3.0898,-3.0898,-3.0898,-3.0898,-3.0898,-3.0898,-3.0898,-3.0898,-3.0898,0.0,-3.0898,-3.0937,-3.1426,-3.1836,-3.2237,-3.2695,-3.3105,-3.3386,-3.3386,-3.3386,-3.3386,-3.3386,-3.3386,-3.3386,-3.3386,-3.3386,-3.3386,-3.3386,-3.3386,-3.3386,-3.3386,-3.3386,-3.3386,-3.3386,-3.3386,-3.3386,-3.3386,-3.3386,-3.3386,-3.3386,-3.3386,-3.3386,-3.3386,-3.3386,-3.3386,-3.3386,-3.3386,-3.3386,-3.3386,-3.3445,-3.3516,-3.3516,-3.3516,-3.3516,-3.3516,-3.3789,-3.3997,-3.3997,-3.3997,-3.4121,-3.4473,-3.3828,-3.3594,-3.3997,-3.4316,-3.4531,-3.4609,-3.2338,-3.1064,-3.0891,-2.8437,-2.7157,-2.6983,-2.6983,-2.6983,-1.3945,-1.4701,-1.5346,-1.5156,-1.6309,-1.7344,-1.6898,-1.68,-1.6742,-1.6523,-1.666,-1.6934,-1.7321,-1.8338,-1.9823,-2.1974,-2.3008,-2.4118,-2.5859,-2.6264,-2.6869,-2.8144,-2.8301,-2.8301,-2.8301,-2.8301,-2.8301,-2.8301,-2.8476,-2.8672,-2.8879,-2.9297,-2.9609,-2.9872,-3.0293,-3.0508,-3.0508,-3.0762,-3.0898,-3.0898,-3.0898,-3.0898,-3.0898,-3.0898,-3.0898,-3.0898,0.0,-3.0898,-3.0918,-3.1318,-3.1777,-3.2237,-3.2637,-3.3047,-3.3386,-3.3386,-3.3386,-3.3386,-3.3386,-3.3386,-3.3386,-3.3386,-3.3386,-3.3386,-3.3386,-3.3386,-3.3386,-3.3386,-3.3386,-3.3386,-3.3386,-3.3386,-3.3386,-3.3386,-3.3386,-3.3386,-3.3386,-3.3386,-3.3386,-3.3386,-3.3386,-3.3386,-3.3386,-3.3386,-3.3386,-3.3386,-3.3633,-3.3769,-3.3769,-3.3769,-3.3769,-3.3769,-3.3977,-3.4114,-3.4114,-3.431,-3.4394,-3.4388,-3.4199,-3.4199,-3.4394,-3.4844,-3.5078,-3.5078,-3.2548,-3.1216,-3.1216,-2.8362,-2.6983,-2.6983,-2.6983,-2.7086,-1.3646,-1.4271,-1.5059,-1.5571,-1.6879,-1.803,-1.8127,-1.7991,-1.7852,-1.7849,-1.8086,-1.8203,-1.7907,-1.9589,-2.172,-2.3772,-2.4531,-2.5312,-2.6548,-2.6973,-2.7441,-2.8203,-2.8301,-2.8301,-2.8301,-2.8301,-2.8301,-2.8301,-2.8301,-2.8437,-2.875,-2.884,-2.9062,-2.9422,-2.9824,-3.0059,-3.0059,-3.0508,-3.0781,-3.0898,-3.0898,-3.0898,-3.0898,-3.0898,-3.0898,-3.0898,-3.0898,-3.0898,-3.0918,-3.123,-3.168,-3.2237,-3.255,-3.2969,-3.3386,-3.3386,-3.3386,-3.3386,-3.3386,-3.3386,-3.3386,-3.3386,-3.3386,-3.3386,-3.3386,-3.3386,-3.3406,-3.3535,-3.3464,-3.3386,-3.3386,-3.3386,-3.3386,-3.3386,-3.3386,-3.3386,-3.3386,-3.3386,-3.3386,-3.3386,-3.3386,-3.3386,-3.3386,-3.3496,-3.3574,-3.3574,-3.3945,-3.4251,-3.4251,-3.4251,-3.4251,-3.4251,-3.4349,-3.4407,-3.4407,-3.4766,-3.4824,-3.4446,-3.4687,-3.4863,-3.4863,-3.5293,-3.5547,-3.5547,-3.3217,-3.186,-3.1508,-2.8835,-2.7347,-2.6983,-2.7071,-2.7232,-1.5537,-1.562,-1.5552,-1.6395,-1.6445,-1.6676,-1.8205,-1.7988,-1.7771,-1.8924,-1.9198,-1.9198,-1.9178,-2.0918,-2.2949,-2.4711,-2.5708,-2.6588,-2.7467,-2.7624,-2.7819,-2.8242,-2.8301,-2.8301,-2.8301,-2.8301,-2.8301,-2.8301,-2.8301,-2.8301,-2.834,-2.8711,-2.8926,-2.8937,-2.9422,-2.9637,-2.9637,-3.0039,-3.0469,-3.0898,-3.0898,-3.0898,-3.0898,-3.0898,-3.0898,-3.0898,-3.0898,-3.0898,-3.0898,-3.0918,-3.1455,-3.2198,-3.2237,-3.2715,-3.3386,-3.3386,-3.3386,-3.3386,-3.3386,-3.3386,-3.3386,-3.3386,-3.3386,-3.3386,-3.3386,-3.3386,-3.3496,-3.3938,-3.373,-3.3386,-3.3386,-3.3386,-3.3386,-3.3386,-3.3386,-3.3386,-3.3386,-3.3386,-3.3386,-3.3386,-3.3386,-3.3386,-3.3386,-3.375,-3.4055,-3.4055,-3.4394,-3.4648,-3.4648,-3.4648,-3.4648,-3.4648,-3.5039,-3.5293,-3.5293,-3.5684,-3.5742,-3.5332,-3.5332,-3.5351,-3.5351,-3.5742,-3.5976,-3.5976,-3.4418,-3.2927,-3.1508,-2.9842,-2.8331,-2.6998,-2.7305,-2.7489,-1.4805,-1.5122,-1.561,-1.6473,-1.7191,-1.7952,-1.9142,-1.9824,-2.0488,-2.1505,-2.1699,-2.1737,-2.2031,-2.2969,-2.418,-2.5669,-2.6646,-2.7409,-2.7995,-2.8073,-2.8151,-2.8281,-2.8301,-2.8301,-2.8301,-2.8301,-2.8301,-2.8301,-2.8301,-2.8301,-2.8301,-2.8437,-2.8535,-2.8535,-2.8945,-2.916,-2.916,-2.9844,-3.0293,-3.0469,-3.0762,-3.0898,-3.0898,-3.0898,-3.0898,-3.0898,-3.0898,-3.0898,-3.0898,-3.0898,-3.1387,-3.2257,-3.2734,-3.3144,-3.3386,-3.3386,-3.3386,-3.3386,-3.3386,-3.3386,-3.3386,-3.3386,-3.3386,-3.3445,-3.375,-3.3828,-3.3906,-3.4336,-3.4336,-3.4219,-3.4219,-3.3828,-3.3464,-3.3769,-3.3613,-3.3386,-3.3386,-3.3386,-3.3496,-3.3769,-3.3828,-3.3906,-3.418,-3.4355,-3.4453,-3.4453,-3.459,-3.4707,-3.4707,-3.4707,-3.4707,-3.4707,-3.5117,-3.5508,-3.5762,-3.5903,-3.5957,-3.5801,-3.5781,-3.5781,-3.5781,-3.5937,-3.5982,-3.5982,-3.454,-3.3519,-3.2927,-3.0411,-2.9001,-2.8654,-2.7888,-2.77,-1.4439,-1.4766,-1.543,-1.6293,-1.7564,-1.8929,-2.0254,-2.123,-2.2267,-2.354,-2.3535,-2.3454,-2.3906,-2.4121,-2.4687,-2.6152,-2.7018,-2.7682,-2.8203,-2.8301,-2.8301,-2.8301,-2.8301,-2.8301,-2.8301,-2.8301,-2.8301,-2.8301,-2.8301,-2.8301,-2.8301,-2.8301,-2.8301,-2.8301,-2.8574,-2.8711,-2.8711,-2.9434,-2.9863,-3.0028,-3.0449,-3.0742,-3.0898,-3.0898,-3.0898,-3.0898,-3.0898,-3.0898,-3.0898,-3.0898,-3.1387,-3.2276,-3.3086,-3.3386,-3.3386,-3.3386,-3.3386,-3.3386,-3.3386,-3.3386,-3.3386,-3.3386,-3.3516,-3.3691,-3.4016,-3.4192,-3.4388,-3.4805,-3.4805,-3.4766,-3.5039,-3.4473,-3.3906,-3.4199,-3.4043,-3.3828,-3.3828,-3.3828,-3.3906,-3.4251,-3.431,-3.4388,-3.4648,-3.4824,-3.4922,-3.4922,-3.5039,-3.5117,-3.5117,-3.5117,-3.5117,-3.5117,-3.541,-3.5703,-3.5962,-3.5982,-3.5982,-3.5982,-3.5982,-3.5982,-3.5982,-3.5982,-3.5982,-3.5982,-3.5005,-3.4264,-3.3796,-3.1309,-2.9953,-2.9665,-2.8379,-2.8022,-1.4916,-1.4799,-1.5014,-1.5889,-1.7383,-1.922,-2.1406,-2.1935,-2.2541,-2.4672,-2.4437,-2.3945,-2.4332,-2.4102,-2.4375,-2.6113,-2.6738,-2.7324,-2.8164,-2.8301,-2.8301,-2.8301,-2.8301,-2.8301,-2.8301,-2.8301,-2.8301,-2.8301,-2.8301,-2.8301,-2.8301,-2.8301,-2.8301,-2.8301,-2.8301,-2.8301,-2.8301,-2.8711,-2.9141,-2.9598,-3.0028,-3.0449,-3.0898,-3.0898,-3.0898,-3.0898,-3.0898,-3.0898,-3.0898,-3.0898,-3.1436,-3.2276,-3.3086,-3.3386,-3.3386,-3.3386,-3.3386,-3.3386,-3.3386,-3.3386,-3.3386,-3.3406,-3.3711,-3.4114,-3.4114,-3.4375,-3.4805,-3.5273,-3.5078,-3.4902,-3.5801,-3.5371,-3.4707,-3.4707,-3.4707,-3.4707,-3.4707,-3.4707,-3.4707,-3.4707,-3.4707,-3.4707,-3.4707,-3.5098,-3.541,-3.541,-3.5742,-3.5982,-3.5982,-3.5982,-3.5982,-3.5982,-3.5982,-3.5982,-3.5982,-3.5982,-3.5982,-3.5982,-3.5982,-3.5982,-3.5982,-3.5982,-3.5982,-3.5982,-3.5982,-3.528,-3.3815,-3.2613,-3.1209,-2.9733,-2.8845,-2.8394,-1.4916,-1.5263,-1.5987,-1.7165,-1.9199,-2.1328,-2.2871,-2.3457,-2.4199,-2.6055,-2.5996,-2.5566,-2.5347,-2.5718,-2.6133,-2.6348,-2.7246,-2.8008,-2.8262,-2.8301,-2.8301,-2.8301,-2.8301,-2.8301,-2.8301,-2.8301,-2.8301,-2.8301,-2.8301,-2.8301,-2.8301,-2.8301,-2.8301,-2.8301,-2.8301,-2.8301,-2.8301,-2.8711,-2.8957,-2.9121,-2.9844,-3.0449,-3.0898,-3.0898,-3.0898,-3.0898,-3.0898,-3.0898,-3.0937,-3.1573,-3.1964,-3.2276,-3.3086,-3.3386,-3.3386,-3.3386,-3.3386,-3.3386,-3.3386,-3.3386,-3.3445,-3.3789,-3.3997,-3.4212,-3.4805,-3.5098,-3.5273,-3.5703,-3.5742,-3.5684,-3.5923,-3.582,-3.5547,-3.5254,-3.4941,-3.4707,-3.4707,-3.4707,-3.4805,-3.5117,-3.5176,-3.5273,-3.5586,-3.5742,-3.584,-3.584,-3.5903,-3.5982,-3.5982,-3.5982,-3.5982,-3.5982,-3.5982,-3.5982,-3.5982,-3.5982,-3.5982,-3.5982,-3.5982,-3.5982,-3.5982,-3.5982,-3.5982,-3.5982,-3.5982,-3.5967,-3.5843,-3.3269,-3.2021,-3.2013,-2.9534,-2.8511,-1.5327,-1.5948,-1.6966,-1.8398,-2.0196,-2.2148,-2.4121,-2.4996,-2.5718,-2.6771,-2.6816,-2.6562,-2.6264,-2.6523,-2.6797,-2.69,-2.7565,-2.8132,-2.8262,-2.8301,-2.8301,-2.8301,-2.8301,-2.8301,-2.8301,-2.8301,-2.8301,-2.8301,-2.8301,-2.8301,-2.8301,-2.8301,-2.8301,-2.8301,-2.8301,-2.8301,-2.8301,-2.8535,-2.875,-2.8898,-2.9434,-3.0019,-3.0625,-3.0801,-3.0898,-3.0898,-3.0898,-3.0898,-3.0957,-3.1846,-3.2198,-3.2276,-3.3086,-3.3386,-3.3386,-3.3386,-3.3386,-3.3386,-3.3386,-3.3386,-3.3496,-3.3958,-3.4212,-3.4453,-3.5176,-3.5508,-3.5703,-3.5937,-3.5982,-3.5982,-3.5982,-3.5982,-3.5923,-3.5703,-3.543,-3.5215,-3.5215,-3.5215,-3.5312,-3.5586,-3.5644,-3.5723,-3.5976,-3.5982,-3.5982,-3.5982,-3.5982,-3.5982,-3.5982,-3.5982,-3.5982,-3.5982,-3.5982,-3.5982,-3.5982,-3.5982,-3.5982,-3.5982,-3.5982,-3.5982,-3.5982,-3.5982,-3.5982,-3.5982,-3.6191,-3.6077,-3.5702,-3.3499,-3.2354,-3.2085,-2.9724,-2.871,-1.5928,-1.6731,-1.7868,-1.9551,-2.0742,-2.2223,-2.5113,-2.6381,-2.6973,-2.7051,-2.7109,-2.7129,-2.709,-2.6797,-2.6822,-2.7565,-2.7721,-2.7878,-2.8242,-2.8301,-2.8301,-2.8301,-2.8301,-2.8301,-2.8301,-2.8301,-2.8301,-2.8301,-2.8301,-2.8301,-2.8301,-2.8301,-2.8301,-2.8301,-2.8301,-2.8301,-2.8301,-2.8301,-2.8476,-2.8867,-2.8879,-2.9355,-3.0156,-3.0625,-3.0859,-3.0898,-3.0898,-3.0898,-3.0957,-3.1807,-3.2159,-3.2276,-3.3047,-3.3347,-3.3386,-3.3386,-3.3386,-3.3386,-3.3386,-3.3386,-3.3464,-3.3984,-3.4394,-3.4785,-3.5293,-3.5723,-3.5982,-3.5982,-3.5982,-3.5982,-3.5982,-3.5982,-3.5982,-3.5982,-3.5982,-3.5982,-3.5982,-3.5982,-3.5982,-3.5982,-3.5982,-3.5982,-3.5982,-3.5982,-3.5982,-3.5982,-3.5982,-3.5982,-3.5982,-3.5982,-3.5982,-3.5982,-3.5982,-3.5982,-3.5982,-3.5982,-3.5982,-3.5982,-3.6055,-3.604,-3.604,-3.6001,-3.6001,-3.604,-3.6465,-3.5984,-3.4547,-3.374,-3.2513,-3.0946,-2.9861,-2.9197,-1.5527,-1.6699,-1.8281,-2.0019,-2.209,-2.4157,-2.5859,-2.6387,-2.6719,-2.7409,-2.7819,-2.791,-2.7604,-2.7741,-2.7858,-2.7721,-2.7976,-2.8184,-2.8281,-2.8301,-2.8301,-2.8301,-2.8301,-2.8301,-2.8301,-2.8301,-2.8301,-2.8301,-2.8301,-2.8301,-2.8301,-2.8301,-2.8301,-2.8301,-2.8301,-2.8301,-2.8301,-2.8301,-2.834,-2.8437,-2.8769,-2.9199,-2.9755,-3.0156,-3.0547,-3.0898,-3.0898,-3.0898,-3.0937,-3.1445,-3.1855,-3.2257,-3.2734,-3.3125,-3.3386,-3.3386,-3.3386,-3.3386,-3.3386,-3.3386,-3.3523,-3.4316,-3.4629,-3.4844,-3.5644,-3.5937,-3.5982,-3.5982,-3.5982,-3.5982,-3.5982,-3.5982,-3.5982,-3.5982,-3.5982,-3.5982,-3.5982,-3.5982,-3.5982,-3.5982,-3.5982,-3.5982,-3.5982,-3.5982,-3.5982,-3.5982,-3.5982,-3.5982,-3.5982,-3.5982,-3.5982,-3.5982,-3.5982,-3.5982,-3.5982,-3.5982,-3.5982,-3.5982,-3.6348,-3.6558,-3.6558,-3.6211,-3.6172,-3.6523,-3.6656,-3.6817,-3.7102,-3.5685,-3.4306,-3.3066,-3.2792,-3.1315,-1.6133,-1.7461,-1.918,-2.1544,-2.3594,-2.521,-2.5918,-2.625,-2.6548,-2.6979,-2.7383,-2.7676,-2.7702,-2.7878,-2.8015,-2.7995,-2.8144,-2.8301,-2.8301,-2.8301,-2.8301,-2.8301,-2.8301,-2.8301,-2.8301,-2.8301,-2.8301,-2.8301,-2.8301,-2.8301,-2.8301,-2.8301,-2.8301,-2.8301,-2.8301,-2.8301,-2.8301,-2.8301,-2.8301,-2.8301,-2.8516,-2.8945,-2.9618,-3.0263,-3.0664,-3.0898,-3.0898,-3.0898,-3.0918,-3.1318,-3.1777,-3.2237,-3.2637,-3.3047,-3.3386,-3.3386,-3.3386,-3.3386,-3.3386,-3.3555,-3.3848,-3.4492,-3.4844,-3.5156,-3.5786,-3.5982,-3.5982,-3.5982,-3.5982,-3.5982,-3.5982,-3.5982,-3.5982,-3.5982,-3.5982,-3.5982,-3.5982,-3.5982,-3.5982,-3.5982,-3.5982,-3.5982,-3.5982,-3.5982,-3.5982,-3.5982,-3.5982,-3.5982,-3.5982,-3.5982,-3.5982,-3.5982,-3.5982,-3.5982,-3.5982,-3.5982,-3.6113,-3.6309,-3.6543,-3.6792,-3.6988,-3.6758,-3.6738,-3.6973,-3.7168,-3.709,-3.6739,-3.6127,-3.5093,-3.3658,-3.2918,-3.1638,-1.6539,-1.8162,-2.0078,-2.299,-2.4586,-2.5503,-2.5581,-2.5957,-2.6269,-2.6269,-2.668,-2.7129,-2.7506,-2.7585,-2.7702,-2.8008,-2.8144,-2.821,-2.821,-2.8242,-2.8301,-2.8301,-2.8301,-2.8301,-2.8301,-2.8301,-2.8301,-2.8301,-2.8301,-2.8301,-2.8301,-2.8301,-2.8301,-2.8301,-2.8301,-2.8301,-2.8301,-2.8301,-2.8301,-2.8301,-2.8359,-2.8809,-2.9618,-3.0439,-3.082,-3.0898,-3.0898,-3.0898,-3.0918,-3.1269,-3.1699,-3.2237,-3.2589,-3.2988,-3.3386,-3.3386,-3.3386,-3.3386,-3.3386,-3.3711,-3.4173,-3.457,-3.5019,-3.5469,-3.5898,-3.5982,-3.5982,-3.5982,-3.5982,-3.5982,-3.5982,-3.5982,-3.5982,-3.5982,-3.5982,-3.5982,-3.5982,-3.5982,-3.5982,-3.5982,-3.5982,-3.5982,-3.5982,-3.5982,-3.5982,-3.5982,-3.5982,-3.5982,-3.5982,-3.5982,-3.5982,-3.5982,-3.5982,-3.5982,-3.5982,-3.5982,-3.6211,-3.6675,-3.6773,-3.6973,-3.7383,-3.748,-3.7519,-3.7519,-3.7773,-3.7302,-3.6034,-3.6404,-3.5588,-3.3658,-3.2614,-3.1676,-1.4961,-1.7422,-2.0371,-2.2697,-2.3926,-2.4687,-2.5102,-2.5508,-2.5796,-2.5796,-2.644,-2.7006,-2.709,-2.7109,-2.7129,-2.7142,-2.75,-2.778,-2.778,-2.8093,-2.8301,-2.8301,-2.8301,-2.8301,-2.8301,-2.8301,-2.8301,-2.8301,-2.8301,-2.8301,-2.8301,-2.8301,-2.8301,-2.8301,-2.8301,-2.8301,-2.8301,-2.8301,-2.8301,-2.8301,-2.8652,-2.9101,-2.9618,-3.0059,-3.0508,-3.0898,-3.0898,-3.0898,-3.0898,-3.0957,-3.1445,-3.2198,-3.2257,-3.2734,-3.3386,-3.3386,-3.3386,-3.3386,-3.3386,-3.3711,-3.4173,-3.457,-3.5019,-3.5469,-3.5898,-3.5982,-3.5982,-3.5982,-3.5982,-3.5982,-3.5982,-3.5982,-3.5982,-3.5982,-3.5982,-3.5982,-3.5982,-3.5982,-3.5982,-3.5982,-3.5982,-3.5982,-3.5982,-3.5982,-3.5982,-3.5982,-3.5982,-3.5982,-3.5982,-3.5982,-3.5982,-3.5982,-3.5982,-3.5982,-3.5982,-3.5982,-3.6211,-3.6675,-3.7012,-3.7402,-3.7777,-3.8203,-3.8435,-3.8435,-3.8086,-3.7997,-3.8185,-3.8243,-3.6682,-3.3751,-3.4954,-3.3281,-1.6074,-1.8223,-2.041,-2.2598,-2.3613,-2.4238,-2.4945,-2.5239,-2.543,-2.5659,-2.5986,-2.6342,-2.6621,-2.666,-2.6738,-2.6947,-2.7168,-2.7305,-2.7305,-2.7461,-2.7578,-2.7578,-2.7578,-2.7578,-2.7578,-2.7793,-2.7956,-2.7956,-2.8164,-2.8301,-2.8301,-2.8301,-2.8301,-2.8301,-2.8301,-2.8301,-2.8301,-2.8301,-2.8301,-2.8301,-2.8476,-2.8789,-2.9219,-2.9648,-3.0234,-3.0898,-3.0898,-3.0898,-3.0898,-3.0898,-3.1387,-3.2198,-3.2198,-3.2676,-3.3386,-3.3386,-3.3386,-3.3386,-3.3386,-3.3867,-3.4453,-3.4629,-3.5176,-3.5781,-3.5957,-3.5982,-3.5982,-3.5982,-3.5982,-3.5982,-3.5982,-3.5982,-3.5982,-3.5982,-3.5982,-3.5982,-3.5982,-3.5982,-3.5982,-3.5982,-3.5982,-3.5982,-3.5982,-3.5982,-3.5982,-3.5982,-3.5982,-3.5982,-3.5982,-3.5982,-3.5982,-3.5982,-3.5982,-3.5982,-3.5982,-3.5982,-3.6309,-3.6973,-3.7187,-3.7598,-3.8262,-3.8476,-3.8611,-3.8611,-3.8379,-3.8379,-3.8611,-3.7714,-3.6996,-3.6423,-3.5327,-3.3676,-1.6605,-1.8186,-1.961,-2.1757,-2.2869,-2.3672,-2.4437,-2.4867,-2.518,-2.5508,-2.564,-2.5815,-2.6172,-2.623,-2.6328,-2.6615,-2.6752,-2.6855,-2.6855,-2.6953,-2.6986,-2.6986,-2.6986,-2.6986,-2.6986,-2.7305,-2.7526,-2.7526,-2.7793,-2.8008,-2.8125,-2.8151,-2.8184,-2.8281,-2.8301,-2.8301,-2.8301,-2.8301,-2.8301,-2.8301,-2.8301,-2.8516,-2.8918,-2.9403,-3.0009,-3.0723,-3.084,-3.0898,-3.0898,-3.0898,-3.1387,-3.2198,-3.2198,-3.2676,-3.3386,-3.3386,-3.3386,-3.3406,-3.3555,-3.4082,-3.4726,-3.4844,-3.5391,-3.5982,-3.5982,-3.5982,-3.5982,-3.5982,-3.5982,-3.5982,-3.5982,-3.5982,-3.5982,-3.5982,-3.5982,-3.5982,-3.5982,-3.5982,-3.5982,-3.5982,-3.5982,-3.5982,-3.5982,-3.5982,-3.5982,-3.5982,-3.5982,-3.5982,-3.5982,-3.5982,-3.5982,-3.5982,-3.5982,-3.5982,-3.5982,-3.6113,-3.6504,-3.7246,-3.7402,-3.7793,-3.8591,-3.8611,-3.8611,-3.8611,-3.8611,-3.8611,-3.8611,-3.7401,-3.7217,-3.7934,-3.5476,-3.4111,-1.5059,-1.6196,-1.7369,-1.9532,-2.1327,-2.2695,-2.3208,-2.4222,-2.5102,-2.5121,-2.5449,-2.5718,-2.5713,-2.5757,-2.5732,-2.5752,-2.6152,-2.6426,-2.6426,-2.6758,-2.6986,-2.6986,-2.6986,-2.6986,-2.6986,-2.7006,-2.7051,-2.7051,-2.707,-2.7266,-2.7702,-2.7721,-2.7917,-2.8281,-2.8301,-2.8301,-2.8301,-2.8301,-2.8301,-2.8301,-2.8301,-2.8516,-2.8918,-2.9403,-2.9833,-3.0254,-3.0703,-3.0898,-3.0898,-3.0898,-3.1387,-3.2198,-3.2198,-3.2676,-3.3386,-3.3386,-3.3386,-3.3445,-3.3887,-3.4336,-3.4766,-3.5215,-3.5664,-3.5982,-3.5982,-3.5982,-3.5982,-3.5982,-3.5982,-3.5982,-3.5982,-3.5982,-3.5982,-3.5982,-3.5982,-3.5982,-3.5982,-3.5982,-3.5982,-3.5982,-3.5982,-3.5982,-3.5982,-3.5982,-3.5982,-3.5982,-3.5982,-3.5982,-3.5982,-3.5982,-3.5982,-3.5982,-3.5982,-3.5982,-3.5982,-3.6406,-3.6851,-3.7266,-3.7676,-3.8105,-3.8591,-3.8611,-3.8611,-3.8611,-3.8611,-3.8611,-3.8611,-3.8538,-3.7751,-3.6312,-3.6164,-3.5215,-1.4687,-1.5644,-1.6774,-1.8615,-1.9962,-2.1172,-2.2461,-2.3301,-2.3984,-2.4531,-2.5,-2.5312,-2.5312,-2.5523,-2.5693,-2.5693,-2.5835,-2.5952,-2.5952,-2.6069,-2.6167,-2.6167,-2.6167,-2.6167,-2.6167,-2.6445,-2.6602,-2.6602,-2.6855,-2.7064,-2.7246,-2.7545,-2.7624,-2.748,-2.8008,-2.8301,-2.8301,-2.8301,-2.8301,-2.8301,-2.8301,-2.8379,-2.8535,-2.9285,-2.9676,-2.9872,-3.0566,-3.0898,-3.0898,-3.0898,-3.1387,-3.2198,-3.2198,-3.2676,-3.3386,-3.3386,-3.3386,-3.3464,-3.3958,-3.4336,-3.4766,-3.5234,-3.5684,-3.5982,-3.5982,-3.5982,-3.5982,-3.5982,-3.5982,-3.5982,-3.5982,-3.5982,-3.5982,-3.5982,-3.5982,-3.5982,-3.5982,-3.5982,-3.5982,-3.5982,-3.5982,-3.5982,-3.5982,-3.5982,-3.5903,-3.5664,-3.5806,-3.5918,-3.5644,-3.5859,-3.5982,-3.5982,-3.5982,-3.6133,-3.6406,-3.6616,-3.6973,-3.7656,-3.7796,-3.8125,-3.8591,-3.8611,-3.8611,-3.8611,-3.8611,-3.8611,-3.8611,-3.7548,-3.7291,-3.7714,-3.6701,-3.529,-1.4199,-1.4995,-1.607,-1.7776,-1.8635,-1.959,-2.1601,-2.2381,-2.2947,-2.3786,-2.4453,-2.4926,-2.5063,-2.5312,-2.5542,-2.5698,-2.5693,-2.5693,-2.5693,-2.5693,-2.5693,-2.5693,-2.5693,-2.5693,-2.5693,-2.5971,-2.6172,-2.6172,-2.6401,-2.6615,-2.6797,-2.709,-2.7252,-2.7226,-2.7819,-2.8144,-2.8301,-2.8301,-2.8301,-2.8301,-2.8301,-2.8301,-2.832,-2.9207,-2.9598,-2.9657,-3.0508,-3.0898,-3.0898,-3.0898,-3.1387,-3.2198,-3.2198,-3.2676,-3.3386,-3.3386,-3.3386,-3.3496,-3.4082,-3.4473,-3.4805,-3.541,-3.5801,-3.5982,-3.5982,-3.5982,-3.5982,-3.5982,-3.5982,-3.5982,-3.5982,-3.5982,-3.6055,-3.6211,-3.623,-3.6269,-3.6426,-3.623,-3.5982,-3.5982,-3.5982,-3.5982,-3.5982,-3.5982,-3.5918,-3.5644,-3.584,-3.5884,-3.5644,-3.5976,-3.623,-3.623,-3.6367,-3.6562,-3.6855,-3.7012,-3.7324,-3.7855,-3.8066,-3.8281,-3.8591,-3.8611,-3.8611,-3.8611,-3.8611,-3.8611,-3.8611,-3.753,-3.7548,-3.8574,-3.6959,-3.5062,0.0,0.0,0.0,-1.691,-1.7321,-1.7988,-2.0527,-2.1425,-2.2012,-2.2869,-2.3728,-2.4473,-2.4965,-2.5063,-2.5219,-2.562,-2.5698,-2.5693,-2.5693,-2.5693,-2.5693,-2.5693,-2.5693,-2.5693,-2.5693,-2.5693,-2.5693,-2.5693,-2.5693,-2.5893,-2.6348,-2.6367,-2.6803,-2.7663,-2.7682,-2.7878,-2.8281,-2.8301,-2.8301,-2.8301,-2.8301,-2.8301,-2.832,-2.9207,-2.9598,-2.9657,-3.0508,-3.0898,-3.0898,-3.0898,-3.1387,-3.2198,-3.2198,-3.2676,-3.3386,-3.3386,-3.3406,-3.3523,-3.4414,-3.4707,-3.4863,-3.5708,-3.5982,-3.5982,-3.5982,-3.5982,-3.5982,-3.5982,-3.6001,-3.6001,-3.6055,-3.6055,-3.6172,-3.6616,-3.6714,-3.6832,-3.7207,-3.6641,-3.6055,-3.6055,-3.6055,-3.6055,-3.6055,-3.6055,-3.6021,-3.6001,-3.6001,-3.6001,-3.6001,-3.6406,-3.6714,-3.6714,-3.7051,-3.7305,-3.7324,-3.7695,-3.7894,-3.7913,-3.834,-3.8611,-3.8611,-3.8611,-3.8611,-3.8611,-3.8611,-3.8611,-3.8611,-3.8611,-3.8611,-3.8574,-3.6922,-3.458,-1.3581,0.0,0.0,0.0,0.0,0.0,-1.8066,-1.8535,-1.9219,-2.1308,-2.1912,-2.2518,-2.3887,-2.4394,-2.4746,-2.5176,-2.5503,-2.5693,-2.5693,-2.5693,-2.5693,-2.5693,-2.5693,-2.5693,-2.5693,-2.5693,-2.5693,0.0,-2.5693,-2.5776,-2.5893,-2.5893,-2.6445,-2.7663,-2.7363,-2.7539,-2.8281,-2.8301,-2.8301,-2.8301,-2.8301,-2.8301,-2.832,-2.9207,-2.9598,-2.9657,-3.0508,-3.0898,-3.0898,-3.0898,-3.1387,-3.2198,-3.2198,-3.2676,-3.3386,-3.3386,-3.3613,-3.3965,-3.4512,-3.4922,-3.5293,-3.584,-3.5982,-3.5982,-3.5982,-3.5982,-3.5982,-3.5982,-3.625,-3.6562,-3.6855,-3.6953,-3.6973,-3.709,-3.7129,-3.7148,-3.7266,-3.7109,-3.6953,-3.6953,-3.6953,-3.6953,-3.6953,-3.6953,-3.6836,-3.6543,-3.6484,-3.6484,-3.6484,-3.6636,-3.6812,-3.709,-3.7226,-3.7422,-3.7734,-3.7851,-3.803,-3.8379,-3.8552,-3.8611,-3.8611,-3.8611,-3.8611,-3.8611,-3.8611,-3.8611,-3.8611,-3.8611,-3.8611,-3.8538,-3.597,-3.3828,-1.416,-1.4414,-1.4936,-1.5469,0.0,0.0,-1.7441,-1.7637,-1.8083,-2.0469,-2.1093,-2.1658,-2.322,-2.3688,-2.4059,-2.4687,-2.4996,-2.5265,-2.5659,-2.5693,-2.5693,-2.5693,-2.5693,-2.5693,-2.5693,-2.5693,-2.5693,-2.5693,-2.5693,-2.5693,-2.5693,-2.5693,-2.6147,-2.7135,-2.7051,-2.7344,-2.8054,-2.8203,-2.8301,-2.8301,-2.8301,-2.8301,-2.832,-2.9207,-2.9598,-2.9657,-3.0508,-3.0898,-3.0898,-3.1074,-3.1562,-3.2198,-3.2198,-3.2676,-3.3386,-3.3386,-3.3691,-3.4173,-3.4551,-3.5,-3.5469,-3.5879,-3.5982,-3.5982,-3.5982,-3.5982,-3.6055,-3.623,-3.6601,-3.6992,-3.7226,-3.7305,-3.7344,-3.7519,-3.7559,-3.7598,-3.7793,-3.7832,-3.7734,-3.7363,-3.7305,-3.7305,-3.7305,-3.7305,-3.7207,-3.7007,-3.6934,-3.6934,-3.6934,-3.709,-3.7285,-3.7539,-3.7715,-3.793,-3.8164,-3.8203,-3.8301,-3.8591,-3.8611,-3.8611,-3.8611,-3.8611,-3.8611,-3.8611,-3.8611,-3.8611,-3.8611,-3.8611,-3.8323,-3.7777,-3.5357,-3.3598,-1.5053,-1.4975,0.0,-1.6313,-1.5498,0.0,-1.7545,-1.7659,-1.781,-1.9745,-2.0449,-2.1112,-2.2477,-2.2789,-2.3103,-2.3903,-2.4157,-2.4586,-2.5503,-2.564,-2.5659,-2.5674,-2.5693,-2.5693,-2.5693,-2.5693,-2.5693,-2.5693,-2.5693,-2.5693,-2.5693,-2.5693,-2.5913,-2.6412,-2.6797,-2.7226,-2.7682,-2.8112,-2.8301,-2.8301,-2.8301,-2.832,-2.8398,-2.9227,-2.9618,-2.9715,-3.0527,-3.0898,-3.0918,-3.1318,-3.1777,-3.2198,-3.2257,-3.2715,-3.3386,-3.3386,-3.373,-3.4231,-3.457,-3.5039,-3.5527,-3.5864,-3.5982,-3.5982,-3.5982,-3.6055,-3.6191,-3.668,-3.709,-3.7383,-3.7422,-3.7441,-3.7539,-3.7874,-3.7988,-3.8105,-3.8496,-3.8611,-3.8376,-3.7578,-3.7441,-3.7441,-3.7441,-3.7441,-3.7441,-3.7441,-3.7402,-3.7383,-3.7441,-3.7734,-3.7913,-3.7952,-3.834,-3.8611,-3.8611,-3.8611,-3.8611,-3.8611,-3.8611,-3.8611,-3.8611,-3.8611,-3.8611,-3.8611,-3.8611,-3.8611,-3.8611,-3.865,-3.8036,-3.6751,-3.5266,-3.4015,-1.5968,-1.6074,-1.6219,-1.5766,-1.6211,0.0,-1.5245,-1.5684,-1.6559,-1.7308,-1.7506,-1.8169,-2.0157,-2.084,-2.125,-2.1757,-2.2672,-2.3786,-2.5043,-2.5219,-2.5332,-2.5659,-2.5693,-2.5693,-2.5693,-2.5693,-2.5693,-2.5693,-2.5693,-2.5693,-2.5693,-2.5693,-2.5913,-2.6412,-2.6797,-2.7226,-2.7682,-2.8112,-2.8301,-2.8301,-2.8301,-2.8476,-2.8781,-2.9364,-2.9774,-3.0098,-3.0644,-3.0898,-3.0918,-3.1318,-3.1777,-3.2237,-3.257,-3.2988,-3.3386,-3.3386,-3.3906,-3.459,-3.4668,-3.5234,-3.5918,-3.5962,-3.5982,-3.5982,-3.5982,-3.6269,-3.6734,-3.7461,-3.7734,-3.7891,-3.8242,-3.8356,-3.8376,-3.8418,-3.8457,-3.8513,-3.8591,-3.8611,-3.8552,-3.8396,-3.8356,-3.8356,-3.8356,-3.8356,-3.8356,-3.8356,-3.8027,-3.793,-3.8317,-3.8086,-3.803,-3.8418,-3.8552,-3.8611,-3.8611,-3.8611,-3.8611,-3.8611,-3.8611,-3.8611,-3.8611,-3.8611,-3.8611,-3.8611,-3.8611,-3.8611,-3.8611,-3.8926,-3.8323,-3.6807,-3.7065,-3.5647,-1.691,-1.6719,-1.6746,-1.6957,-1.6699,0.0,0.0,-1.5883,-1.6055,-1.7132,-1.6999,-1.7291,-1.9238,-1.9434,-1.9648,-2.0723,-2.1445,-2.2305,-2.3613,-2.4336,-2.4824,-2.5035,-2.5054,-2.5132,-2.5391,-2.541,-2.5464,-2.5674,-2.5693,-2.5693,-2.5693,-2.5693,-2.5815,-2.603,-2.668,-2.7129,-2.7344,-2.7969,-2.8301,-2.8301,-2.8301,-2.8516,-2.8918,-2.9403,-2.9833,-3.0215,-3.0684,-3.0898,-3.0937,-3.1582,-3.2003,-3.2237,-3.2637,-3.3047,-3.3406,-3.3672,-3.4141,-3.4726,-3.4961,-3.5469,-3.5982,-3.5982,-3.5982,-3.5982,-3.5982,-3.6465,-3.7109,-3.7754,-3.8086,-3.8301,-3.8552,-3.8611,-3.8611,-3.8611,-3.8611,-3.8611,-3.8611,-3.8611,-3.8611,-3.8611,-3.8611,-3.8611,-3.8611,-3.8611,-3.8611,-3.8611,-3.8398,-3.832,-3.8591,-3.8379,-3.834,-3.8591,-3.8611,-3.8611,-3.8611,-3.8611,-3.8611,-3.8611,-3.8611,-3.8611,-3.8611,-3.8611,-3.8611,-3.8611,-3.8826,-3.8887,-3.8887,-3.9551,-3.9332,-3.833,-3.7183,-3.5849,-1.822,-1.7871,-1.7835,-1.8344,0.0,-1.6664,0.0,0.0,0.0,-1.7168,-1.6898,-1.6918,-1.8416,-1.8164,-1.8223,-1.9628,-2.0117,-2.0684,-2.1621,-2.2771,-2.3688,-2.4098,-2.4293,-2.4531,-2.4809,-2.4769,-2.4922,-2.5425,-2.5386,-2.5406,-2.5581,-2.5659,-2.5693,-2.5693,-2.6537,-2.6986,-2.6986,-2.7871,-2.8301,-2.8301,-2.8301,-2.8555,-2.9062,-2.9442,-2.9872,-3.0351,-3.0723,-3.0898,-3.0957,-3.1846,-3.2198,-3.2257,-3.2715,-3.3125,-3.3476,-3.3938,-3.4336,-3.4766,-3.5234,-3.5664,-3.5982,-3.5982,-3.604,-3.6152,-3.625,-3.6797,-3.75,-3.793,-3.8301,-3.8611,-3.8611,-3.8611,-3.8611,-3.8611,-3.8611,-3.8611,-3.8611,-3.8611,-3.8611,-3.8611,-3.8611,-3.8611,-3.8611,-3.8611,-3.8611,-3.8611,-3.8611,-3.8611,-3.8611,-3.8611,-3.8611,-3.8611,-3.8611,-3.8611,-3.8611,-3.8611,-3.8611,-3.8611,-3.8611,-3.8611,-3.8611,-3.8611,-3.865,-3.8691,-3.9023,-3.9238,-3.9336,-3.9776,-3.9836,-3.947,-3.7126,-3.5823,-2.0351,-2.0762,0.0,0.0,-1.9299,-1.961,0.0,0.0,-1.6793,-1.5444,0.0,-1.5742,-1.6359,0.0,0.0,-1.7096,-1.8437,-1.9355,-1.9085,-1.9825,-2.1113,-2.3003,-2.3923,-2.4297,-2.3965,-2.3571,-2.3669,-2.4489,-2.4219,-2.4336,-2.5121,-2.5527,-2.5693,-2.5693,-2.6537,-2.6986,-2.6986,-2.7871,-2.8301,-2.8301,-2.8301,-2.8738,-2.952,-2.9579,-3.0048,-3.082,-3.0859,-3.0898,-3.0957,-3.1846,-3.2198,-3.2276,-3.3047,-3.3347,-3.3476,-3.3938,-3.4336,-3.4766,-3.5234,-3.5664,-3.5982,-3.5982,-3.6289,-3.6695,-3.7031,-3.748,-3.7949,-3.8379,-3.8571,-3.8611,-3.8611,-3.8611,-3.8611,-3.8611,-3.8611,-3.8611,-3.8611,-3.8611,-3.8611,-3.8611,-3.8611,-3.8611,-3.8611,-3.8611,-3.8611,-3.8611,-3.8611,-3.8611,-3.8611,-3.8611,-3.8611,-3.8611,-3.8611,-3.8611,-3.8611,-3.8611,-3.8611,-3.8611,-3.8611,-3.8611,-3.8611,-3.8611,-3.875,-3.9121,-3.918,-3.9394,-3.9824,-3.8724,-3.8176,-3.8139,-3.8192,-3.6602,0.0,0.0,0.0,0.0,0.0,0.0,-1.6832,0.0,-1.6113,0.0,0.0,0.0,0.0,0.0,0.0,0.0,-1.7311,-1.7893,-1.8205,-1.8557,-1.9512,-2.1426,-2.1523,-2.1758,-2.2638,-2.2969,-2.3496,-2.4332,-2.3767,-2.3887,-2.5024,-2.5278,-2.5469,-2.5674,-2.6537,-2.6986,-2.6986,-2.7871,-2.8301,-2.8301,-2.8301,-2.8777,-2.9598,-2.9598,-3.0087,-3.0898,-3.0898,-3.1035,-3.1309,-3.1944,-3.2335,-3.2598,-3.3184,-3.3386,-3.3496,-3.418,-3.4551,-3.4805,-3.5508,-3.5879,-3.6021,-3.6309,-3.6523,-3.6832,-3.7461,-3.7773,-3.8008,-3.8493,-3.8611,-3.8611,-3.8611,-3.8611,-3.8611,-3.8611,-3.8611,-3.8611,-3.8611,-3.8611,-3.8611,-3.8611,-3.8611,-3.8611,-3.8611,-3.8611,-3.8611,-3.8611,-3.8611,-3.8611,-3.8611,-3.8611,-3.8611,-3.8611,-3.8611,-3.8611,-3.8611,-3.8611,-3.8611,-3.8611,-3.8611,-3.8611,-3.8611,-3.8809,-3.9023,-3.9199,-3.9707,-3.9546,-3.8744,-3.8478,-3.7266,-3.5274,-3.5483,-3.4799,-2.1524,0.0,0.0,0.0,0.0,0.0,0.0,0.0,0.0,0.0,0.0,0.0,0.0,0.0,0.0,0.0,0.0,-1.7152,-1.7441,-1.7363,-1.793,-1.9686,-1.9647,-2.0098,0.0,-2.215,-2.2736,-2.3786,-2.3084,-2.3259,-2.4828,-2.5024,-2.5273,-2.5698,-2.6537,-2.6986,-2.6986,-2.7871,-2.8301,-2.8301,-2.8398,-2.8848,-2.9598,-2.9715,-3.0185,-3.0898,-3.0898,-3.1133,-3.1562,-3.2022,-3.2452,-3.2832,-3.323,-3.3496,-3.3691,-3.4434,-3.4707,-3.4824,-3.5723,-3.6094,-3.625,-3.6597,-3.6851,-3.7129,-3.7699,-3.8008,-3.8164,-3.8476,-3.8611,-3.8611,-3.8611,-3.8611,-3.8611,-3.8611,-3.8611,-3.8611,-3.8611,-3.8611,-3.8611,-3.8611,-3.8611,-3.8611,-3.8611,-3.8611,-3.8611,-3.8611,-3.8611,-3.8611,-3.8611,-3.8611,-3.8611,-3.8611,-3.8611,-3.8611,-3.8611,-3.8611,-3.8611,-3.8611,-3.8611,-3.8669,-3.8787,-3.9043,-3.9316,-3.9551,-4.0195,-3.9932,-3.8808,-3.8183,-3.6597,-3.4107,-3.3633,-3.3142,0.0,0.0,0.0,-2.0137,0.0,0.0,0.0,0.0,-1.7812,0.0,0.0,0.0,0.0,0.0,0.0,0.0,0.0,0.0,0.0,-1.5777,-1.6118,-1.7891,-1.9142,-2.041,0.0,-2.0762,-2.0723,-2.242,-2.1757,-2.2186,-2.4293,-2.4867,-2.5273,-2.5698,-2.6537,-2.6986,-2.6986,-2.7871,-2.8301,-2.8301,-2.8711,-2.9141,-2.9618,-3.0,-3.043,-3.0898,-3.0898,-3.1133,-3.1562,-3.2022,-3.2452,-3.2832,-3.323,-3.3691,-3.4134,-3.4531,-3.4707,-3.4824,-3.5723,-3.6289,-3.6695,-3.6695,-3.7226,-3.7855,-3.7874,-3.8223,-3.8591,-3.8611,-3.8611,-3.8611,-3.8611,-3.8611,-3.8611,-3.8611,-3.8611,-3.8611,-3.8611,-3.8611,-3.8611,-3.8611,-3.8611,-3.8611,-3.8611,-3.8611,-3.8611,-3.8611,-3.8611,-3.8611,-3.8611,-3.8611,-3.8611,-3.8611,-3.8611,-3.8611,-3.8611,-3.8611,-3.8611,-3.8611,-3.8611,-3.875,-3.916,-3.9199,-3.9609,-4.043,-4.0508,-4.0684,-4.1074,-3.7733,-3.6035,-3.5873,-3.4189,-3.25,0.0,0.0,-2.4238,-2.1661,0.0,0.0,0.0,0.0,0.0,0.0,0.0,0.0,0.0,0.0,0.0,0.0,0.0,0.0,0.0,-1.5005,-1.5083,-1.6559,-1.8088,-1.9122,-1.9297,-1.996,-2.0605,-2.1192,-2.0977,-2.1602,-2.3454,-2.3984,-2.4687,-2.5679,-2.6537,-2.7148,-2.7467,-2.8008,-2.8301,-2.8301,-2.8711,-2.9141,-2.9618,-3.0028,-3.0449,-3.0898,-3.0898,-3.1289,-3.1983,-3.214,-3.2578,-3.3223,-3.3359,-3.3691,-3.4153,-3.4551,-3.4902,-3.5234,-3.582,-3.6309,-3.6753,-3.6992,-3.7461,-3.7969,-3.8262,-3.8457,-3.8611,-3.8611,-3.8611,-3.8611,-3.8611,-3.8611,-3.8611,-3.8611,-3.8611,-3.8611,-3.8611,-3.8611,-3.8611,-3.8611,-3.8611,-3.8611,-3.8611,-3.8611,-3.8611,-3.8611,-3.8611,-3.8611,-3.8611,-3.8611,-3.8611,-3.8611,-3.8611,-3.8611,-3.8611,-3.8611,-3.8611,-3.8611,-3.8828,-3.9062,-3.9199,-3.9766,-4.0215,-4.0469,-4.0801,-4.0453,-3.9453,-3.7117,-3.5389,-3.4229,-3.2484,-3.1357,-2.4727,-2.5102,0.0,-2.3088,-2.215,0.0,-1.9022,0.0,-1.9649,0.0,0.0,0.0,0.0,0.0,0.0,0.0,0.0,0.0,0.0,-1.4596,-1.4713,-1.5737,-1.7074,-1.8205,-1.8848,-1.9256,-1.992,-2.0977,-2.0332,-2.084,0.0,-2.3555,-2.4394,-2.5654,-2.6537,-2.7226,-2.7682,-2.8112,-2.8359,-2.8516,-2.8945,-2.9375,-2.9833,-3.0234,-3.0605,-3.0898,-3.1055,-3.1523,-3.2218,-3.2355,-3.2793,-3.3406,-3.3594,-3.3906,-3.4336,-3.459,-3.5098,-3.5684,-3.6113,-3.6523,-3.6988,-3.7383,-3.7812,-3.8203,-3.8496,-3.8611,-3.8611,-3.8611,-3.8611,-3.8611,-3.8611,-3.8611,-3.8611,-3.8611,-3.8611,-3.8611,-3.8611,-3.8611,-3.8611,-3.8611,-3.8611,-3.8611,-3.8611,-3.8611,-3.8611,-3.8611,-3.8611,-3.8611,-3.8611,-3.8611,-3.8611,-3.8611,-3.8611,-3.8611,-3.8611,-3.8611,-3.8669,-3.8789,-3.9062,-3.9336,-3.9668,-4.0215,-4.0586,-4.0762,-4.1035,-4.0353,-3.8606,-3.6837,-3.5106,-3.3347,-3.1606,-3.0776]},{"header":{"parameterUnit":"m.s-1","parameterCategory":1,"la1":30.6,"la2":29.2853,"lo1":-89.7004,"lo2":-87.6739,"dy":0.0162,"dx":0.0183,"nx":112,"ny":82,"refTime":"2026-02-27T12:00:00:Z","depth":0,"parameterNumber":3,"parameterNumberName":"V-component_of_WINDS"},"data":[0.0,0.0,0.0,0.0,0.0,0.0,0.0,0.0,0.0,0.0,0.0,0.0,0.0,0.0,0.0,0.0,0.0,0.0,0.0,0.0,0.0,0.0,0.0,0.0,0.0,0.0,0.0,0.0,0.0,0.0,0.0,0.0,0.0,0.0,0.0,0.0,0.0,0.0,0.0,0.0,0.0,0.0,0.0,0.0,0.0,0.0,0.0,0.0,0.0,0.0,0.0,0.0,0.0,0.0,0.0,0.0,0.0,0.0,0.0,0.0,0.0,0.0,0.0,0.0,0.0,0.0,0.0,0.0,0.0,0.0,0.0,0.0,0.0,0.0,0.0,0.0,0.0,0.0,0.0,0.0,0.0,0.0,0.0,0.0,0.0,0.0,0.0,0.0,0.0,0.0,2.3654,2.6614,3.0206,3.2379,3.2379,3.2169,3.0459,2.6795,0.0,0.0,0.0,0.0,0.0,0.0,0.0,0.0,0.0,0.0,0.0,0.0,0.0,0.0,0.0,0.0,0.0,0.0,0.0,0.0,0.0,0.0,0.0,0.0,0.0,0.0,0.0,0.0,0.0,0.0,0.0,0.0,0.0,0.0,0.0,0.0,0.0,0.0,0.0,0.0,0.0,0.0,0.0,0.0,0.0,0.0,0.0,0.0,0.0,0.0,0.0,0.0,0.0,0.0,0.0,0.0,0.0,0.0,0.0,0.0,0.0,0.0,0.0,0.0,0.0,0.0,0.0,0.0,0.0,0.0,0.0,0.0,0.0,0.0,0.0,0.0,0.0,0.0,0.0,0.0,0.0,0.0,0.0,0.0,0.0,0.0,0.0,0.0,0.0,0.0,0.0,0.0,0.0,0.0,0.0,0.0,0.0,0.0,0.0,0.0,0.0,0.0,0.0,0.0,2.4612,2.9742,3.2053,3.3212,3.3212,3.1988,3.0351,2.8346,0.0,0.0,0.0,0.0,0.0,0.0,0.0,0.0,0.0,0.0,0.0,0.0,0.0,0.0,0.0,0.0,0.0,0.0,0.0,0.0,0.0,0.0,0.0,0.0,0.0,0.0,0.0,0.0,0.0,0.0,0.0,0.0,0.0,0.0,0.0,0.0,0.0,0.0,0.0,0.0,0.0,0.0,0.0,0.0,0.0,0.0,0.0,0.0,0.0,0.0,0.0,0.0,0.0,0.0,0.0,0.0,0.0,0.0,0.0,0.0,0.0,0.0,0.0,0.0,0.0,0.0,0.0,0.0,0.0,0.0,0.0,0.0,0.0,0.0,0.0,0.0,0.0,0.0,0.0,0.0,0.0,0.0,0.0,0.0,0.0,0.0,0.0,0.0,0.0,0.0,0.0,0.0,0.0,0.0,0.0,0.0,0.0,0.0,0.0,0.0,0.0,0.0,0.0,2.4254,2.6904,3.1191,3.2705,3.3393,3.3393,3.1951,3.0314,2.8708,2.5926,0.0,0.0,0.0,0.0,0.0,0.0,0.0,0.0,0.0,0.0,0.0,0.0,0.0,0.0,0.0,0.0,0.0,0.0,0.0,0.0,0.0,0.0,0.0,0.0,0.0,0.0,0.0,0.0,0.0,0.0,0.0,0.0,0.0,0.0,0.0,0.0,0.0,0.0,0.0,0.0,0.0,0.0,0.0,0.0,0.0,0.0,0.0,0.0,0.0,0.0,0.0,0.0,0.0,0.0,0.0,0.0,0.0,0.0,0.0,0.0,0.0,0.0,0.0,0.0,0.0,0.0,0.0,0.0,0.0,0.0,0.0,0.0,0.0,0.0,0.0,0.0,0.0,0.0,0.0,0.0,0.0,0.0,0.0,0.0,0.0,0.0,0.0,0.0,0.0,0.0,0.0,0.0,0.0,0.0,0.0,0.0,0.0,0.0,0.0,0.0,0.0,0.0,2.7266,2.9264,3.1908,3.2922,3.3393,3.3393,3.1734,3.0097,2.8708,2.5419,0.0,0.0,0.0,0.0,0.0,0.0,0.0,0.0,0.0,0.0,0.0,0.0,0.0,0.0,0.0,0.0,0.0,0.0,0.0,0.0,0.0,0.0,0.0,0.0,0.0,0.0,0.0,0.0,0.0,0.0,0.0,0.0,0.0,0.0,0.0,0.0,0.0,0.0,0.0,0.0,0.0,0.0,0.0,0.0,0.0,0.0,0.0,0.0,0.0,0.0,0.0,0.0,0.0,0.0,0.0,0.0,0.0,0.0,0.0,0.0,0.0,0.0,0.0,0.0,0.0,0.0,0.0,0.0,0.0,0.0,0.0,0.0,0.0,0.0,0.0,0.0,0.0,0.0,0.0,0.0,0.0,0.0,0.0,0.0,0.0,0.0,0.0,0.0,0.0,0.0,0.0,0.0,0.0,0.0,0.0,0.0,0.0,0.0,0.0,0.0,0.0,0.0,2.8401,3.1118,3.2089,3.2922,3.3393,3.3393,3.1227,2.9524,2.8636,2.4943,0.0,0.0,0.0,0.0,0.0,0.0,0.0,0.0,0.0,0.0,0.0,0.0,0.0,0.0,0.0,0.0,0.0,0.0,0.0,0.0,0.0,0.0,0.0,0.0,0.0,0.0,0.0,0.0,0.0,0.0,0.0,0.0,0.0,0.0,0.0,0.0,0.0,0.0,0.0,0.0,0.0,0.0,0.0,0.0,0.0,0.0,0.0,0.0,0.0,0.0,0.0,0.0,0.0,0.0,0.0,0.0,0.0,0.0,0.0,0.0,0.0,0.0,0.0,0.0,0.0,0.0,0.0,0.0,0.0,0.0,0.0,0.0,0.0,0.0,0.0,0.0,0.0,0.0,0.0,0.0,0.0,0.0,0.0,0.0,0.0,0.0,0.0,0.0,0.0,0.0,0.0,0.0,0.0,0.0,0.0,0.0,0.0,0.0,0.0,0.0,0.0,0.0,2.7954,3.038,3.2705,3.3212,3.3393,3.3393,3.1662,2.9778,2.7984,0.0,0.0,0.0,0.0,0.0,0.0,0.0,0.0,0.0,0.0,0.0,0.0,0.0,0.0,0.0,0.0,0.0,0.0,0.0,0.0,0.0,0.0,0.0,0.0,0.0,0.0,0.0,0.0,0.0,0.0,0.0,0.0,0.0,0.0,0.0,0.0,0.0,0.0,0.0,0.0,0.0,0.0,0.0,0.0,0.0,0.0,0.0,0.0,0.0,0.0,0.0,0.0,0.0,0.0,0.0,0.0,0.0,0.0,0.0,0.0,0.0,0.0,0.0,0.0,0.0,0.0,0.0,0.0,0.0,0.0,0.0,0.0,0.0,0.0,0.0,0.0,0.0,0.0,0.0,0.0,0.0,0.0,0.0,0.0,0.0,0.0,0.0,0.0,0.0,0.0,0.0,0.0,0.0,0.0,0.0,0.0,0.0,0.0,0.0,0.0,0.0,0.0,2.5772,2.8063,3.0308,3.2777,3.3031,3.2922,3.2669,3.1148,2.9337,2.7152,0.0,0.0,0.0,0.0,0.0,0.0,0.0,0.0,0.0,0.0,0.0,0.0,0.0,0.0,0.0,0.0,0.0,0.0,0.0,0.0,0.0,0.0,0.0,0.0,0.0,0.0,0.0,0.0,0.0,0.0,0.0,0.0,0.0,0.0,0.0,0.0,0.0,0.0,0.0,0.0,0.0,0.0,0.0,0.0,0.0,0.0,0.0,0.0,0.0,0.0,0.0,0.0,0.0,0.0,0.0,0.0,0.0,0.0,0.0,0.0,0.0,0.0,0.0,0.0,0.0,0.0,0.0,0.0,0.0,0.0,0.0,0.0,0.0,0.0,0.0,0.0,0.0,0.0,0.0,0.0,0.0,0.0,0.0,0.0,0.0,0.0,0.0,0.0,0.0,0.0,0.0,0.0,0.0,0.0,0.0,0.0,0.0,0.0,0.0,0.0,0.0,0.0,2.5844,2.9011,3.1299,3.2089,3.2205,3.1879,3.1082,2.9547,2.7912,0.0,0.0,0.0,0.0,0.0,0.0,0.0,0.0,0.0,0.0,0.0,0.0,0.0,0.0,0.0,0.0,0.0,0.0,0.0,0.0,0.0,0.0,0.0,0.0,0.0,0.0,0.0,0.0,0.0,0.0,0.0,0.0,0.0,0.0,0.0,0.0,0.0,0.0,0.0,0.0,0.0,0.0,0.0,0.0,0.0,0.0,0.0,0.0,0.0,0.0,0.0,0.0,0.0,0.0,0.0,0.0,0.0,0.0,0.0,0.0,0.0,0.0,0.0,0.0,0.0,0.0,0.0,0.0,0.0,0.0,0.0,0.0,0.0,0.0,0.0,0.0,0.0,0.0,0.0,0.0,0.0,0.0,0.0,0.0,0.0,0.0,0.0,0.0,0.0,0.0,0.0,0.0,0.0,0.0,0.0,0.0,0.0,0.0,0.0,0.0,0.0,0.0,0.0,2.5096,2.8148,3.0466,3.1263,3.1336,3.1263,3.1009,3.0031,2.8293,2.5534,0.0,0.0,0.0,0.0,0.0,0.0,0.0,0.0,0.0,0.0,0.0,0.0,0.0,0.0,0.0,0.0,0.0,0.0,0.0,0.0,0.0,0.0,0.0,0.0,0.0,0.0,0.0,0.0,0.0,0.0,0.0,0.0,0.0,0.0,0.0,0.0,0.0,0.0,0.0,0.0,0.0,0.0,0.0,0.0,0.0,0.0,0.0,0.0,0.0,0.0,0.0,0.0,0.0,0.0,0.0,0.0,0.0,0.0,0.0,0.0,0.0,0.0,0.0,0.0,0.0,0.0,0.0,0.0,0.0,0.0,0.0,0.0,0.0,0.0,0.0,0.0,0.0,0.0,0.0,0.0,0.0,0.0,0.0,0.0,0.0,0.0,0.0,0.0,0.0,0.0,0.0,0.0,0.0,0.0,0.0,0.0,0.0,0.0,0.0,0.0,0.0,0.0,2.4735,2.8075,3.0466,3.0937,3.1009,3.0865,3.0545,2.9778,2.796,2.4701,0.0,0.0,0.0,0.0,0.0,0.0,0.0,0.0,0.0,0.0,0.0,0.0,0.0,0.0,0.0,0.0,0.0,0.0,0.0,0.0,0.0,0.0,0.0,0.0,0.0,0.0,0.0,0.0,0.0,0.0,0.0,0.0,0.0,0.0,0.0,0.0,0.0,0.0,0.0,0.0,0.0,0.0,0.0,0.0,0.0,0.0,0.0,0.0,0.0,0.0,0.0,0.0,0.0,0.0,0.0,0.0,0.0,0.0,0.0,0.0,0.0,0.0,0.0,0.0,0.0,0.0,0.0,0.0,0.0,0.0,0.0,0.0,0.0,0.0,0.0,0.0,0.0,0.0,0.0,0.0,0.0,0.0,0.0,0.0,0.0,0.0,0.0,0.0,0.0,0.0,0.0,0.0,0.0,0.0,0.0,0.0,0.0,0.0,0.0,0.0,0.0,0.0,2.4838,2.851,3.0937,3.0973,3.1009,3.069,2.9857,2.9113,2.7375,2.4235,0.0,0.0,0.0,0.0,0.0,0.0,0.0,0.0,0.0,0.0,0.0,0.0,0.0,0.0,0.0,0.0,0.0,0.0,0.0,0.0,0.0,0.0,0.0,0.0,0.0,0.0,0.0,0.0,0.0,0.0,0.0,0.0,0.0,0.0,0.0,0.0,0.0,0.0,0.0,0.0,0.0,0.0,0.0,0.0,0.0,0.0,0.0,0.0,0.0,0.0,0.0,0.0,0.0,0.0,0.0,0.0,0.0,0.0,0.0,0.0,2.412,2.2733,0.0,0.0,0.0,0.0,0.0,0.0,0.0,0.0,0.0,0.0,0.0,0.0,0.0,0.0,0.0,0.0,0.0,0.0,0.0,0.0,0.0,0.0,0.0,0.0,0.0,0.0,0.0,0.0,0.0,0.0,0.0,0.0,0.0,0.0,0.0,0.0,0.0,0.0,0.0,0.0,2.5597,2.8365,3.0292,3.0937,3.1009,3.069,2.9857,2.9633,2.8437,2.586,2.3826,0.0,0.0,0.0,0.0,0.0,0.0,0.0,0.0,0.0,0.0,0.0,0.0,0.0,0.0,0.0,0.0,0.0,0.0,0.0,0.0,0.0,0.0,0.0,0.0,0.0,0.0,0.0,0.0,0.0,0.0,0.0,0.0,0.0,0.0,0.0,0.0,0.0,0.0,0.0,0.0,0.0,0.0,0.0,0.0,0.0,0.0,0.0,0.0,0.0,0.0,0.0,0.0,0.0,0.0,0.0,0.0,0.0,0.0,0.0,2.7325,2.5939,0.0,0.0,0.0,0.0,0.0,0.0,0.0,0.0,0.0,0.0,0.0,0.0,0.0,0.0,0.0,0.0,0.0,0.0,0.0,0.0,0.0,0.0,0.0,0.0,0.0,0.0,0.0,0.0,0.0,0.0,0.0,0.0,0.0,0.0,0.0,0.0,0.0,0.0,0.0,0.0,2.5697,2.8549,3.0683,3.148,3.1589,3.1408,3.0973,3.0249,2.8945,2.6904,2.5275,0.0,0.0,0.0,0.0,0.0,0.0,0.0,0.0,0.0,0.0,0.0,0.0,0.0,0.0,0.0,0.0,0.0,0.0,0.0,0.0,0.0,0.0,0.0,0.0,0.0,0.0,0.0,0.0,0.0,0.0,0.0,0.0,0.0,0.0,0.0,0.0,0.0,0.0,0.0,0.0,0.0,0.0,0.0,0.0,0.0,0.0,0.0,0.0,0.0,0.0,0.0,0.0,0.0,3.1708,3.251,3.278,3.3897,3.4438,3.4404,3.1282,3.0234,3.0504,2.8518,0.0,0.0,0.0,0.0,0.0,0.0,0.0,0.0,0.0,0.0,0.0,0.0,0.0,0.0,0.0,0.0,0.0,0.0,0.0,0.0,0.0,0.0,0.0,0.0,2.9456,2.9059,2.3857,0.0,0.0,0.0,0.0,0.0,0.0,0.0,0.0,0.0,0.0,0.0,2.622,2.9172,3.1454,3.2299,3.2415,3.2343,3.2205,3.0973,2.9597,2.8135,2.7013,2.5311,0.0,0.0,0.0,0.0,0.0,0.0,0.0,0.0,0.0,0.0,0.0,0.0,0.0,0.0,0.0,0.0,0.0,0.0,0.0,0.0,0.0,0.0,0.0,0.0,0.0,0.0,0.0,0.0,0.0,0.0,0.0,0.0,2.3079,2.3831,0.0,0.0,0.0,0.0,0.0,0.0,0.0,0.0,0.0,0.0,0.0,0.0,0.0,2.9939,3.1413,3.2791,3.4246,3.578,3.6603,3.7674,3.8925,3.8464,3.8611,3.9199,3.8679,0.0,3.2882,3.1945,0.0,0.0,0.0,0.0,0.0,0.0,0.0,0.0,0.0,0.0,0.0,0.0,0.0,0.0,0.0,0.0,0.0,0.0,0.0,0.0,0.0,0.0,3.1403,3.0886,3.1403,3.1437,0.0,2.7055,2.4905,2.3356,2.1983,0.0,0.0,0.0,0.0,0.0,0.0,0.0,2.8901,3.0607,3.1963,3.311,3.3248,3.2958,3.2277,3.2024,3.1517,3.0575,2.8461,2.7369,2.7658,2.4473,0.0,0.0,0.0,0.0,0.0,0.0,0.0,0.0,0.0,0.0,0.0,0.0,0.0,0.0,0.0,0.0,0.0,0.0,0.0,0.0,0.0,0.0,0.0,0.0,0.0,0.0,0.0,0.0,0.0,2.303,2.4763,2.5075,2.5481,2.5278,0.0,0.0,0.0,0.0,0.0,0.0,0.0,0.0,0.0,3.1427,3.2601,3.392,3.5419,3.6513,3.7787,3.9288,3.9614,4.0312,4.1339,4.1001,4.1014,4.1352,4.1352,3.9986,3.764,3.5633,3.3501,3.136,0.0,0.0,0.0,0.0,2.977,2.9997,3.2138,3.2341,3.1698,3.1529,0.0,0.0,0.0,0.0,0.0,0.0,0.0,0.0,0.0,0.0,3.4201,3.4313,3.4923,3.5148,3.41,3.2148,2.9551,0.0,2.5585,2.4838,2.182,0.0,0.0,0.0,0.0,2.6816,2.9618,3.1123,3.2299,3.3306,3.3393,3.3248,3.2886,3.2451,3.2053,3.1698,3.0242,2.9185,2.8629,2.6934,2.5378,0.0,0.0,0.0,0.0,0.0,0.0,0.0,0.0,0.0,0.0,0.0,0.0,0.0,0.0,0.0,0.0,0.0,0.0,0.0,0.0,0.0,0.0,0.0,0.0,0.0,0.0,0.0,0.0,2.4924,2.6488,2.6488,2.7435,2.7478,0.0,0.0,0.0,0.0,0.0,0.0,3.1417,3.2205,3.34,3.5047,3.6355,3.7674,3.9005,3.958,4.0493,4.1779,4.1982,4.2455,4.3166,4.3382,4.345,4.345,4.345,4.3031,4.2117,3.9153,3.6705,3.4709,3.3626,3.2747,3.2229,3.3332,3.3501,3.3603,3.6378,3.6975,3.6355,3.5611,3.4641,3.3231,3.0606,0.0,0.0,0.0,0.0,3.2679,3.4157,3.5509,3.6558,3.6987,3.7652,3.799,3.7257,3.6175,3.3987,0.0,2.9002,2.8408,2.4666,0.0,0.0,0.0,2.6536,2.8459,3.0642,3.1931,3.2944,3.3741,3.3836,3.3867,3.3994,3.3284,3.2814,3.2814,3.1879,3.0785,2.9577,2.9324,2.828,2.6264,0.0,0.0,0.0,0.0,0.0,0.0,0.0,0.0,0.0,0.0,0.0,0.0,0.0,0.0,0.0,0.0,0.0,0.0,0.0,0.0,0.0,0.0,0.0,0.0,0.0,0.0,0.0,0.0,0.0,2.884,3.0736,0.0,0.0,0.0,0.0,3.0929,3.1674,3.3028,3.5194,3.6062,3.7506,3.9706,4.0493,4.1305,4.2063,4.213,4.2523,4.3288,4.4059,4.4838,4.5568,4.6244,4.6563,4.6563,4.6563,4.6143,4.5229,4.2219,4.0087,3.8713,3.8645,3.8159,3.7505,3.7572,3.8024,3.8633,3.8802,3.8882,3.9051,4.0392,3.9365,3.7313,3.5712,3.4224,0.0,0.0,3.5329,3.5735,3.7268,3.8261,3.8667,3.799,3.8396,3.8734,3.799,3.7775,3.6794,0.0,3.1437,2.9944,2.9566,0.0,2.9167,2.9921,3.0671,3.1626,3.2982,3.3597,3.4172,3.493,3.5007,3.5186,3.5635,3.4943,3.4472,3.4472,3.2995,3.2089,3.2017,3.1299,3.0466,2.9567,2.7236,0.0,0.0,0.0,0.0,0.0,0.0,0.0,0.0,0.0,0.0,0.0,0.0,0.0,0.0,0.0,0.0,0.0,0.0,0.0,0.0,0.0,0.0,0.0,0.0,0.0,0.0,0.0,0.0,3.1765,3.3806,0.0,3.2036,3.2939,3.3751,3.4021,3.5171,3.6671,3.8396,3.9208,4.0202,4.1487,4.2219,4.2997,4.3755,4.4248,4.4857,4.5602,4.5887,4.6157,4.6413,4.6699,4.68,4.68,4.68,4.665,4.6312,4.5263,4.3639,4.1732,4.0798,4.0257,4.002,4.002,4.0189,4.0493,4.098,4.1115,4.1149,4.117,4.0345,3.9196,3.8667,3.8137,3.7934,3.8925,3.9196,3.9432,4.046,4.0933,4.1081,4.0798,4.0561,4.0358,4.0087,3.9276,3.8294,3.7212,3.5149,3.3104,3.1645,3.1103,3.0854,3.0847,3.157,3.2491,3.3611,3.4296,3.4818,3.5063,3.5371,3.564,3.5796,3.5051,3.4617,3.4617,3.3574,3.2741,3.2234,3.1908,3.1372,3.0581,2.9234,2.7097,0.0,0.0,0.0,0.0,0.0,0.0,0.0,0.0,0.0,0.0,0.0,0.0,0.0,0.0,0.0,0.0,0.0,0.0,0.0,0.0,0.0,0.0,0.0,0.0,0.0,3.1166,3.34,3.4438,3.6547,3.7122,3.5103,3.649,3.7505,3.7505,3.8667,3.9817,4.0777,4.1542,4.2286,4.3044,4.3809,4.4553,4.5311,4.5838,4.6312,4.68,4.7056,4.7158,4.7192,4.7428,4.753,4.753,4.753,4.753,4.753,4.7259,4.6264,4.4809,4.3572,4.3098,4.3098,4.3098,4.3098,4.3166,4.3653,4.3822,4.3721,4.2963,4.2219,4.1576,4.1305,4.1048,4.1014,4.1732,4.1935,4.2036,4.2557,4.2658,4.2625,4.2367,4.1875,4.1497,4.1497,4.0492,3.9623,3.9623,3.7824,3.5846,3.4318,3.3929,3.3684,3.3311,3.3573,3.4047,3.4729,3.5015,3.5216,3.5357,3.5794,3.6171,3.6289,3.5768,3.5269,3.5015,3.4255,3.3429,3.2632,3.2596,3.2343,3.1806,3.0502,2.8365,2.5389,0.0,0.0,0.0,0.0,0.0,0.0,0.0,0.0,0.0,0.0,0.0,0.0,0.0,0.0,0.0,0.0,0.0,0.0,0.0,0.0,0.0,0.0,0.0,3.2327,3.367,3.5227,3.6728,3.886,3.9626,3.8181,4.0007,4.1271,4.1238,4.1914,4.2367,4.2367,4.3051,4.3842,4.4635,4.5365,4.6075,4.6834,4.6834,4.6868,4.6887,4.7582,4.7921,4.7954,4.8665,4.9018,4.9018,4.9018,4.9018,4.8951,4.8225,4.7921,4.7853,4.709,4.68,4.6766,4.6766,4.6766,4.6733,4.6733,4.6766,4.665,4.594,4.5229,4.4533,4.3727,4.2997,4.2591,4.3321,4.349,4.349,4.349,4.3457,4.3254,4.2523,4.2247,4.2139,4.2139,4.1473,4.0829,4.0829,3.9312,3.793,3.7754,3.7684,3.7648,3.7526,3.6886,0.0,3.6418,3.5805,3.5509,3.5887,3.6381,3.6874,3.725,3.7072,3.6608,3.5832,3.5015,3.4218,3.3465,3.3429,3.3429,3.3429,3.1082,2.8691,2.6325,0.0,0.0,0.0,0.0,0.0,0.0,0.0,0.0,0.0,0.0,0.0,0.0,0.0,0.0,0.0,0.0,0.0,0.0,0.0,0.0,0.0,3.1471,3.3085,3.3085,3.6242,3.8725,3.9131,4.1136,4.2117,4.117,4.2104,4.2577,4.2049,4.2692,4.3335,4.3924,4.4654,4.5399,4.6157,4.638,4.6853,4.7582,4.7582,4.7868,4.8409,4.8612,4.8698,4.8698,4.8917,4.9018,4.9018,4.9018,4.9018,4.8984,4.8781,4.8698,4.8563,4.7293,4.6481,4.6007,4.6007,4.5669,4.521,4.521,4.5548,4.5974,4.5771,4.5906,4.6157,4.594,4.5703,4.5616,4.5805,4.55,4.508,4.508,4.4654,4.4228,4.4025,4.3477,4.303,4.303,4.2348,4.1749,4.1749,4.0815,3.9647,3.8535,3.7757,3.7315,3.7498,3.7235,0.0,3.7196,3.6896,3.6683,3.6694,3.6717,3.6815,3.7113,3.6167,3.5546,3.5575,3.4403,3.3893,3.4255,3.4255,3.4255,3.4255,3.2451,3.0647,0.0,0.0,0.0,0.0,0.0,0.0,0.0,0.0,0.0,0.0,0.0,0.0,0.0,0.0,0.0,0.0,0.0,0.0,0.0,0.0,0.0,0.0,3.4878,3.6659,3.6659,3.8633,4.0574,4.1826,4.2828,4.3355,4.3281,4.3639,4.3842,4.3741,4.4099,4.4722,4.5481,4.592,4.6515,4.7259,4.7259,4.7616,4.836,4.836,4.8563,4.9018,4.9018,4.9018,4.9018,4.9018,4.9018,4.9018,4.9018,4.9018,4.9018,4.9018,4.9018,0.0,0.0,0.0,0.0,0.0,4.6819,4.6394,4.6075,4.6278,4.6568,4.6278,4.6447,4.68,4.68,4.68,4.68,4.68,4.6481,4.6143,4.6143,4.5838,4.5432,4.5023,4.4589,4.4136,4.3763,4.304,4.2467,4.2411,4.1726,0.0,3.9941,3.8836,3.8171,3.8312,3.7956,3.7727,3.7769,3.7434,3.7119,3.7049,3.7148,3.7192,3.7194,3.6712,0.0,0.0,0.0,3.495,3.5088,3.5088,0.0,0.0,0.0,0.0,0.0,0.0,0.0,0.0,2.9119,2.9113,0.0,0.0,0.0,0.0,0.0,0.0,0.0,0.0,0.0,0.0,0.0,0.0,0.0,0.0,0.0,0.0,3.8497,4.1305,4.1542,4.1022,4.1563,4.4161,4.3978,4.393,4.4635,4.4804,4.5108,4.5771,4.5838,4.6143,4.6887,4.6921,0.0,0.0,0.0,4.8326,4.8984,4.9018,4.9018,4.9018,4.9086,4.912,4.912,4.9221,4.9255,4.9255,4.9255,4.9221,4.912,4.912,4.912,4.912,4.8951,4.8951,4.8984,4.8917,4.8951,4.8883,4.8157,0.0,0.0,4.7056,4.6853,4.6921,4.6834,4.68,4.6834,4.6902,4.6853,4.6834,4.6887,4.6853,4.6587,4.5751,4.5568,4.5336,4.4423,4.3724,4.3165,4.2975,4.2299,4.1743,4.1555,4.0458,3.9621,3.9621,3.8871,3.8315,3.8315,3.7698,3.7247,3.7222,0.0,0.0,3.7362,3.7946,3.7837,3.6799,3.6875,3.6653,3.5957,3.6029,3.6065,3.6065,3.6065,3.6065,3.6065,3.6878,3.7321,3.7285,3.2828,3.2314,0.0,0.0,0.0,0.0,0.0,0.0,0.0,0.0,0.0,0.0,0.0,0.0,0.0,0.0,0.0,3.7753,3.9851,4.1847,4.3687,4.3822,4.3721,4.3626,4.4573,4.5331,4.5466,4.6007,4.6413,4.6583,4.6597,4.6921,4.765,4.7684,4.8022,4.8766,4.8781,4.8849,4.9018,4.9018,4.9018,4.9018,4.9593,0.0,4.9898,5.0491,5.0761,5.0761,5.0761,5.0439,4.988,4.988,4.988,4.9763,4.8563,4.8462,4.8951,4.8326,4.8496,4.8883,4.8157,4.8293,4.8578,4.7225,4.7192,4.7582,4.6989,4.68,0.0,4.7515,4.7259,4.6921,4.7515,4.7259,4.6752,4.6587,4.6539,4.6258,4.5341,4.4955,4.457,4.3827,4.2964,4.2332,4.2289,4.1138,4.0237,4.0237,3.9594,3.9083,3.9083,3.8544,3.8092,3.7996,3.7657,3.7437,3.7513,3.7687,3.7471,3.6802,3.6818,3.6824,3.6769,3.7385,3.7748,3.7748,3.7748,3.7748,3.7748,3.8544,3.9224,3.9759,3.7603,3.7277,0.0,0.0,0.0,0.0,0.0,0.0,0.0,0.0,0.0,0.0,0.0,3.2195,3.3717,0.0,3.8587,4.0832,4.2489,4.3842,4.4993,4.5481,4.5413,4.464,4.5568,4.6244,4.6244,4.6583,4.6955,4.7327,4.7361,4.765,4.8394,4.8462,4.8597,4.8984,4.9018,4.9018,4.9018,4.9357,4.956,4.956,5.0304,5.0642,5.0676,5.1032,5.1201,5.1201,5.1201,5.0998,5.0642,5.0642,5.0439,5.0049,4.9289,4.9442,5.0051,4.9679,4.9781,4.9984,4.9255,4.9255,4.9357,4.8274,4.8409,4.8951,4.8545,4.8714,4.8917,4.8563,4.8206,4.7902,4.7887,4.7616,4.7316,4.715,4.6877,4.6357,4.5366,4.4886,4.4503,4.3994,4.3525,4.3186,4.305,4.2156,4.1342,4.0945,4.058,4.023,3.9912,3.9601,3.9216,3.8805,3.8492,3.8261,3.8173,3.8286,3.8424,3.8499,3.8555,3.8641,3.8753,3.9152,3.9333,3.9333,3.9767,3.9948,3.9948,4.1144,4.194,4.2293,4.1904,4.1769,0.0,0.0,0.0,0.0,0.0,0.0,0.0,2.9084,2.9954,3.2239,3.3897,3.5611,3.791,3.9669,4.1394,4.3321,4.479,4.5771,4.5906,4.6549,4.6752,4.6007,4.6549,4.7022,4.7022,4.7124,4.7462,4.8056,4.8124,4.836,4.8984,4.9018,4.9018,4.9018,4.9154,4.9221,4.9221,4.9932,5.0304,5.0304,5.1066,5.1404,5.1404,5.1573,5.1641,5.1641,5.1472,5.1404,5.1404,5.1269,5.0947,5.0523,5.0523,5.098,5.1573,5.1133,5.1066,5.1133,5.0507,5.0304,5.0202,4.9458,4.9627,5.0067,4.9932,5.0304,5.0558,4.9526,4.9221,4.9086,4.8462,4.8296,4.8152,4.7587,4.7081,4.6391,4.5175,4.4616,4.4206,4.3883,4.3853,4.3795,4.3628,4.3102,4.2454,4.1726,4.1494,4.121,4.066,4.0594,4.0362,3.9766,3.958,3.9461,3.9336,3.9537,4.0,4.0824,4.0775,4.0797,4.0944,4.0953,4.1035,4.1207,4.1859,4.2248,4.2402,4.3715,4.4486,4.4802,4.5454,4.5417,2.961,2.7681,2.7139,2.9016,2.9025,3.0016,0.0,3.5645,3.5363,3.7652,3.9309,4.0244,3.9906,4.1583,4.3355,4.4296,4.5162,4.594,4.6583,4.7327,4.7481,4.6752,4.7327,4.7785,4.7785,4.8376,4.8781,4.8883,4.8883,4.8917,4.9018,4.9018,4.9018,4.9018,4.9627,4.9981,4.9981,5.071,5.1066,5.11,5.181,5.2198,5.2198,5.2909,5.3247,5.3213,5.2503,5.2198,5.2131,5.1472,5.1539,5.2063,5.2063,5.2536,5.301,5.098,5.0642,5.1201,5.11,5.1066,5.0964,5.0202,5.0049,4.9981,4.9323,4.9187,4.9357,4.983,4.9981,4.9981,4.988,4.9754,4.9324,4.7977,4.7576,4.7014,4.5354,4.5046,4.4794,4.3835,4.3628,4.3628,4.3613,4.3532,4.3249,4.2487,4.1825,4.1361,4.1295,4.1295,4.1262,4.1163,4.0627,4.0608,4.1472,4.1474,4.1928,4.3135,4.2456,4.2153,4.253,4.2539,4.2922,4.3679,4.3788,4.4186,4.491,4.5091,4.5888,4.729,4.7399,4.7363,3.2994,3.2036,3.1891,3.1992,3.278,3.4324,3.7234,3.8058,3.8599,3.9986,4.1813,4.3078,4.276,4.347,4.4499,4.5684,4.6157,4.6583,4.7346,4.7718,4.7616,4.6887,4.7056,4.7428,4.7853,4.8191,4.8529,4.8984,4.9018,4.9018,4.9018,4.9018,4.9187,4.9627,4.9947,5.0304,5.0744,5.1488,5.1844,5.186,5.2638,5.301,5.301,5.3348,5.3518,5.3484,5.3145,5.301,5.2976,5.2655,5.2435,5.23,5.23,5.2216,5.208,5.1589,5.1589,5.1776,5.1336,5.1201,5.1235,5.1352,5.1386,5.142,5.1589,5.1623,5.1488,5.0913,5.0744,5.0642,5.0218,5.0053,4.9823,4.8993,4.846,4.7762,4.64,4.5487,4.477,4.4321,4.3878,4.3598,4.3598,4.3598,4.3514,4.3168,4.2885,4.252,4.209,4.2057,4.1891,4.1461,4.1143,4.1249,4.1902,4.1988,4.2459,4.3544,4.3305,4.3382,4.395,4.3986,4.4221,4.4666,4.5206,4.5888,4.6721,4.7182,4.7989,4.9122,4.9122,4.9329,3.4709,3.4742,3.5137,3.4506,3.6028,3.7968,3.8903,4.0087,4.1217,4.1982,4.345,4.4615,4.4615,4.4615,4.5074,4.6563,4.68,4.7124,4.8056,4.8022,4.7616,4.6887,4.6616,4.6718,4.7244,4.765,4.8124,4.868,4.8883,4.9018,4.9018,4.9018,4.9323,5.0083,5.0304,5.0777,5.1505,5.2266,5.2638,5.2638,5.3213,5.3518,5.3518,5.3518,5.3518,5.3518,5.3518,5.3518,5.3518,5.3518,5.3179,5.2638,5.2638,5.2283,5.1877,5.2198,5.2164,5.1961,5.1607,5.137,5.1336,5.2063,5.2164,5.2131,5.2689,5.2875,5.2621,5.1505,5.1201,5.1032,5.027,5.0204,5.0177,4.9516,4.9133,4.855,4.7266,4.6171,4.5374,4.505,4.4589,4.4209,4.4209,4.4044,4.3911,4.3911,4.3746,4.34,4.287,4.2818,4.252,4.1792,4.1891,4.2109,4.232,4.2611,4.3182,4.4134,4.4292,4.4671,4.5329,4.5649,4.5885,4.6023,4.6968,4.7729,4.8351,4.8967,4.9655,5.0427,5.0427,5.097,3.366,3.3964,3.4889,3.631,3.8362,4.0379,4.186,4.2746,4.3524,4.433,4.4547,4.4615,4.4615,4.4615,4.5074,4.6563,4.68,4.7293,4.8748,4.836,4.7616,4.6887,4.6177,4.5737,4.5756,4.7041,4.7921,4.7921,4.8597,4.9018,4.9018,4.9018,4.9323,5.0083,5.0811,5.1505,5.2266,5.3078,5.345,5.345,5.3484,5.3518,5.3518,5.3518,5.3518,5.3518,5.3518,5.3518,5.3518,5.3518,5.3484,5.345,5.345,5.345,5.3348,5.257,5.186,5.1336,5.2029,5.181,5.1336,5.2063,5.181,5.1235,5.1269,5.1269,5.1269,5.1201,5.1201,5.1032,5.027,5.053,5.0603,4.9155,4.9342,4.9381,4.7572,4.7269,4.7002,4.5976,4.5764,4.5715,4.5715,4.5134,4.467,4.467,4.4044,4.3598,4.3565,4.3565,4.3267,4.2553,4.3102,4.344,4.3188,4.3836,4.4653,4.5648,4.5759,4.6024,4.6707,4.7605,4.8207,4.8398,4.9303,4.9859,5.0028,5.0064,5.0463,5.126,5.126,5.2118,3.4799,3.6502,3.8442,3.9491,4.1022,4.2544,4.3586,4.4384,4.4857,4.4635,4.4615,4.4432,4.391,4.3403,4.3721,4.5737,4.6075,4.6752,4.8714,4.836,4.7447,4.621,4.5838,4.5297,4.4268,4.5553,4.6838,4.7819,4.8124,4.8462,4.8984,4.9018,4.956,5.0811,5.1066,5.181,5.3078,5.3382,5.3518,5.3518,5.3518,5.3518,5.3518,5.3518,5.3518,5.3518,5.3518,5.3518,5.3518,5.3518,5.3518,5.3518,5.3518,5.3518,5.3484,5.3213,5.2942,5.2621,5.1844,5.1404,5.1336,5.2063,5.181,5.1302,5.1776,5.1573,5.1201,5.1201,5.1201,5.1133,5.0897,5.0966,5.0835,4.9633,4.9518,4.9488,4.8645,4.8098,4.7699,4.7337,4.6874,4.6378,4.5896,4.5598,4.5432,4.5432,4.4375,4.3598,4.3598,4.3598,4.3499,4.3282,4.3433,4.3573,4.3469,4.4438,4.5315,4.5952,4.6744,4.7521,4.827,4.871,4.9089,4.9422,4.9834,5.031,5.0898,5.0898,5.1296,5.2118,5.2625,5.3168,3.6456,3.8802,4.1115,4.2151,4.3335,4.437,4.4871,4.5176,4.5094,4.4316,4.3958,4.3552,4.2746,4.2002,4.2252,4.4505,4.5128,4.6075,4.8308,4.7954,4.7158,4.621,4.5872,4.5229,4.3944,4.4959,4.621,4.7413,4.7752,4.8225,4.8951,4.9018,4.9695,5.1167,5.1201,5.1945,5.3484,5.3518,5.3518,5.3518,5.3518,5.3518,5.3518,5.3518,5.3518,5.3518,5.3518,5.3518,5.3518,5.3518,5.3518,5.3518,5.3518,5.3518,5.3518,5.3518,5.3518,5.3382,5.2351,5.181,5.1674,5.2164,5.181,5.1302,5.1742,5.137,5.0811,5.0811,5.0626,5.0423,5.0423,5.0578,5.0549,4.9868,4.9838,4.9858,4.9327,4.8829,4.8414,4.8083,4.7636,4.7139,4.6676,4.6378,4.6079,4.5847,4.4986,4.4375,4.4375,4.4375,4.4375,4.4375,4.4375,4.4375,4.4375,4.509,4.5857,4.6583,4.7314,4.8145,4.9099,4.9506,4.9853,5.0194,5.0642,5.1178,5.1731,5.2021,5.2408,5.2951,5.3748,5.4255,3.8565,4.0811,4.2875,4.433,4.5196,4.5703,4.5703,4.5108,4.4296,4.3524,4.2692,4.188,4.1136,4.0447,4.0738,4.2882,4.4045,4.5413,4.7582,4.7327,4.6902,4.6853,4.6244,4.5534,4.477,4.5331,4.6075,4.6786,4.7481,4.8191,4.8951,4.9052,4.9729,5.1167,5.1235,5.1979,5.3484,5.3518,5.3518,5.3518,5.3518,5.3518,5.3518,5.3518,5.3518,5.3518,5.3518,5.3518,5.3518,5.3518,5.3518,5.3518,5.3518,5.3518,5.3518,5.3518,5.3518,5.3518,5.3518,5.301,5.2367,5.2367,5.186,5.1269,5.1269,5.0744,5.015,5.015,4.9661,4.912,4.912,4.9535,4.9963,4.9947,5.0305,5.0442,4.9626,4.9426,4.9127,4.8232,4.8034,4.8001,4.8001,4.7404,4.6709,4.6013,4.5929,4.5896,4.5814,4.5797,4.5797,4.5797,4.5797,4.5797,4.5797,4.5846,4.6364,4.7548,4.7554,4.8089,4.9241,5.0113,5.064,5.0809,5.1814,5.2424,5.2552,5.3385,5.3748,5.3784,5.4569,5.5341,4.1001,4.3518,4.5751,4.6157,4.5974,4.5703,4.5703,4.4674,4.3504,4.2726,4.1102,3.9457,3.8171,3.8679,3.9648,4.0751,4.3457,4.6007,4.7684,4.8191,4.824,4.7684,4.7447,4.7056,4.6327,4.6413,4.6819,4.7549,4.7293,4.7631,4.8951,4.9526,5.0236,5.1167,5.1708,5.2503,5.3484,5.3518,5.3518,5.3518,5.3518,5.3518,5.3518,5.3518,5.3518,5.3518,5.3518,5.3518,5.3518,5.3518,5.3518,5.3518,5.3518,5.3518,5.3518,5.3518,5.3518,5.3518,5.3518,5.3382,5.3179,5.3179,5.2672,5.2029,5.2029,5.1522,5.0897,5.0897,5.0761,5.0626,5.0626,5.0763,5.0834,5.072,5.0386,5.0104,5.0126,4.9693,4.9227,4.8895,4.8398,4.8001,4.8001,4.7835,4.7669,4.7471,4.7438,4.704,4.5947,4.5797,4.5797,4.5797,4.5797,4.5797,4.5797,4.6637,4.7258,4.759,4.8927,4.9934,5.0439,5.1269,5.1802,5.2051,5.2905,5.335,5.3385,5.4218,5.4581,5.4617,5.5377,5.5824,4.2909,4.5229,4.7293,4.7293,4.6718,4.594,4.4911,4.3524,4.1833,3.9783,3.8125,3.6581,3.5103,3.631,3.7843,3.8959,4.2557,4.5737,4.7225,4.8056,4.836,4.7954,4.7921,4.7616,4.6853,4.709,4.7447,4.7887,4.7515,4.78,4.8951,4.9695,5.0439,5.1167,5.1928,5.2706,5.3484,5.3518,5.3518,5.3518,5.3518,5.3518,5.3518,5.3518,5.3518,5.3518,5.3518,5.3518,5.3518,5.3518,5.3518,5.3518,5.3518,5.3518,5.3518,5.3518,5.3518,5.3518,5.3518,5.3518,5.3518,5.3518,5.3179,5.2841,5.2841,5.2283,5.1674,5.1674,5.1438,5.1201,5.1201,5.1153,5.1088,5.1024,5.054,5.0158,5.0359,5.0059,4.9793,4.9809,4.941,4.8945,4.8663,4.8629,4.8464,4.805,4.8001,4.7703,4.6874,4.6775,4.6775,4.6775,4.6775,4.6775,4.6775,4.7377,4.7892,4.8228,4.9233,5.0242,5.1319,5.1896,5.2528,5.3231,5.3869,5.4218,5.4218,5.5015,5.5377,5.5414,5.6174,5.6549,4.4635,4.6515,4.8022,4.7921,4.7278,4.6041,4.3761,4.1969,3.9737,3.6186,3.4709,3.3637,3.2259,3.3897,3.5949,3.7505,4.1521,4.4973,4.6597,4.7428,4.7954,4.8022,4.8056,4.7785,4.7158,4.765,4.8056,4.8056,4.8157,4.8462,4.912,4.983,5.0642,5.1472,5.2131,5.2807,5.3484,5.3518,5.3518,5.3518,5.3518,5.3518,5.3518,5.3518,5.3518,5.3518,5.3518,5.3518,5.3518,5.3518,5.3518,5.3518,5.3518,5.3518,5.3518,5.3518,5.3518,5.3518,5.3518,5.3518,5.3518,5.3518,5.3518,5.3518,5.3518,5.301,5.2469,5.2469,5.1995,5.1505,5.1505,5.1408,5.1343,5.1343,5.0961,5.066,5.0643,5.0543,5.0476,5.066,5.0527,5.0226,4.9609,4.9526,4.9227,4.8415,4.8299,4.8299,4.8299,4.8133,4.8001,4.8001,4.8001,4.8034,4.8133,4.8166,4.8442,4.9218,4.9234,5.0039,5.1843,5.2243,5.2998,5.4187,5.4758,5.5015,5.5015,5.5776,5.615,5.6187,5.6971,5.7369,4.7075,4.8056,4.8665,4.8056,4.6872,4.5297,4.2997,4.0426,3.7741,3.5216,3.3119,3.1505,3.0649,3.278,3.5182,3.675,4.0696,4.435,4.6481,4.7428,4.8124,4.8732,4.88,4.8748,4.8646,4.8748,4.88,4.88,4.9357,4.9763,4.9914,5.0608,5.1641,5.3078,5.3247,5.3382,5.3518,5.3518,5.3518,5.3518,5.3518,5.3518,5.3518,5.3518,5.3518,5.3518,5.3518,0.0,5.3518,5.3518,5.3518,5.3518,5.3518,5.3518,5.3518,5.3518,5.3518,5.3518,5.3518,5.3518,5.3518,5.3518,5.3518,5.3518,5.3518,5.3416,5.3281,5.3281,5.3213,5.3112,5.3112,5.3078,5.3061,5.3061,5.2504,5.1932,5.1833,5.1179,5.0643,5.0676,5.0527,5.0359,5.0259,5.0124,5.0022,4.9856,4.9806,4.9806,4.9806,4.8763,4.8001,4.8001,4.8001,4.8266,4.8845,4.8928,4.921,4.9959,5.0568,5.1235,5.2042,5.279,5.3513,5.4174,5.5139,5.5651,5.5651,5.6559,5.6971,5.7007,5.7804,5.8202,4.7225,4.8139,4.8917,4.8563,4.7075,4.479,4.1339,3.8565,3.5611,3.1789,3.0166,2.9219,2.8484,3.1099,3.3704,3.4855,3.8756,4.2476,4.4708,4.6027,4.7177,4.8293,4.8781,4.9018,4.9018,4.9018,4.9018,4.9018,4.9661,5.0117,5.0117,5.115,5.2283,5.345,5.3518,5.3518,5.3518,5.3518,5.3518,5.3518,5.3518,5.3518,5.3518,5.3518,5.3518,5.3518,5.3518,5.3518,5.3518,5.3518,5.3518,5.3518,5.3518,5.3721,5.4059,5.4059,5.4329,5.4583,5.4194,5.4059,5.4025,5.3619,5.3518,5.3518,5.3518,5.3518,5.3518,5.3518,5.3518,5.3518,5.3518,5.3518,5.3518,5.3518,5.3146,5.2758,5.2691,5.2253,5.19,5.2135,5.1984,5.1732,5.1363,5.1212,5.1027,5.0526,5.0442,5.0409,5.0323,4.9793,4.9343,4.9177,4.9143,4.9276,4.964,4.9673,4.9806,5.017,5.0526,5.1238,5.2423,5.3177,5.4091,5.5214,5.6008,5.6407,5.6407,5.7302,5.7776,5.784,5.8637,5.9035,4.6989,4.8003,4.8917,4.8612,4.6853,4.4032,3.9546,3.6637,3.3548,2.877,2.7689,2.7427,2.6996,2.9474,3.2056,3.3423,3.6727,4.013,4.3017,4.4587,4.6075,4.7718,4.8563,4.9018,4.9018,4.9018,4.9018,4.9018,4.983,5.0405,5.0556,5.1826,5.2841,5.3484,5.3518,5.3518,5.3518,5.3518,5.3518,5.3518,5.3518,5.3518,5.3518,5.3518,5.3518,5.3518,5.3518,5.3585,5.3754,5.3754,5.3822,5.3974,5.3974,5.4329,5.4837,5.4837,5.5209,5.5631,5.504,5.4837,5.4735,5.416,5.3754,5.3518,5.3518,5.3518,5.3518,5.3518,5.3518,5.3518,5.3518,5.3518,5.3518,5.3518,5.3382,5.3247,5.3247,5.3127,5.3127,5.3416,5.3348,5.3027,5.2438,5.2303,5.2018,5.1263,5.1179,5.1128,5.096,5.1078,5.1061,5.0788,5.0454,5.0305,5.047,5.047,5.0537,5.0754,5.0787,5.148,5.3022,5.3629,5.4633,5.6106,5.6837,5.7198,5.7234,5.808,5.8569,5.8673,5.947,5.9855,4.7616,4.8394,4.868,4.7327,4.5297,4.2442,3.8002,3.473,3.1674,2.8466,2.7258,2.6996,2.7587,2.8586,3.0422,3.384,3.5306,3.7729,4.2699,4.4147,4.5514,4.765,4.8563,4.9018,4.9018,4.9018,4.9018,4.9018,5.0288,5.137,5.2063,5.2909,5.3416,5.3518,5.3518,5.3518,5.3518,5.3518,5.3518,5.3518,5.3518,5.3518,5.3518,5.3518,5.3518,5.3518,5.3518,5.389,0.0,5.4516,5.4905,5.5496,5.5496,5.553,5.5597,5.5597,5.5631,5.5699,5.5631,5.5597,5.5597,5.553,5.4583,5.3518,5.3518,5.3518,5.3518,5.3518,5.3518,5.3518,5.3518,5.3518,5.3518,5.3518,5.3501,5.345,5.345,5.3484,5.3467,5.3501,5.3348,5.3196,5.3095,5.2941,5.2787,5.2702,5.2702,5.2685,5.2668,5.2685,5.2685,5.265,5.1293,5.0658,5.1307,5.139,5.1726,5.26,5.265,5.3078,5.402,5.4432,5.5034,5.5901,5.7226,5.7918,5.7918,5.8963,5.9493,5.9506,6.0326,6.0688,4.6921,4.78,4.8191,4.7616,4.5094,4.1711,3.7709,3.446,3.1312,2.7841,2.6894,2.6793,2.7097,2.7765,2.905,3.1461,3.2466,3.4292,3.8181,4.0155,4.2219,4.4877,4.665,4.8003,4.8917,4.9018,4.939,5.0254,5.1269,5.2198,5.2976,5.3348,5.3518,5.3518,5.3518,5.3518,5.3518,5.3518,5.3518,5.3518,5.3518,5.3518,5.3518,5.3518,5.3518,5.3518,5.3518,5.3923,0.0,5.4617,5.504,5.5699,5.5699,5.5969,5.6341,5.6341,5.663,5.6968,5.6528,5.6341,5.6274,5.5834,5.5293,5.482,5.482,5.482,5.482,5.482,5.4499,5.416,5.416,5.3822,5.3518,5.3518,5.3518,5.3518,5.3518,5.3518,5.3518,5.3518,5.3416,5.3382,5.3382,5.3314,5.3263,5.3263,5.3263,5.3229,5.3093,5.3195,5.3178,5.2921,5.2299,5.2013,5.2314,5.2347,5.2515,5.2886,5.2903,5.3381,5.4513,5.5271,5.6129,5.7155,5.8278,5.8853,5.8853,5.9754,6.0246,6.0326,6.1159,6.1521,4.5684,4.6853,4.7515,4.7312,4.4587,4.1001,3.7291,3.411,3.0963,2.7444,2.67,2.67,2.67,2.7122,2.8035,2.9828,3.0548,3.207,3.5475,3.7516,3.9783,4.2713,4.4891,4.6733,4.8206,4.8748,4.9627,5.11,5.1674,5.2435,5.345,5.3518,5.3518,5.3518,5.3518,5.3518,5.3518,5.3518,5.3518,5.3518,5.3518,5.3518,5.3518,5.3518,5.3518,5.3518,5.3518,5.3923,0.0,5.4837,5.5378,5.6037,5.6274,5.6664,5.7137,5.7137,5.7442,5.7832,5.7306,5.7137,5.7036,5.6528,5.6359,5.6359,5.6359,5.6037,5.5699,5.5699,5.5344,5.4871,5.4668,5.4194,5.3788,5.3551,5.3518,5.3518,5.3518,5.3518,5.3518,5.3518,5.3518,5.3585,5.3788,5.3822,5.3822,5.3822,5.3822,5.372,5.3348,5.3399,5.3382,5.3127,5.326,5.3276,5.3023,5.299,5.3108,5.3394,5.3412,5.3972,5.5162,5.592,5.6753,5.7677,5.8845,5.9468,5.9468,6.0516,6.1064,6.1159,6.1738,6.2136,4.3992,4.5684,4.6631,4.5906,4.347,4.0223,3.6479,3.3311,3.0354,2.7309,2.67,2.67,2.67,2.67,2.7478,2.9726,3.0098,3.1664,3.6141,3.7449,3.9005,4.1961,4.3687,4.521,4.6699,4.8139,4.9627,5.11,5.1201,5.1877,5.3416,5.3518,5.3518,5.3518,5.3518,5.3518,5.3518,5.3518,5.3518,5.3518,5.3518,5.3518,5.3518,5.3518,5.3518,5.3518,5.3518,5.3923,0.0,5.5395,5.6105,5.6867,5.7577,5.79,5.79,5.79,5.79,5.79,5.79,5.79,5.79,5.79,5.79,5.79,5.79,5.6867,5.5699,5.5699,5.5699,5.553,5.4769,5.4566,5.4397,5.3687,5.3518,5.3518,5.3518,5.3518,5.3518,5.3518,5.3518,5.3721,5.4465,5.4583,5.4583,5.4583,5.4583,5.4329,5.3568,5.3518,5.3518,5.3501,5.416,5.4193,5.328,5.3196,5.3601,5.4532,5.4566,5.5059,5.6133,5.6319,5.657,5.6898,5.8673,5.9609,5.9609,6.1198,6.1992,6.1992,6.1992,6.244,4.0303,4.1487,4.2029,4.1305,3.9229,3.6659,3.3964,3.1833,2.9736,2.7207,2.67,2.67,2.67,2.67,2.7613,3.0412,3.0852,3.1867,3.4821,3.7212,3.9377,4.1305,4.5128,4.78,4.8274,4.9187,5.0168,5.1133,5.1691,5.2401,5.345,5.3518,5.3518,5.3518,5.3518,5.3518,5.3518,5.3518,5.3518,5.3518,5.3518,5.3518,5.3518,5.3518,5.3518,5.3518,5.3518,5.3923,5.4668,5.5395,5.6139,5.6867,5.7629,5.79,5.79,5.79,5.79,5.79,5.79,5.79,5.79,5.79,5.79,5.79,5.79,5.7577,5.7103,5.6596,5.6461,5.6292,5.553,5.5327,5.5293,5.5056,5.4989,5.4989,5.4989,5.4989,5.4989,5.4989,5.4989,5.509,5.5293,5.5327,5.5327,5.5327,5.5327,5.5277,5.5023,5.4989,5.4989,5.4989,5.5192,5.5023,5.4227,5.4615,5.5038,5.5327,5.5327,5.5735,5.6586,5.7073,5.7634,5.8252,5.9316,6.0083,6.057,6.107,6.1831,6.2802,6.2802,6.3526,3.7009,3.8464,3.9153,3.87,3.6874,3.4675,3.2723,3.0929,2.9127,2.7106,2.67,2.67,2.67,2.67,2.741,2.9567,3.0176,3.1133,3.3366,3.5994,3.879,4.1698,4.5669,4.8274,4.8563,4.9255,5.0101,5.1133,5.1607,5.2367,5.345,5.3518,5.3518,5.3518,5.3518,5.3518,5.3518,5.3518,5.3518,5.3518,5.3518,5.3518,5.3518,5.3518,5.3518,5.3518,5.3518,5.3754,0.0,5.5259,5.5969,5.6494,5.7476,5.79,5.79,5.79,5.79,5.79,5.79,5.79,5.79,5.79,5.79,5.79,5.79,5.79,5.778,5.734,5.7205,5.7036,5.6325,5.6105,5.6037,5.5767,5.5699,5.5699,5.5699,5.5699,5.5699,5.5699,5.5699,5.58,5.6071,5.6105,5.6105,5.6105,5.6105,5.6003,5.5733,5.5699,5.5699,5.5699,5.5936,5.5953,5.548,5.5615,5.58,5.6105,5.6105,5.6461,5.7171,5.7633,5.8049,5.8494,5.923,5.9771,6.02,6.1062,6.2198,6.3649,6.3975,6.4649,0.0,3.6118,3.7335,3.7268,3.5656,3.3738,3.2327,3.0398,0.0,2.7004,2.67,2.6733,2.6835,2.6767,2.7029,2.8027,2.8789,3.0025,3.2226,3.4573,3.7966,4.3118,4.5635,4.7225,4.7921,4.8597,4.9578,5.0998,5.1167,5.1844,5.3348,5.3484,5.3518,5.3518,5.3518,5.3518,5.3518,5.3518,5.3518,5.3518,5.3518,5.3518,5.3518,5.3518,5.3518,0.0,5.3518,5.3518,5.3619,5.509,5.5699,5.5834,5.7306,5.79,5.79,5.79,5.79,5.79,5.79,5.79,5.79,5.79,5.79,5.79,5.79,5.79,5.79,5.79,5.79,5.773,5.707,5.6867,5.6697,5.6003,5.5868,5.5868,5.5868,5.5868,5.5868,5.5868,5.5868,5.6071,5.6765,5.6867,5.6867,5.6867,5.6867,5.663,5.5936,5.5868,5.5868,5.5868,5.6461,5.6867,5.6867,5.624,5.6139,5.6833,5.6867,5.7171,5.7866,5.79,5.79,5.79,5.8667,5.9063,5.908,6.127,6.3103,6.4504,6.5229,6.5627,2.8518,0.0,3.1799,3.1234,3.0693,3.005,0.0,2.8475,2.7833,2.6894,2.67,2.7072,2.8231,2.7512,2.7875,3.1485,3.1775,3.2283,3.4495,3.8227,4.2252,4.6365,4.78,4.8545,4.8698,4.8917,4.939,5.0304,5.0863,5.1607,5.2536,5.3179,5.3518,5.3518,5.3518,5.3518,5.3518,5.3518,5.3518,5.3518,5.3518,5.3518,5.3518,5.3518,5.3518,5.3518,5.3518,5.3518,5.3619,5.509,5.5699,5.5834,5.7306,5.79,5.79,5.79,5.79,5.79,5.79,5.79,5.79,5.79,5.79,5.79,5.79,5.79,5.79,5.79,5.79,5.7866,5.7697,5.7645,5.7577,5.7408,5.7374,5.7374,5.7374,5.7374,5.7374,5.7374,5.7374,5.7442,5.7629,5.7645,5.7645,5.7645,5.7645,5.7595,5.7408,5.7374,5.7374,5.7374,5.7543,5.7645,5.7645,5.7476,5.7442,5.7629,5.7645,5.773,5.79,5.79,5.79,5.79,5.9718,6.0648,6.0648,6.2835,6.4376,6.5301,6.5518,6.5917,2.5692,2.7613,2.9567,2.9508,2.9237,2.8874,2.845,2.7799,2.7097,2.6353,2.6454,2.6869,2.7342,2.7613,2.8561,3.0997,3.1887,3.3569,3.7166,4.0616,4.4065,4.7481,4.8563,4.9018,4.9018,4.9018,4.9323,5.0049,5.0473,5.115,5.2232,5.2706,5.3112,5.3484,5.3518,5.3518,5.3518,5.3518,5.3518,5.3518,5.3518,5.3518,5.3518,5.3518,5.3518,5.3518,5.3518,5.3518,5.3619,5.509,5.5699,5.5834,5.7306,5.79,5.79,5.79,5.79,5.79,5.79,5.79,5.79,5.79,5.79,5.79,5.79,5.79,5.79,5.79,5.79,5.79,5.79,5.79,5.79,5.79,5.79,5.79,5.79,5.79,5.79,5.79,5.79,5.79,5.79,5.79,5.79,5.79,5.8186,5.8389,5.8389,5.8389,5.8389,5.8389,5.8084,5.79,5.79,5.79,5.79,5.79,5.79,5.79,5.79,5.79,5.8051,5.8389,6.0237,6.1545,6.2263,6.3775,6.5075,6.6134,6.6134,6.6388,2.4745,2.6776,2.8899,2.9321,2.9093,2.8807,2.8671,2.7647,2.653,2.5913,2.6251,2.6623,2.6345,2.7884,2.9348,2.9924,3.1887,3.5058,4.0075,4.2408,4.4708,4.7718,4.8597,4.9018,4.9018,4.9018,4.9255,4.988,5.0049,5.0658,5.1894,5.2198,5.2604,5.3315,5.345,5.3518,5.3518,5.3518,5.3518,5.3518,5.3518,5.3518,5.3518,5.3518,5.3518,5.3518,0.0,0.0,5.3619,5.4955,5.5597,5.5834,5.7205,5.778,5.79,5.79,5.79,5.79,5.79,5.79,5.79,5.79,5.79,5.79,5.79,5.79,5.79,5.79,5.79,5.79,5.79,5.79,5.79,5.79,5.79,5.79,5.79,5.79,5.79,5.79,5.79,5.79,5.79,5.79,5.79,5.79,5.8423,5.881,5.881,5.881,5.881,5.881,5.8355,5.8051,5.8051,5.8051,5.8137,5.8238,5.8035,5.7967,5.8051,5.8186,5.8524,5.9148,6.0745,6.2179,6.3511,6.4472,6.5571,6.6786,6.6786,6.6786,2.5854,2.7165,2.7722,2.6573,2.7148,2.7833,2.7207,2.6869,2.6666,2.6556,2.6623,2.7266,2.9084,2.9693,3.0944,3.4089,3.6502,3.9356,4.3349,4.4195,4.5514,4.8477,4.8951,4.9018,4.9018,4.9018,4.9052,4.9154,4.9729,5.0218,5.0421,5.1623,5.2367,5.2469,5.3145,5.3518,5.3518,5.3518,5.3518,5.3518,5.3518,5.3518,5.3518,5.3518,5.3518,5.3518,0.0,5.3518,5.3585,5.4431,5.5141,5.5767,5.663,5.734,5.79,5.79,5.79,5.79,5.79,5.79,5.79,5.79,5.79,5.79,5.79,5.79,5.79,5.79,5.79,5.79,5.79,5.79,5.79,5.79,5.79,5.79,5.79,5.79,5.79,5.79,5.79,5.79,5.79,5.79,5.79,5.79,5.8001,5.8051,5.8051,5.8051,5.8051,5.8051,5.8524,5.881,5.881,5.881,5.9099,5.9708,5.8592,5.8186,5.881,5.9438,5.981,5.9945,6.2038,6.3252,6.3511,6.5499,6.6589,6.6786,6.6786,6.6786,2.4154,2.5431,2.6547,2.6251,2.8247,3.004,2.9305,2.9136,2.9034,2.8619,2.8856,2.933,2.9963,3.1722,3.4292,3.8012,3.9851,4.1826,4.479,4.5548,4.6597,4.8748,4.9018,4.9018,4.9018,4.9018,4.9018,4.9018,4.9323,4.9661,5.0083,5.0744,5.1285,5.1674,5.2469,5.2841,5.2841,5.3281,5.3518,5.3518,5.3518,5.3518,5.3518,5.3518,5.3518,5.3518,0.0,5.3518,5.3551,5.4313,5.504,5.5767,5.6528,5.7239,5.79,5.79,5.79,5.79,5.79,5.79,5.79,5.79,5.79,5.79,5.79,5.79,5.79,5.79,5.79,5.79,5.79,5.79,5.79,5.79,5.79,5.79,5.79,5.79,5.79,5.79,5.79,5.79,5.79,5.79,5.79,5.79,5.8254,5.849,5.849,5.849,5.849,5.849,5.8776,5.9013,5.9013,5.9351,5.9573,5.9487,5.9235,5.9235,5.9573,6.0351,6.0757,6.0757,6.2942,6.4091,6.4091,6.5915,6.6786,6.6786,6.6786,6.704,2.3605,2.4687,2.6082,2.7004,2.9271,3.1268,3.1437,3.12,3.092,3.0876,3.1326,3.1529,3.0978,3.3886,3.7572,4.1123,4.2489,4.3842,4.5925,4.6718,4.753,4.8849,4.9018,4.9018,4.9018,4.9018,4.9018,4.9018,4.9018,4.9255,4.9796,5.0015,5.0338,5.0897,5.1657,5.2063,5.2063,5.2841,5.3315,5.3518,5.3518,5.3518,5.3518,5.3518,5.3518,5.3518,5.3518,5.3518,5.3551,5.4093,5.4871,5.5767,5.6308,5.7103,5.79,5.79,5.79,5.79,5.79,5.79,5.79,5.79,5.79,5.79,5.79,5.79,5.7934,5.8084,5.8035,5.79,5.79,5.79,5.79,5.79,5.79,5.79,5.79,5.79,5.79,5.79,5.79,5.79,5.79,5.8017,5.8152,5.8152,5.8795,5.925,5.925,5.925,5.925,5.925,5.9419,5.952,5.952,6.0216,6.0317,5.9588,6.008,6.0385,6.0385,6.1129,6.1569,6.1569,6.3386,6.4428,6.4601,6.5922,6.6638,6.6786,6.7003,6.7402,2.6843,2.7021,2.697,2.8468,2.8484,2.8847,3.1572,3.1157,3.0741,3.2736,3.321,3.321,3.3176,3.6231,3.9749,4.2746,4.4471,4.5993,4.7515,4.7785,4.8124,4.8917,4.9018,4.9018,4.9018,4.9018,4.9018,4.9018,4.9018,4.9018,4.9086,4.9729,5.0101,5.0184,5.0897,5.1269,5.1269,5.2029,5.2773,5.3518,5.3518,5.3518,5.3518,5.3518,5.3518,5.3518,5.3518,5.3518,5.3518,5.3551,5.4414,5.5699,5.5767,5.6664,5.79,5.79,5.79,5.79,5.79,5.79,5.79,5.79,5.79,5.79,5.79,5.79,5.8017,5.8709,5.8423,5.79,5.79,5.79,5.79,5.79,5.79,5.79,5.79,5.79,5.79,5.79,5.79,5.79,5.79,5.8457,5.8912,5.8912,5.9573,6.0013,6.0013,6.0013,6.0013,6.0013,6.0689,6.1129,6.1129,6.1806,6.1907,6.1197,6.1197,6.1231,6.1231,6.1907,6.2313,6.2313,6.3143,6.3933,6.4601,6.5387,6.6141,6.6822,6.7583,6.793,2.5642,2.6226,2.7072,2.8604,2.9813,3.1133,3.3197,3.4336,3.5442,3.72,3.7584,3.7697,3.8159,3.9783,4.188,4.4404,4.6094,4.7413,4.8428,4.8563,4.8698,4.8984,4.9018,4.9018,4.9018,4.9018,4.9018,4.9018,4.9018,4.9018,4.9018,4.9255,4.9424,4.9424,5.0135,5.0507,5.0507,5.1691,5.2469,5.2773,5.3281,5.3518,5.3518,5.3518,5.3518,5.3518,5.3518,5.3518,5.3518,5.3518,5.4363,5.58,5.6697,5.7408,5.79,5.79,5.79,5.79,5.79,5.79,5.79,5.79,5.79,5.8001,5.8457,5.8592,5.8727,5.9471,5.9471,5.9268,5.9268,5.8592,5.8035,5.849,5.822,5.79,5.79,5.79,5.8017,5.849,5.8592,5.8727,5.9201,5.9505,5.9674,5.9674,5.9911,6.0114,6.0114,6.0114,6.0114,6.0114,6.0825,6.1501,6.1941,6.2265,6.2279,6.2009,6.1975,6.1975,6.1975,6.2245,6.24,6.24,6.3121,6.3625,6.3933,6.5124,6.6106,6.6895,6.764,6.8561,2.5041,2.5575,2.6725,2.8256,3.0499,3.2869,3.5081,3.6772,3.8519,4.0671,4.0764,4.0675,4.1407,4.1779,4.276,4.5297,4.6737,4.7887,4.8849,4.9018,4.9018,4.9018,4.9018,4.9018,4.9018,4.9018,4.9018,4.9018,4.9018,4.9018,4.9018,4.9018,4.9018,4.9018,4.9492,4.9729,4.9729,5.098,5.1725,5.1945,5.2739,5.3247,5.3518,5.3518,5.3518,5.3518,5.3518,5.3518,5.3518,5.3518,5.4363,5.5834,5.7306,5.79,5.79,5.79,5.79,5.79,5.79,5.79,5.79,5.79,5.8051,5.8355,5.8844,5.9148,5.9487,6.0283,6.0283,6.0216,6.0689,5.9708,5.8727,5.9235,5.8964,5.8592,5.8592,5.8592,5.8727,5.925,5.9351,5.9487,6.0013,6.0317,6.0486,6.0486,6.0689,6.0825,6.0825,6.0825,6.0825,6.0825,6.1332,6.1839,6.2367,6.24,6.24,6.24,6.24,6.24,6.24,6.24,6.24,6.24,6.2908,6.3271,6.3478,6.5001,6.6109,6.6923,6.8198,6.9358,2.5803,2.5601,2.5973,2.7452,3.0108,3.3332,3.7077,3.7944,3.8993,4.2679,4.2273,4.1474,4.2198,4.1745,4.2219,4.5229,4.6312,4.7327,4.8781,4.9018,4.9018,4.9018,4.9018,4.9018,4.9018,4.9018,4.9018,4.9018,4.9018,4.9018,4.9018,4.9018,4.9018,4.9018,4.9018,4.9018,4.9018,4.9729,5.0473,5.1201,5.1945,5.2739,5.3518,5.3518,5.3518,5.3518,5.3518,5.3518,5.3518,5.3518,5.438,5.5834,5.7306,5.79,5.79,5.79,5.79,5.79,5.79,5.79,5.79,5.7934,5.8389,5.9013,5.9013,5.9539,6.0283,6.1095,6.0757,6.0452,6.2009,6.1264,6.0114,6.0114,6.0114,6.0114,6.0114,6.0114,6.0114,6.0114,6.0114,6.0114,6.0114,6.0791,6.1332,6.1332,6.1907,6.24,6.24,6.24,6.24,6.24,6.24,6.24,6.24,6.24,6.24,6.24,6.24,6.24,6.24,6.24,6.24,6.24,6.24,6.2755,6.3512,6.5056,6.6173,6.6978,6.9316,7.0387,2.5803,2.637,2.7621,2.9693,3.3254,3.6941,3.9614,4.0629,4.1914,4.5128,4.5026,4.4282,4.3958,4.4601,4.5263,4.5635,4.7192,4.8511,4.8951,4.9018,4.9018,4.9018,4.9018,4.9018,4.9018,4.9018,4.9018,4.9018,4.9018,4.9018,4.9018,4.9018,4.9018,4.9018,4.9018,4.9018,4.9018,4.9729,5.0218,5.0439,5.1691,5.2739,5.3518,5.3518,5.3518,5.3518,5.3518,5.3518,5.3585,5.4617,5.5293,5.5834,5.7306,5.79,5.79,5.79,5.79,5.79,5.79,5.79,5.8001,5.8524,5.881,5.9182,6.0283,6.0791,6.1095,6.1839,6.1907,6.1806,6.2299,6.2042,6.1569,6.1061,6.052,6.0114,6.0114,6.0114,6.0283,6.0825,6.0926,6.1095,6.1637,6.1907,6.2076,6.2076,6.2265,6.24,6.24,6.24,6.24,6.24,6.24,6.24,6.24,6.24,6.24,6.24,6.24,6.24,6.24,6.24,6.24,6.24,6.24,6.2769,6.3514,6.5031,6.6479,6.7781,6.9577,7.0677,2.6514,2.7553,2.9311,3.1867,3.5024,3.8362,4.1779,4.3349,4.4601,4.6428,4.6447,4.6007,4.5548,4.594,4.6413,4.6534,4.7684,4.8665,4.8951,4.9018,4.9018,4.9018,4.9018,4.9018,4.9018,4.9018,4.9018,4.9018,4.9018,4.9018,4.9018,4.9018,4.9018,4.9018,4.9018,4.9018,4.9018,4.9424,4.9796,5.0117,5.098,5.1995,5.3044,5.3348,5.3518,5.3518,5.3518,5.3518,5.3619,5.509,5.5699,5.5834,5.7306,5.79,5.79,5.79,5.79,5.79,5.79,5.79,5.8017,5.8743,5.9182,5.9674,6.0926,6.1501,6.1839,6.2245,6.24,6.24,6.24,6.24,6.2299,6.1839,6.1366,6.0994,6.0994,6.0994,6.1163,6.1637,6.1738,6.1873,6.2313,6.24,6.24,6.24,6.24,6.24,6.24,6.24,6.24,6.24,6.24,6.24,6.24,6.24,6.24,6.24,6.24,6.24,6.24,6.24,6.24,6.24,6.2685,6.3201,6.3996,6.5834,6.7359,6.8611,7.0133,7.106,2.7519,2.8906,3.091,3.3863,3.5972,3.8589,4.3552,4.5751,4.6718,4.6853,4.6955,4.6989,4.6921,4.6413,4.6399,4.7684,4.7954,4.8225,4.8917,4.9018,4.9018,4.9018,4.9018,4.9018,4.9018,4.9018,4.9018,4.9018,4.9018,4.9018,4.9018,4.9018,4.9018,4.9018,4.9018,4.9018,4.9018,4.9018,4.9323,4.9999,5.0083,5.0845,5.2232,5.3044,5.345,5.3518,5.3518,5.3518,5.3619,5.5023,5.5631,5.5834,5.7239,5.7832,5.79,5.79,5.79,5.79,5.79,5.79,5.8035,5.8863,5.9573,6.025,6.1129,6.1873,6.24,6.24,6.24,6.24,6.24,6.24,6.24,6.24,6.24,6.24,6.24,6.24,6.24,6.24,6.24,6.24,6.24,6.24,6.24,6.24,6.24,6.24,6.24,6.24,6.24,6.24,6.24,6.24,6.24,6.24,6.24,6.24,6.2448,6.2502,6.2502,6.2434,6.2434,6.2502,6.3159,6.3927,6.4804,6.6938,6.8452,6.9303,7.0669,7.1368,2.6894,2.8924,3.1664,3.463,3.8261,4.1894,4.479,4.5703,4.6278,4.7413,4.8124,4.8342,4.7752,4.7988,4.8191,4.7954,4.8394,4.8815,4.8984,4.9018,4.9018,4.9018,4.9018,4.9018,4.9018,4.9018,4.9018,4.9018,4.9018,4.9018,4.9018,4.9018,4.9018,4.9018,4.9018,4.9018,4.9018,4.9018,4.9086,4.9255,4.983,5.0574,5.1472,5.2232,5.2909,5.3518,5.3518,5.3518,5.3585,5.4465,5.5175,5.58,5.6697,5.7374,5.79,5.79,5.79,5.79,5.79,5.79,5.8137,5.9438,5.9979,6.0351,6.1738,6.2245,6.24,6.24,6.24,6.24,6.24,6.24,6.24,6.24,6.24,6.24,6.24,6.24,6.24,6.24,6.24,6.24,6.24,6.24,6.24,6.24,6.24,6.24,6.24,6.24,6.24,6.24,6.24,6.24,6.24,6.24,6.24,6.24,6.2956,6.324,6.324,6.2719,6.2651,6.326,6.3409,6.4173,6.5494,6.6587,6.7878,6.9227,6.953,7.0336,2.7943,3.0243,3.322,3.7268,4.0865,4.3721,4.4891,4.5466,4.5925,4.6669,4.7428,4.7936,4.7921,4.8225,4.8462,4.8428,4.8748,4.9018,4.9018,4.9018,4.9018,4.9018,4.9018,4.9018,4.9018,4.9018,4.9018,4.9018,4.9018,4.9018,4.9018,4.9018,4.9018,4.9018,4.9018,4.9018,4.9018,4.9018,4.9018,4.9018,4.939,5.0135,5.1235,5.2351,5.3112,5.3518,5.3518,5.3518,5.3551,5.4313,5.504,5.5767,5.6528,5.7239,5.79,5.79,5.79,5.79,5.79,5.8118,5.8626,5.9742,6.0351,6.0892,6.2062,6.24,6.24,6.24,6.24,6.24,6.24,6.24,6.24,6.24,6.24,6.24,6.24,6.24,6.24,6.24,6.24,6.24,6.24,6.24,6.24,6.24,6.24,6.24,6.24,6.24,6.24,6.24,6.24,6.24,6.24,6.24,6.255,6.2888,6.3294,6.3646,6.3984,6.3666,6.3632,6.4038,6.4377,6.5142,6.628,6.706,6.8046,6.9202,6.96,7.0234,2.861,3.1417,3.4776,3.977,4.2638,4.4228,4.4364,4.4959,4.55,4.55,4.621,4.6989,4.7582,4.7718,4.7921,4.8511,4.8748,4.88,4.88,4.8917,4.9018,4.9018,4.9018,4.9018,4.9018,4.9018,4.9018,4.9018,4.9018,4.9018,4.9018,4.9018,4.9018,4.9018,4.9018,4.9018,4.9018,4.9018,4.9018,4.9018,4.912,4.9898,5.1235,5.2655,5.3382,5.3518,5.3518,5.3518,5.3551,5.416,5.4905,5.5767,5.6375,5.7137,5.79,5.79,5.79,5.79,5.79,5.8389,5.9115,5.9877,6.0655,6.1434,6.2178,6.24,6.24,6.24,6.24,6.24,6.24,6.24,6.24,6.24,6.24,6.24,6.24,6.24,6.24,6.24,6.24,6.24,6.24,6.24,6.24,6.24,6.24,6.24,6.24,6.24,6.24,6.24,6.24,6.24,6.24,6.24,6.2719,6.3443,6.3612,6.4038,6.4749,6.4918,6.4986,6.4986,6.5425,6.6099,6.6888,6.7487,6.8273,6.9202,6.9743,7.0217,2.5913,3.0176,3.5284,3.9263,4.1441,4.276,4.3423,4.4181,4.4736,4.4736,4.5853,4.6834,4.6921,4.6955,4.6989,4.7071,4.7631,4.8056,4.8056,4.8597,4.9018,4.9018,4.9018,4.9018,4.9018,4.9018,4.9018,4.9018,4.9018,4.9018,4.9018,4.9018,4.9018,4.9018,4.9018,4.9018,4.9018,4.9018,4.9018,4.9018,4.9627,5.0405,5.1235,5.2063,5.2841,5.3518,5.3518,5.3518,5.3518,5.3619,5.4465,5.5699,5.58,5.6697,5.79,5.79,5.79,5.79,5.79,5.8389,5.9115,5.9877,6.0655,6.1434,6.2178,6.24,6.24,6.24,6.24,6.24,6.24,6.24,6.24,6.24,6.24,6.24,6.24,6.24,6.24,6.24,6.24,6.24,6.24,6.24,6.24,6.24,6.24,6.24,6.24,6.24,6.24,6.24,6.24,6.24,6.24,6.24,6.2719,6.3443,6.4106,6.4783,6.5514,6.617,6.6487,6.6487,6.5967,6.6063,6.681,6.6912,6.7736,6.92,6.86,6.9384,2.7841,3.1562,3.5396,3.914,4.0899,4.1982,4.3152,4.366,4.4045,4.4499,4.5122,4.5684,4.6109,4.6177,4.6312,4.6733,4.7056,4.7293,4.7293,4.7564,4.7767,4.7767,4.7767,4.7767,4.7767,4.8139,4.836,4.836,4.8781,4.9018,4.9018,4.9018,4.9018,4.9018,4.9018,4.9018,4.9018,4.9018,4.9018,4.9018,4.9323,4.9864,5.0608,5.1352,5.2367,5.3518,5.3518,5.3518,5.3518,5.3518,5.4363,5.5699,5.5699,5.6596,5.79,5.79,5.79,5.79,5.79,5.866,5.9674,5.9979,6.0926,6.1975,6.2279,6.24,6.24,6.24,6.24,6.24,6.24,6.24,6.24,6.24,6.24,6.24,6.24,6.24,6.24,6.24,6.24,6.24,6.24,6.24,6.24,6.24,6.24,6.24,6.24,6.24,6.24,6.24,6.24,6.24,6.24,6.24,6.2888,6.4038,6.441,6.5121,6.6271,6.6643,6.6791,6.6791,6.6474,6.6474,6.6791,6.7257,6.761,6.7876,6.8409,6.9237,2.8798,3.1539,3.4009,3.7731,3.966,4.1001,4.2273,4.3017,4.3558,4.4181,4.4465,4.477,4.5331,4.5432,4.5602,4.6157,4.6394,4.6515,4.6515,4.6684,4.68,4.68,4.68,4.68,4.68,4.7293,4.7616,4.7616,4.8139,4.8511,4.8714,4.8698,4.8815,4.8984,4.9018,4.9018,4.9018,4.9018,4.9018,4.9018,4.9018,4.939,5.015,5.0863,5.1911,5.3213,5.3416,5.3518,5.3518,5.3518,5.4363,5.5699,5.5699,5.6596,5.79,5.79,5.79,5.7934,5.8118,5.9032,6.0148,6.0351,6.1298,6.24,6.24,6.24,6.24,6.24,6.24,6.24,6.24,6.24,6.24,6.24,6.24,6.24,6.24,6.24,6.24,6.24,6.24,6.24,6.24,6.24,6.24,6.24,6.24,6.24,6.24,6.24,6.24,6.24,6.24,6.24,6.24,6.255,6.3226,6.4512,6.4783,6.5459,6.6757,6.6791,6.6791,6.6791,6.6791,6.6791,6.6791,6.7387,6.7488,6.7133,6.8331,6.898,2.6082,2.8087,3.0161,3.3874,3.6987,3.9309,4.0096,4.1901,4.3423,4.3457,4.4079,4.4601,4.4649,4.4668,4.4682,4.4716,4.5297,4.5771,4.5771,4.6346,4.68,4.68,4.68,4.68,4.68,4.6834,4.6853,4.6853,4.6887,4.7225,4.7921,4.7954,4.8293,4.8984,4.9018,4.9018,4.9018,4.9018,4.9018,4.9018,4.9018,4.939,5.015,5.0863,5.1607,5.2401,5.3179,5.3518,5.3518,5.3518,5.4363,5.5699,5.5699,5.6596,5.79,5.79,5.79,5.8001,5.8693,5.9471,6.0216,6.0994,6.1772,6.24,6.24,6.24,6.24,6.24,6.24,6.24,6.24,6.24,6.24,6.24,6.24,6.24,6.24,6.24,6.24,6.24,6.24,6.24,6.24,6.24,6.24,6.24,6.24,6.24,6.24,6.24,6.24,6.24,6.24,6.24,6.24,6.3057,6.3748,6.4546,6.5256,6.6,6.6757,6.6791,6.6791,6.6791,6.6791,6.6791,6.6791,6.6833,6.7236,6.7935,6.8014,6.8466,2.5439,2.7097,2.9016,3.2283,3.4618,3.6671,3.8903,4.0358,4.1542,4.2489,4.3301,4.3842,4.3842,4.4262,4.4615,4.4615,4.4804,4.5007,4.5007,4.521,4.5379,4.5379,4.5379,4.5379,4.5379,4.5805,4.6075,4.6075,4.6515,4.6936,4.7192,4.765,4.7785,4.7597,4.8511,4.9018,4.9018,4.9018,4.9018,4.9018,4.9018,4.9154,4.9424,5.066,5.1336,5.1674,5.2942,5.3518,5.3518,5.3518,5.4363,5.5699,5.5699,5.6596,5.79,5.79,5.79,5.8035,5.8743,5.9471,6.0216,6.1028,6.1806,6.24,6.24,6.24,6.24,6.24,6.24,6.24,6.24,6.24,6.24,6.24,6.24,6.24,6.24,6.24,6.24,6.24,6.24,6.24,6.24,6.24,6.2265,6.1772,6.2096,6.2212,6.1738,6.211,6.24,6.24,6.24,6.2584,6.3057,6.3342,6.4038,6.5222,6.5547,6.6034,6.6757,6.6791,6.6791,6.6791,6.6791,6.6791,6.6791,6.7305,6.7448,6.7257,6.7771,6.8428,2.4594,2.5939,2.7799,3.0828,3.2317,3.3931,3.7461,3.8814,3.9795,4.1251,4.2354,4.3118,4.3355,4.3842,4.4296,4.4567,4.4615,4.4615,4.4615,4.4615,4.4615,4.4615,4.4615,4.4615,4.4615,4.5041,4.5331,4.5331,4.5785,4.6157,4.6413,4.6921,4.7143,4.7158,4.8124,4.8748,4.9018,4.9018,4.9018,4.9018,4.9018,4.9018,4.9052,5.0525,5.1201,5.1302,5.2841,5.3518,5.3518,5.3518,5.4363,5.5699,5.5699,5.6596,5.79,5.79,5.79,5.8017,5.9032,5.9708,6.0283,6.1332,6.2009,6.24,6.24,6.24,6.24,6.24,6.24,6.24,6.24,6.24,6.2448,6.2719,6.2753,6.2821,6.3091,6.2753,6.24,6.24,6.24,6.24,6.24,6.24,6.2212,6.1738,6.2076,6.2231,6.1738,6.2313,6.2753,6.2753,6.299,6.3328,6.3835,6.4106,6.4647,6.5649,6.5933,6.6305,6.6757,6.6791,6.6791,6.6791,6.6791,6.6791,6.6791,6.736,6.7305,6.6812,6.763,6.872,0.0,0.0,0.0,2.9253,2.9963,3.1157,3.5599,3.7156,3.8125,3.966,4.1149,4.2388,4.3186,4.3355,4.3626,4.4432,4.4567,4.4615,4.4615,4.4615,4.4615,4.4615,4.4615,4.4615,4.4615,4.4615,4.4615,4.4615,4.4615,4.4905,4.5635,4.5669,4.6365,4.7853,4.7887,4.8225,4.8984,4.9018,4.9018,4.9018,4.9018,4.9018,4.9052,5.0525,5.1201,5.1302,5.2841,5.3518,5.3518,5.3518,5.4363,5.5699,5.5699,5.6596,5.79,5.79,5.7934,5.8137,5.9607,6.0114,6.0385,6.1927,6.24,6.24,6.24,6.24,6.24,6.24,6.2434,6.2434,6.2448,6.2448,6.2651,6.3342,6.3511,6.3714,6.4444,6.3463,6.2448,6.2448,6.2448,6.2448,6.2448,6.2448,6.2468,6.2434,6.2434,6.2434,6.2434,6.3057,6.3511,6.3511,6.4174,6.4613,6.4647,6.529,6.5717,6.5751,6.6406,6.6791,6.6791,6.6791,6.6791,6.6791,6.6791,6.6791,6.6791,6.6791,6.6791,6.6812,6.765,6.9357,2.3552,0.0,0.0,0.0,0.0,0.0,3.1292,3.2104,3.3288,3.6953,3.8048,3.9051,4.1373,4.2252,4.2861,4.3606,4.4228,4.4615,4.4615,4.4615,4.4615,4.4615,4.4615,4.4615,4.4615,4.4615,4.4615,0.0,4.4615,4.4702,4.4905,4.4905,4.5805,4.7853,4.7394,4.7699,4.8984,4.9018,4.9018,4.9018,4.9018,4.9018,4.9052,5.0525,5.1201,5.1302,5.2841,5.3518,5.3518,5.3518,5.4363,5.5699,5.5699,5.6596,5.79,5.79,5.822,5.8829,5.9776,6.0486,6.1129,6.2076,6.24,6.24,6.24,6.24,6.24,6.24,6.2787,6.3328,6.3835,6.4005,6.4038,6.4241,6.4309,6.4343,6.4546,6.4275,6.4005,6.4005,6.4005,6.4005,6.4005,6.4005,6.3802,6.3294,6.3193,6.3193,6.3193,6.3376,6.368,6.4241,6.4478,6.4816,6.5358,6.5561,6.5954,6.6474,6.669,6.6791,6.6791,6.6791,6.6791,6.6791,6.6791,6.6791,6.6791,6.6791,6.6791,6.6833,6.8823,7.0724,2.4526,2.4966,2.5837,2.6793,0.0,0.0,3.0209,3.0548,3.1282,3.5453,3.6581,3.7608,4.0269,4.1081,4.1724,4.276,4.3349,4.387,4.4499,4.4615,4.4615,4.4615,4.4615,4.4615,4.4615,4.4615,4.4615,4.4615,4.4615,4.4615,4.4615,4.4615,4.5345,4.694,4.6853,4.7361,4.8529,4.8849,4.9018,4.9018,4.9018,4.9018,4.9052,5.0525,5.1201,5.1302,5.2841,5.3518,5.3518,5.3822,5.4668,5.5699,5.5699,5.6596,5.79,5.79,5.8355,5.9115,5.9844,6.0622,6.1434,6.2144,6.24,6.24,6.24,6.24,6.2448,6.2753,6.3396,6.4072,6.4478,6.4613,6.4681,6.4986,6.5053,6.5121,6.5459,6.5527,6.5358,6.4715,6.4613,6.4613,6.4613,6.4613,6.4444,6.4018,6.3971,6.3971,6.3971,6.4241,6.458,6.5019,6.5324,6.5696,6.6102,6.617,6.6339,6.6757,6.6791,6.6791,6.6791,6.6791,6.6791,6.6791,6.6791,6.6791,6.6791,6.6791,6.7137,6.7803,6.9579,7.1439,2.604,2.5905,0.0,2.829,2.6911,0.0,3.0465,3.0625,3.0809,3.4157,3.5419,3.666,3.9029,3.9571,4.0066,4.1454,4.1894,4.2638,4.4228,4.4465,4.4499,4.4581,4.4615,4.4615,4.4615,4.4615,4.4615,4.4615,4.4615,4.4615,4.4615,4.4615,4.4939,4.5689,4.6413,4.7158,4.7887,4.8631,4.9018,4.9018,4.9018,4.9052,4.9187,5.0558,5.1235,5.1404,5.2875,5.3518,5.3551,5.4313,5.504,5.5699,5.58,5.6664,5.79,5.79,5.8423,5.9216,5.9877,6.0689,6.1535,6.2197,6.24,6.24,6.24,6.2448,6.2685,6.3531,6.4241,6.4749,6.4816,6.485,6.5019,6.5683,6.5797,6.6,6.6677,6.6791,6.6385,6.5087,6.485,6.485,6.485,6.485,6.485,6.485,6.4783,6.4749,6.485,6.5358,6.5751,6.5818,6.6406,6.6791,6.6791,6.6791,6.6791,6.6791,6.6791,6.6791,6.6791,6.6791,6.6791,6.6791,6.6791,6.6791,6.6791,6.6859,6.7658,6.9118,7.0062,7.1717,2.7587,2.7841,2.8163,2.7342,2.8078,0.0,2.6471,2.7165,2.8644,3.0016,3.0398,3.1549,3.4956,3.6096,3.6761,3.7731,3.9368,4.1251,4.3321,4.3626,4.3876,4.4499,4.4615,4.4615,4.4615,4.4615,4.4615,4.4615,4.4615,4.4615,4.4615,4.4615,4.4939,4.5689,4.6413,4.7158,4.7887,4.8631,4.9018,4.9018,4.9018,4.9323,4.9914,5.0795,5.1505,5.2131,5.3078,5.3518,5.3551,5.4313,5.504,5.5767,5.6341,5.7137,5.79,5.79,5.8727,5.9911,6.0047,6.1028,6.2212,6.2367,6.24,6.24,6.24,6.2821,6.3545,6.4884,6.5358,6.5628,6.6237,6.6352,6.6385,6.6542,6.6609,6.6622,6.6757,6.6791,6.669,6.6419,6.6352,6.6352,6.6352,6.6352,6.6352,6.6352,6.5865,6.5696,6.6284,6.5967,6.5954,6.6542,6.669,6.6791,6.6791,6.6791,6.6791,6.6791,6.6791,6.6791,6.6791,6.6791,6.6791,6.6791,6.6791,6.6791,6.6791,6.7421,6.8169,6.9133,7.0543,7.2186,2.9253,2.8958,2.9077,2.9407,2.8924,0.0,0.0,2.7546,2.7807,2.9711,2.9517,3.0025,3.3322,3.366,3.4032,3.5893,3.7144,3.8633,4.0899,4.2151,4.2997,4.3416,4.345,4.3586,4.3978,4.4012,4.4161,4.4581,4.4615,4.4615,4.4615,4.4615,4.477,4.5142,4.621,4.6989,4.7361,4.8443,4.9018,4.9018,4.9018,4.939,5.015,5.0863,5.1607,5.2334,5.3145,5.3518,5.3585,5.4702,5.5361,5.5767,5.6528,5.7239,5.7934,5.8321,5.9133,6.0148,6.0554,6.1434,6.24,6.24,6.24,6.24,6.24,6.3159,6.4275,6.5392,6.5967,6.6339,6.669,6.6791,6.6791,6.6791,6.6791,6.6791,6.6791,6.6791,6.6791,6.6791,6.6791,6.6791,6.6791,6.6791,6.6791,6.6791,6.6508,6.6373,6.6757,6.6474,6.6406,6.6757,6.6791,6.6791,6.6791,6.6791,6.6791,6.6791,6.6791,6.6791,6.6791,6.6791,6.6791,6.6791,6.7163,6.7354,6.7354,6.8504,6.9079,6.9149,7.1143,7.2696,3.1519,3.0954,3.0929,3.1853,0.0,2.8899,0.0,0.0,0.0,2.9736,2.9305,2.9339,3.1857,3.1461,3.1562,3.3954,3.4799,3.578,3.7449,3.9491,4.1081,4.1792,4.213,4.2489,4.2916,4.2848,4.3166,4.4093,4.4025,4.4059,4.4364,4.4499,4.4615,4.4615,4.6022,4.68,4.68,4.8274,4.9018,4.9018,4.9018,4.9458,5.0338,5.093,5.1674,5.257,5.3213,5.3518,5.3619,5.509,5.5699,5.58,5.6664,5.7374,5.7983,5.8709,5.9471,6.0216,6.1028,6.1772,6.24,6.24,6.2502,6.2618,6.2787,6.3734,6.4952,6.5696,6.6339,6.6791,6.6791,6.6791,6.6791,6.6791,6.6791,6.6791,6.6791,6.6791,6.6791,6.6791,6.6791,6.6791,6.6791,6.6791,6.6791,6.6791,6.6791,6.6791,6.6791,6.6791,6.6791,6.6791,6.6791,6.6791,6.6791,6.6791,6.6791,6.6791,6.6791,6.6791,6.6791,6.6791,6.6859,6.7015,6.759,6.7963,6.8132,6.9681,7.0141,6.9585,7.17,7.3144,3.5205,3.5915,0.0,0.0,3.3512,3.4009,0.0,0.0,2.905,2.6717,0.0,2.7266,2.8263,0.0,0.0,2.9687,3.1935,3.3525,3.3139,3.4381,3.6615,3.9943,4.1487,4.2083,4.1508,4.0878,4.1048,4.2469,4.1948,4.2151,4.3457,4.4215,4.4615,4.4615,4.6022,4.68,4.68,4.8274,4.9018,4.9018,4.9018,4.9713,5.1066,5.1167,5.1979,5.3382,5.345,5.3518,5.3619,5.509,5.5699,5.5834,5.7239,5.7832,5.7983,5.8709,5.9471,6.0216,6.1028,6.1772,6.24,6.24,6.2854,6.3477,6.414,6.4918,6.573,6.6474,6.6724,6.6791,6.6791,6.6791,6.6791,6.6791,6.6791,6.6791,6.6791,6.6791,6.6791,6.6791,6.6791,6.6791,6.6791,6.6791,6.6791,6.6791,6.6791,6.6791,6.6791,6.6791,6.6791,6.6791,6.6791,6.6791,6.6791,6.6791,6.6791,6.6791,6.6791,6.6791,6.6791,6.6791,6.7117,6.776,6.7861,6.8233,6.8977,7.0494,7.1235,7.1167,7.2112,7.3412,0.0,0.0,0.0,0.0,0.0,0.0,2.9118,0.0,2.7909,0.0,0.0,0.0,0.0,0.0,0.0,0.0,3.0059,3.1031,3.1572,3.2182,3.3795,3.711,3.728,3.7686,3.9162,3.9783,4.0696,4.2198,4.1217,4.1373,4.3288,4.3727,4.4113,4.4581,4.6022,4.68,4.68,4.8274,4.9018,4.9018,4.9018,4.9781,5.1201,5.1201,5.2046,5.3518,5.3518,5.3754,5.4228,5.5259,5.5936,5.6461,5.7476,5.79,5.8017,5.9201,5.9844,6.0283,6.1501,6.2144,6.2468,6.2888,6.326,6.3714,6.4884,6.5425,6.5831,6.6588,6.6791,6.6791,6.6791,6.6791,6.6791,6.6791,6.6791,6.6791,6.6791,6.6791,6.6791,6.6791,6.6791,6.6791,6.6791,6.6791,6.6791,6.6791,6.6791,6.6791,6.6791,6.6791,6.6791,6.6791,6.6791,6.6791,6.6791,6.6791,6.6791,6.6791,6.6791,6.6791,6.6791,6.7218,6.759,6.7895,6.8774,6.9632,7.0438,7.1517,7.2551,7.354,7.3873,7.4414,3.7234,0.0,0.0,0.0,0.0,0.0,0.0,0.0,0.0,0.0,0.0,0.0,0.0,0.0,0.0,0.0,0.0,2.9745,3.0209,3.0074,3.1055,3.4055,3.3987,3.481,0.0,3.8316,3.9331,4.1251,4.0032,4.0337,4.2949,4.3288,4.3775,4.4567,4.6022,4.68,4.68,4.8274,4.9018,4.9018,4.9187,4.9965,5.1201,5.1404,5.2216,5.3518,5.3518,5.3923,5.4668,5.5395,5.6139,5.6867,5.7629,5.8017,5.8355,5.9641,6.0114,6.0317,6.1873,6.2516,6.2787,6.3308,6.3748,6.4309,6.5378,6.5831,6.6102,6.6643,6.6791,6.6791,6.6791,6.6791,6.6791,6.6791,6.6791,6.6791,6.6791,6.6791,6.6791,6.6791,6.6791,6.6791,6.6791,6.6791,6.6791,6.6791,6.6791,6.6791,6.6791,6.6791,6.6791,6.6791,6.6791,6.6791,6.6791,6.6791,6.6791,6.6791,6.6791,6.6893,6.7096,6.7624,6.8098,6.8504,6.962,7.058,7.1383,7.2382,7.3502,7.4733,7.499,7.5209,0.0,0.0,0.0,3.4878,0.0,0.0,0.0,0.0,3.0852,0.0,0.0,0.0,0.0,0.0,0.0,0.0,0.0,0.0,0.0,2.7291,2.7952,3.0987,3.3197,3.5351,0.0,3.596,3.5893,3.8882,3.7731,3.8476,4.213,4.3017,4.3775,4.4567,4.6022,4.68,4.68,4.8274,4.9018,4.9018,4.9729,5.0473,5.1235,5.1961,5.2706,5.3518,5.3518,5.3923,5.4668,5.5395,5.6139,5.6867,5.7629,5.8355,5.9047,5.981,6.0114,6.0317,6.1873,6.2854,6.3477,6.3477,6.4478,6.5649,6.5683,6.6203,6.6757,6.6791,6.6791,6.6791,6.6791,6.6791,6.6791,6.6791,6.6791,6.6791,6.6791,6.6791,6.6791,6.6791,6.6791,6.6791,6.6791,6.6791,6.6791,6.6791,6.6791,6.6791,6.6791,6.6791,6.6791,6.6791,6.6791,6.6791,6.6791,6.6791,6.6791,6.6791,6.6791,6.7117,6.7827,6.7895,6.8605,7.0116,7.0161,7.0556,7.1323,7.297,7.378,7.3858,7.4696,7.5531,0.0,0.0,4.1982,3.7471,0.0,0.0,0.0,0.0,0.0,0.0,0.0,0.0,0.0,0.0,0.0,0.0,0.0,0.0,0.0,2.6023,2.6158,2.8644,3.1369,3.3163,3.3423,3.4529,3.5645,3.6659,3.6287,3.7415,4.0675,4.1542,4.276,4.4533,4.6022,4.7022,4.7515,4.8511,4.9018,4.9018,4.9729,5.0473,5.1235,5.1945,5.2739,5.3518,5.3518,5.4194,5.5327,5.5597,5.6427,5.7543,5.778,5.8355,5.9081,5.9844,6.0452,6.1028,6.2042,6.2888,6.3579,6.4072,6.4884,6.5764,6.6271,6.6609,6.6791,6.6791,6.6791,6.6791,6.6791,6.6791,6.6791,6.6791,6.6791,6.6791,6.6791,6.6791,6.6791,6.6791,6.6791,6.6791,6.6791,6.6791,6.6791,6.6791,6.6791,6.6791,6.6791,6.6791,6.6791,6.6791,6.6791,6.6791,6.6791,6.6791,6.6791,6.6791,6.7252,6.7658,6.7895,6.8876,6.9654,7.0184,7.0669,7.1318,7.2099,7.3241,7.4091,7.4677,7.5495,7.6055,4.2828,4.3423,0.0,3.994,3.8316,0.0,3.2905,0.0,3.4077,0.0,0.0,0.0,0.0,0.0,0.0,0.0,0.0,0.0,0.0,2.5312,2.5515,2.7224,2.961,3.1572,3.2645,3.3311,3.4416,3.6287,3.5171,3.6096,0.0,4.0798,4.2252,4.4547,4.6022,4.7158,4.7887,4.8631,4.912,4.939,5.0135,5.0879,5.1607,5.2367,5.301,5.3518,5.3788,5.46,5.5733,5.5969,5.6799,5.7934,5.8186,5.8727,5.9471,5.9911,6.0791,6.1806,6.255,6.326,6.3984,6.4749,6.5493,6.617,6.6677,6.6791,6.6791,6.6791,6.6791,6.6791,6.6791,6.6791,6.6791,6.6791,6.6791,6.6791,6.6791,6.6791,6.6791,6.6791,6.6791,6.6791,6.6791,6.6791,6.6791,6.6791,6.6791,6.6791,6.6791,6.6791,6.6791,6.6791,6.6791,6.6791,6.6791,6.6791,6.6893,6.7184,6.7658,6.8132,6.8707,6.9654,7.0297,7.0601,7.1075,7.1688,7.2512,7.3382,7.4226,7.5118,7.5952,7.6292]}]]